<?xml version="1.0" encoding="UTF-8" standalone="no" ?>
<gpx xmlns="http://www.topografix.com/GPX/1/1" xmlns:xsi="http://www.w3.org/2001/XMLSchema-instance" xsi:schemaLocation="http://www.topografix.com/GPX/1/1 http://www.topografix.com/GPX/1/1/gpx.xsd" version="1.1" creator="VisuGPX - https://www.visugpx.com">
  <metadata>
    <name>A faire - Laguépie - Bruniquel - Penne - Cordes-sur-Ciel - Laguépie</name>
    <desc><![CDATA[Laguépie - Bruniquel - Penne - Cordes-sur-Ciel - Laguépie]]></desc>
  </metadata>
  <trk>
    <name><![CDATA[TRAVERSE 3 - Quercy Vert]]></name>
    <extensions>
      <line xmlns="http://www.topografix.com/GPX/gpx_style/0/2">
        <color>0000FF</color>
        <width>4</width>
      </line>
    </extensions>
    <trkseg>
      <trkpt lat="44.06334" lon="1.90508">
        <ele>165.848026</ele>
        <time>2025-05-13T14:57:26.795Z</time>
      </trkpt>
      <trkpt lat="44.0633" lon="1.90519">
        <ele>165.848026</ele>
        <time>2025-05-13T14:57:27.714Z</time>
      </trkpt>
      <trkpt lat="44.06316" lon="1.90602">
        <ele>165.848026</ele>
        <time>2025-05-13T14:57:34.296Z</time>
      </trkpt>
      <trkpt lat="44.06314" lon="1.9065">
        <ele>165.709764</ele>
        <time>2025-05-13T14:57:37.942Z</time>
      </trkpt>
      <trkpt lat="44.06316" lon="1.90705">
        <ele>165.31898</ele>
        <time>2025-05-13T14:57:42.175Z</time>
      </trkpt>
      <trkpt lat="44.06327" lon="1.90771">
        <ele>164.842797</ele>
        <time>2025-05-13T14:57:47.669Z</time>
      </trkpt>
      <trkpt lat="44.06446" lon="1.91261">
        <ele>166.229194</ele>
        <time>2025-05-13T14:58:49.958Z</time>
      </trkpt>
      <trkpt lat="44.06449" lon="1.91272">
        <ele>166.324736</ele>
        <time>2025-05-13T14:58:51.963Z</time>
      </trkpt>
      <trkpt lat="44.06478" lon="1.9139">
        <ele>167.171511</ele>
        <time>2025-05-13T14:59:13.248Z</time>
      </trkpt>
      <trkpt lat="44.06493" lon="1.91454">
        <ele>167.481631</ele>
        <time>2025-05-13T14:59:23.995Z</time>
      </trkpt>
      <trkpt lat="44.0651" lon="1.91521">
        <ele>167.810855</ele>
        <time>2025-05-13T14:59:32.961Z</time>
      </trkpt>
      <trkpt lat="44.06584" lon="1.91825">
        <ele>165.599725</ele>
        <time>2025-05-13T14:59:59.730Z</time>
      </trkpt>
      <trkpt lat="44.06935" lon="1.93288">
        <ele>197.9</ele>
        <time>2025-05-13T15:23:04.384Z</time>
      </trkpt>
      <trkpt lat="44.0651" lon="1.91521">
        <ele>167.94486</ele>
        <time>2025-05-13T15:23:51.708Z</time>
      </trkpt>
      <trkpt lat="44.06493" lon="1.91454">
        <ele>168.162677</ele>
        <time>2025-05-13T15:23:58.305Z</time>
      </trkpt>
      <trkpt lat="44.06478" lon="1.9139">
        <ele>167.438307</ele>
        <time>2025-05-13T15:24:03.678Z</time>
      </trkpt>
      <trkpt lat="44.06449" lon="1.91272">
        <ele>166.09665</ele>
        <time>2025-05-13T15:24:13.303Z</time>
      </trkpt>
      <trkpt lat="44.06446" lon="1.91261">
        <ele>165.968832</ele>
        <time>2025-05-13T15:24:14.232Z</time>
      </trkpt>
      <trkpt lat="44.06327" lon="1.90771">
        <ele>164.367192</ele>
        <time>2025-05-13T15:25:03.652Z</time>
      </trkpt>
      <trkpt lat="44.06316" lon="1.90705">
        <ele>165.080559</ele>
        <time>2025-05-13T15:25:14.059Z</time>
      </trkpt>
      <trkpt lat="44.06314" lon="1.9065">
        <ele>165.933407</ele>
        <time>2025-05-13T15:25:23.864Z</time>
      </trkpt>
      <trkpt lat="44.06316" lon="1.90602">
        <ele>166.67751</ele>
        <time>2025-05-13T15:25:33.040Z</time>
      </trkpt>
      <trkpt lat="44.0633" lon="1.90519">
        <ele>167.983795</ele>
        <time>2025-05-13T15:25:48.669Z</time>
      </trkpt>
      <trkpt lat="44.06347" lon="1.90465">
        <ele>169.011685</ele>
        <time>2025-05-13T15:25:58.435Z</time>
      </trkpt>
      <trkpt lat="44.06367" lon="1.90428">
        <ele>169.860148</ele>
        <time>2025-05-13T15:26:05.844Z</time>
      </trkpt>
      <trkpt lat="44.06396" lon="1.90389">
        <ele>170.874762</ele>
        <time>2025-05-13T15:26:15.098Z</time>
      </trkpt>
      <trkpt lat="44.06405" lon="1.90377">
        <ele>171.199014</ele>
        <time>2025-05-13T15:26:18.154Z</time>
      </trkpt>
      <trkpt lat="44.06396" lon="1.90356">
        <ele>171.633835</ele>
        <time>2025-05-13T15:26:22.358Z</time>
      </trkpt>
      <trkpt lat="44.06394" lon="1.90331">
        <ele>172.110372</ele>
        <time>2025-05-13T15:26:27.139Z</time>
      </trkpt>
      <trkpt lat="44.06393" lon="1.90321">
        <ele>172.29499</ele>
        <time>2025-05-13T15:26:29.043Z</time>
      </trkpt>
      <trkpt lat="44.06401" lon="1.90295">
        <ele>172.832197</ele>
        <time>2025-05-13T15:26:34.536Z</time>
      </trkpt>
      <trkpt lat="44.06412" lon="1.90274">
        <ele>173.787149</ele>
        <time>2025-05-13T15:26:39.944Z</time>
      </trkpt>
      <trkpt lat="44.06478" lon="1.90205">
        <ele>178.007987</ele>
        <time>2025-05-13T15:27:08.386Z</time>
      </trkpt>
      <trkpt lat="44.06492" lon="1.90185">
        <ele>179.036074</ele>
        <time>2025-05-13T15:27:16.135Z</time>
      </trkpt>
      <trkpt lat="44.06499" lon="1.90173">
        <ele>179.610219</ele>
        <time>2025-05-13T15:27:20.480Z</time>
      </trkpt>
      <trkpt lat="44.06522" lon="1.90103">
        <ele>182.538319</ele>
        <time>2025-05-13T15:27:42.671Z</time>
      </trkpt>
      <trkpt lat="44.06568" lon="1.90013">
        <ele>187.262359</ele>
        <time>2025-05-13T15:28:14.027Z</time>
      </trkpt>
      <trkpt lat="44.06582" lon="1.89991">
        <ele>188.556155</ele>
        <time>2025-05-13T15:28:22.594Z</time>
      </trkpt>
      <trkpt lat="44.06616" lon="1.89957">
        <ele>191.075761</ele>
        <time>2025-05-13T15:28:38.895Z</time>
      </trkpt>
      <trkpt lat="44.06632" lon="1.89934">
        <ele>192.429167</ele>
        <time>2025-05-13T15:28:46.926Z</time>
      </trkpt>
      <trkpt lat="44.0664" lon="1.89908">
        <ele>193.601003</ele>
        <time>2025-05-13T15:28:54.387Z</time>
      </trkpt>
      <trkpt lat="44.06642" lon="1.89886">
        <ele>194.483608</ele>
        <time>2025-05-13T15:29:00.200Z</time>
      </trkpt>
      <trkpt lat="44.06637" lon="1.89841">
        <ele>196.310682</ele>
        <time>2025-05-13T15:29:12.484Z</time>
      </trkpt>
      <trkpt lat="44.06626" lon="1.89804">
        <ele>197.897074</ele>
        <time>2025-05-13T15:29:23.086Z</time>
      </trkpt>
      <trkpt lat="44.06618" lon="1.89783">
        <ele>198.843707</ele>
        <time>2025-05-13T15:29:29.575Z</time>
      </trkpt>
      <trkpt lat="44.06596" lon="1.89743">
        <ele>200.849122</ele>
        <time>2025-05-13T15:29:43.137Z</time>
      </trkpt>
      <trkpt lat="44.06473" lon="1.89574">
        <ele>210.117087</ele>
        <time>2025-05-13T15:30:46.126Z</time>
      </trkpt>
      <trkpt lat="44.06424" lon="1.89491">
        <ele>214.20455</ele>
        <time>2025-05-13T15:31:12.943Z</time>
      </trkpt>
      <trkpt lat="44.06352" lon="1.89377">
        <ele>219.916659</ele>
        <time>2025-05-13T15:31:51.552Z</time>
      </trkpt>
      <trkpt lat="44.06325" lon="1.89321">
        <ele>222.512961</ele>
        <time>2025-05-13T15:32:09.601Z</time>
      </trkpt>
      <trkpt lat="44.06306" lon="1.89241">
        <ele>226.024139</ele>
        <time>2025-05-13T15:32:32.796Z</time>
      </trkpt>
      <trkpt lat="44.0627" lon="1.89069">
        <ele>233.422245</ele>
        <time>2025-05-13T15:33:21.840Z</time>
      </trkpt>
      <trkpt lat="44.06243" lon="1.88935">
        <ele>239.077633</ele>
        <time>2025-05-13T15:33:59.248Z</time>
      </trkpt>
      <trkpt lat="44.06236" lon="1.88899">
        <ele>240.558966</ele>
        <time>2025-05-13T15:34:09.062Z</time>
      </trkpt>
      <trkpt lat="44.06235" lon="1.88898">
        <ele>240.631327</ele>
        <time>2025-05-13T15:34:09.532Z</time>
      </trkpt>
      <trkpt lat="44.06194" lon="1.88699">
        <ele>248.176978</ele>
        <time>2025-05-13T15:35:05.145Z</time>
      </trkpt>
      <trkpt lat="44.06181" lon="1.88615">
        <ele>251.210426</ele>
        <time>2025-05-13T15:35:24.335Z</time>
      </trkpt>
      <trkpt lat="44.06176" lon="1.88542">
        <ele>252.848175</ele>
        <time>2025-05-13T15:35:38.461Z</time>
      </trkpt>
      <trkpt lat="44.06179" lon="1.88515">
        <ele>253.452359</ele>
        <time>2025-05-13T15:35:43.164Z</time>
      </trkpt>
      <trkpt lat="44.06184" lon="1.8849">
        <ele>254.046549</ele>
        <time>2025-05-13T15:35:47.765Z</time>
      </trkpt>
      <trkpt lat="44.06193" lon="1.88463">
        <ele>254.71751</ele>
        <time>2025-05-13T15:35:53.268Z</time>
      </trkpt>
      <trkpt lat="44.06211" lon="1.88422">
        <ele>255.778424</ele>
        <time>2025-05-13T15:36:02.304Z</time>
      </trkpt>
      <trkpt lat="44.06219" lon="1.88405">
        <ele>256.242483</ele>
        <time>2025-05-13T15:36:06.303Z</time>
      </trkpt>
      <trkpt lat="44.06229" lon="1.88365">
        <ele>257.385356</ele>
        <time>2025-05-13T15:36:14.939Z</time>
      </trkpt>
      <trkpt lat="44.06234" lon="1.88318">
        <ele>258.905908</ele>
        <time>2025-05-13T15:36:25.198Z</time>
      </trkpt>
      <trkpt lat="44.06231" lon="1.8828">
        <ele>260.158434</ele>
        <time>2025-05-13T15:36:33.907Z</time>
      </trkpt>
      <trkpt lat="44.06219" lon="1.88246">
        <ele>261.390535</ele>
        <time>2025-05-13T15:36:42.858Z</time>
      </trkpt>
      <trkpt lat="44.0619" lon="1.88194">
        <ele>263.494515</ele>
        <time>2025-05-13T15:36:59.577Z</time>
      </trkpt>
      <trkpt lat="44.06181" lon="1.88167">
        <ele>264.468906</ele>
        <time>2025-05-13T15:37:07.347Z</time>
      </trkpt>
      <trkpt lat="44.06181" lon="1.88151">
        <ele>264.993884</ele>
        <time>2025-05-13T15:37:11.397Z</time>
      </trkpt>
      <trkpt lat="44.06184" lon="1.88129">
        <ele>265.873766</ele>
        <time>2025-05-13T15:37:17.163Z</time>
      </trkpt>
      <trkpt lat="44.06194" lon="1.88092">
        <ele>267.47114</ele>
        <time>2025-05-13T15:37:27.917Z</time>
      </trkpt>
      <trkpt lat="44.06226" lon="1.88024">
        <ele>270.692307</ele>
        <time>2025-05-13T15:37:50.327Z</time>
      </trkpt>
      <trkpt lat="44.06233" lon="1.88004">
        <ele>271.567948</ele>
        <time>2025-05-13T15:37:56.387Z</time>
      </trkpt>
      <trkpt lat="44.06236" lon="1.87982">
        <ele>272.473685</ele>
        <time>2025-05-13T15:38:02.538Z</time>
      </trkpt>
      <trkpt lat="44.06237" lon="1.87928">
        <ele>274.59593</ele>
        <time>2025-05-13T15:38:16.290Z</time>
      </trkpt>
      <trkpt lat="44.06229" lon="1.8782">
        <ele>279.229219</ele>
        <time>2025-05-13T15:38:43.619Z</time>
      </trkpt>
      <trkpt lat="44.06233" lon="1.8779">
        <ele>280.546837</ele>
        <time>2025-05-13T15:38:51.788Z</time>
      </trkpt>
      <trkpt lat="44.06247" lon="1.8776">
        <ele>282.082641</ele>
        <time>2025-05-13T15:39:01.634Z</time>
      </trkpt>
      <trkpt lat="44.06276" lon="1.87734">
        <ele>284.097643</ele>
        <time>2025-05-13T15:39:15.384Z</time>
      </trkpt>
      <trkpt lat="44.06293" lon="1.87726">
        <ele>285.15477</ele>
        <time>2025-05-13T15:39:22.986Z</time>
      </trkpt>
      <trkpt lat="44.06408" lon="1.87695">
        <ele>294.079431</ele>
        <time>2025-05-13T15:40:17.830Z</time>
      </trkpt>
      <trkpt lat="44.0649" lon="1.87668">
        <ele>300.375673</ele>
        <time>2025-05-13T15:40:55.698Z</time>
      </trkpt>
      <trkpt lat="44.06548" lon="1.87644">
        <ele>304.657103</ele>
        <time>2025-05-13T15:41:23.068Z</time>
      </trkpt>
      <trkpt lat="44.06686" lon="1.87596">
        <ele>313.830246</ele>
        <time>2025-05-13T15:42:22.142Z</time>
      </trkpt>
      <trkpt lat="44.06697" lon="1.8758">
        <ele>314.628272</ele>
        <time>2025-05-13T15:42:28.277Z</time>
      </trkpt>
      <trkpt lat="44.06698" lon="1.87566">
        <ele>315.151633</ele>
        <time>2025-05-13T15:42:32.219Z</time>
      </trkpt>
      <trkpt lat="44.06694" lon="1.87551">
        <ele>315.703421</ele>
        <time>2025-05-13T15:42:36.313Z</time>
      </trkpt>
      <trkpt lat="44.06673" lon="1.87532">
        <ele>316.934364</ele>
        <time>2025-05-13T15:42:45.274Z</time>
      </trkpt>
      <trkpt lat="44.06566" lon="1.87481">
        <ele>321.815782</ele>
        <time>2025-05-13T15:43:19.032Z</time>
      </trkpt>
      <trkpt lat="44.06535" lon="1.87468">
        <ele>322.783995</ele>
        <time>2025-05-13T15:43:26.545Z</time>
      </trkpt>
      <trkpt lat="44.06487" lon="1.8746">
        <ele>324.245256</ele>
        <time>2025-05-13T15:43:38.591Z</time>
      </trkpt>
      <trkpt lat="44.06442" lon="1.8746">
        <ele>325.565838</ele>
        <time>2025-05-13T15:43:50.104Z</time>
      </trkpt>
      <trkpt lat="44.06431" lon="1.87453">
        <ele>325.935246</ele>
        <time>2025-05-13T15:43:53.403Z</time>
      </trkpt>
      <trkpt lat="44.06422" lon="1.87439">
        <ele>326.450824</ele>
        <time>2025-05-13T15:43:57.168Z</time>
      </trkpt>
      <trkpt lat="44.0642" lon="1.8742">
        <ele>327.099135</ele>
        <time>2025-05-13T15:44:01.069Z</time>
      </trkpt>
      <trkpt lat="44.06423" lon="1.87396">
        <ele>327.937166</ele>
        <time>2025-05-13T15:44:06.326Z</time>
      </trkpt>
      <trkpt lat="44.06432" lon="1.87369">
        <ele>328.933026</ele>
        <time>2025-05-13T15:44:12.963Z</time>
      </trkpt>
      <trkpt lat="44.06451" lon="1.87336">
        <ele>330.370246</ele>
        <time>2025-05-13T15:44:23.573Z</time>
      </trkpt>
      <trkpt lat="44.06542" lon="1.87195">
        <ele>336.806453</ele>
        <time>2025-05-13T15:45:13.572Z</time>
      </trkpt>
      <trkpt lat="44.06544" lon="1.87192">
        <ele>336.936399</ele>
        <time>2025-05-13T15:45:14.599Z</time>
      </trkpt>
      <trkpt lat="44.06617" lon="1.87079">
        <ele>342.210113</ele>
        <time>2025-05-13T15:45:52.972Z</time>
      </trkpt>
      <trkpt lat="44.06765" lon="1.86848">
        <ele>349.409606</ele>
        <time>2025-05-13T15:46:54.288Z</time>
      </trkpt>
      <trkpt lat="44.06768" lon="1.86843">
        <ele>349.490206</ele>
        <time>2025-05-13T15:46:55.423Z</time>
      </trkpt>
      <trkpt lat="44.06811" lon="1.86776">
        <ele>350.602812</ele>
        <time>2025-05-13T15:47:09.470Z</time>
      </trkpt>
      <trkpt lat="44.06823" lon="1.86745">
        <ele>351.049431</ele>
        <time>2025-05-13T15:47:14.506Z</time>
      </trkpt>
      <trkpt lat="44.0683" lon="1.86721">
        <ele>351.372044</ele>
        <time>2025-05-13T15:47:18.233Z</time>
      </trkpt>
      <trkpt lat="44.06829" lon="1.86687">
        <ele>351.790456</ele>
        <time>2025-05-13T15:47:23.123Z</time>
      </trkpt>
      <trkpt lat="44.06821" lon="1.86609">
        <ele>352.462041</ele>
        <time>2025-05-13T15:47:33.878Z</time>
      </trkpt>
      <trkpt lat="44.06813" lon="1.86539">
        <ele>352.880697</ele>
        <time>2025-05-13T15:47:43.103Z</time>
      </trkpt>
      <trkpt lat="44.06793" lon="1.86351">
        <ele>353.825491</ele>
        <time>2025-05-13T15:48:07.468Z</time>
      </trkpt>
      <trkpt lat="44.06747" lon="1.85931">
        <ele>354.816375</ele>
        <time>2025-05-13T15:48:55.537Z</time>
      </trkpt>
      <trkpt lat="44.06748" lon="1.85928">
        <ele>354.82265</ele>
        <time>2025-05-13T15:48:55.897Z</time>
      </trkpt>
      <trkpt lat="44.06754" lon="1.85897">
        <ele>354.978017</ele>
        <time>2025-05-13T15:48:59.287Z</time>
      </trkpt>
      <trkpt lat="44.06803" lon="1.85714">
        <ele>356.384885</ele>
        <time>2025-05-13T15:49:23.340Z</time>
      </trkpt>
      <trkpt lat="44.06889" lon="1.85397">
        <ele>361.864107</ele>
        <time>2025-05-13T15:50:28.589Z</time>
      </trkpt>
      <trkpt lat="44.06892" lon="1.85375">
        <ele>361.992795</ele>
        <time>2025-05-13T15:50:32.310Z</time>
      </trkpt>
      <trkpt lat="44.06891" lon="1.84911">
        <ele>362.75088</ele>
        <time>2025-05-13T15:51:20.139Z</time>
      </trkpt>
      <trkpt lat="44.06889" lon="1.84878">
        <ele>362.775226</ele>
        <time>2025-05-13T15:51:23.207Z</time>
      </trkpt>
      <trkpt lat="44.06867" lon="1.84789">
        <ele>362.846435</ele>
        <time>2025-05-13T15:51:32.898Z</time>
      </trkpt>
      <trkpt lat="44.06864" lon="1.84744">
        <ele>362.879757</ele>
        <time>2025-05-13T15:51:37.871Z</time>
      </trkpt>
      <trkpt lat="44.06871" lon="1.84711">
        <ele>362.906023</ele>
        <time>2025-05-13T15:51:42.075Z</time>
      </trkpt>
      <trkpt lat="44.06893" lon="1.84659">
        <ele>363.623205</ele>
        <time>2025-05-13T15:51:50.067Z</time>
      </trkpt>
      <trkpt lat="44.06894" lon="1.84638">
        <ele>363.901245</ele>
        <time>2025-05-13T15:51:53.262Z</time>
      </trkpt>
      <trkpt lat="44.0689" lon="1.84611">
        <ele>364.264887</ele>
        <time>2025-05-13T15:51:57.970Z</time>
      </trkpt>
      <trkpt lat="44.06876" lon="1.84591">
        <ele>364.63314</ele>
        <time>2025-05-13T15:52:03.137Z</time>
      </trkpt>
      <trkpt lat="44.06857" lon="1.84582">
        <ele>364.998314</ele>
        <time>2025-05-13T15:52:08.137Z</time>
      </trkpt>
      <trkpt lat="44.0682" lon="1.84586">
        <ele>365.684493</ele>
        <time>2025-05-13T15:52:17.439Z</time>
      </trkpt>
      <trkpt lat="44.06811" lon="1.84582">
        <ele>365.850221</ele>
        <time>2025-05-13T15:52:19.618Z</time>
      </trkpt>
      <trkpt lat="44.06802" lon="1.84565">
        <ele>366.133577</ele>
        <time>2025-05-13T15:52:23.379Z</time>
      </trkpt>
      <trkpt lat="44.06802" lon="1.84547">
        <ele>366.231291</ele>
        <time>2025-05-13T15:52:26.410Z</time>
      </trkpt>
      <trkpt lat="44.06805" lon="1.84531">
        <ele>366.266397</ele>
        <time>2025-05-13T15:52:29.266Z</time>
      </trkpt>
      <trkpt lat="44.06861" lon="1.84426">
        <ele>366.54237</ele>
        <time>2025-05-13T15:52:46.982Z</time>
      </trkpt>
      <trkpt lat="44.06864" lon="1.84417">
        <ele>366.562836</ele>
        <time>2025-05-13T15:52:47.830Z</time>
      </trkpt>
      <trkpt lat="44.06863" lon="1.84407">
        <ele>366.584705</ele>
        <time>2025-05-13T15:52:48.732Z</time>
      </trkpt>
      <trkpt lat="44.06831" lon="1.84263">
        <ele>366.654156</ele>
        <time>2025-05-13T15:53:00.867Z</time>
      </trkpt>
      <trkpt lat="44.06827" lon="1.8424">
        <ele>366.629242</ele>
        <time>2025-05-13T15:53:02.865Z</time>
      </trkpt>
      <trkpt lat="44.06832" lon="1.84222">
        <ele>366.609615</ele>
        <time>2025-05-13T15:53:04.492Z</time>
      </trkpt>
      <trkpt lat="44.06841" lon="1.84209">
        <ele>366.590942</ele>
        <time>2025-05-13T15:53:06.117Z</time>
      </trkpt>
      <trkpt lat="44.06856" lon="1.84196">
        <ele>366.565627</ele>
        <time>2025-05-13T15:53:08.432Z</time>
      </trkpt>
      <trkpt lat="44.07016" lon="1.8409">
        <ele>369.712902</ele>
        <time>2025-05-13T15:53:48.829Z</time>
      </trkpt>
      <trkpt lat="44.07028" lon="1.84086">
        <ele>370.066716</ele>
        <time>2025-05-13T15:53:52.844Z</time>
      </trkpt>
      <trkpt lat="44.0704" lon="1.84088">
        <ele>370.406656</ele>
        <time>2025-05-13T15:53:56.842Z</time>
      </trkpt>
      <trkpt lat="44.07077" lon="1.84106">
        <ele>371.500003</ele>
        <time>2025-05-13T15:54:09.354Z</time>
      </trkpt>
      <trkpt lat="44.07146" lon="1.84117">
        <ele>373.469981</ele>
        <time>2025-05-13T15:54:31.381Z</time>
      </trkpt>
      <trkpt lat="44.07174" lon="1.84125">
        <ele>374.275827</ele>
        <time>2025-05-13T15:54:39.823Z</time>
      </trkpt>
      <trkpt lat="44.07187" lon="1.84135">
        <ele>374.71274</ele>
        <time>2025-05-13T15:54:44.070Z</time>
      </trkpt>
      <trkpt lat="44.07201" lon="1.84153">
        <ele>375.264942</ele>
        <time>2025-05-13T15:54:49.009Z</time>
      </trkpt>
      <trkpt lat="44.07227" lon="1.84216">
        <ele>376.597997</ele>
        <time>2025-05-13T15:54:59.269Z</time>
      </trkpt>
      <trkpt lat="44.07238" lon="1.84228">
        <ele>376.483955</ele>
        <time>2025-05-13T15:55:01.368Z</time>
      </trkpt>
      <trkpt lat="44.07256" lon="1.84236">
        <ele>376.335765</ele>
        <time>2025-05-13T15:55:03.899Z</time>
      </trkpt>
      <trkpt lat="44.07272" lon="1.84236">
        <ele>376.213496</ele>
        <time>2025-05-13T15:55:05.858Z</time>
      </trkpt>
      <trkpt lat="44.07288" lon="1.84229">
        <ele>376.076578</ele>
        <time>2025-05-13T15:55:07.923Z</time>
      </trkpt>
      <trkpt lat="44.07304" lon="1.84215">
        <ele>375.928314</ele>
        <time>2025-05-13T15:55:10.066Z</time>
      </trkpt>
      <trkpt lat="44.07315" lon="1.84191">
        <ele>375.767635</ele>
        <time>2025-05-13T15:55:12.326Z</time>
      </trkpt>
      <trkpt lat="44.07316" lon="1.84163">
        <ele>375.610907</ele>
        <time>2025-05-13T15:55:14.516Z</time>
      </trkpt>
      <trkpt lat="44.07309" lon="1.84096">
        <ele>375.230058</ele>
        <time>2025-05-13T15:55:19.983Z</time>
      </trkpt>
      <trkpt lat="44.07312" lon="1.84065">
        <ele>375.658047</ele>
        <time>2025-05-13T15:55:22.842Z</time>
      </trkpt>
      <trkpt lat="44.0732" lon="1.84041">
        <ele>376.092408</ele>
        <time>2025-05-13T15:55:25.742Z</time>
      </trkpt>
      <trkpt lat="44.07341" lon="1.84021">
        <ele>376.661586</ele>
        <time>2025-05-13T15:55:30.502Z</time>
      </trkpt>
      <trkpt lat="44.0736" lon="1.84012">
        <ele>377.131613</ele>
        <time>2025-05-13T15:55:35.245Z</time>
      </trkpt>
      <trkpt lat="44.07525" lon="1.83979">
        <ele>381.532105</ele>
        <time>2025-05-13T15:56:27.457Z</time>
      </trkpt>
      <trkpt lat="44.07549" lon="1.83987">
        <ele>382.311804</ele>
        <time>2025-05-13T15:56:34.535Z</time>
      </trkpt>
      <trkpt lat="44.07563" lon="1.83987">
        <ele>382.766811</ele>
        <time>2025-05-13T15:56:38.448Z</time>
      </trkpt>
      <trkpt lat="44.07574" lon="1.83979">
        <ele>383.151629</ele>
        <time>2025-05-13T15:56:41.639Z</time>
      </trkpt>
      <trkpt lat="44.07579" lon="1.83963">
        <ele>383.554368</ele>
        <time>2025-05-13T15:56:44.876Z</time>
      </trkpt>
      <trkpt lat="44.07607" lon="1.83778">
        <ele>387.016018</ele>
        <time>2025-05-13T15:57:14.870Z</time>
      </trkpt>
      <trkpt lat="44.07617" lon="1.83715">
        <ele>388.05208</ele>
        <time>2025-05-13T15:57:26.142Z</time>
      </trkpt>
      <trkpt lat="44.0762" lon="1.83706">
        <ele>388.215021</ele>
        <time>2025-05-13T15:57:27.978Z</time>
      </trkpt>
      <trkpt lat="44.07626" lon="1.83697">
        <ele>388.411307</ele>
        <time>2025-05-13T15:57:30.197Z</time>
      </trkpt>
      <trkpt lat="44.07675" lon="1.83655">
        <ele>389.964033</ele>
        <time>2025-05-13T15:57:45.066Z</time>
      </trkpt>
      <trkpt lat="44.07689" lon="1.83639">
        <ele>390.529175</ele>
        <time>2025-05-13T15:57:49.965Z</time>
      </trkpt>
      <trkpt lat="44.07725" lon="1.8358">
        <ele>392.251379</ele>
        <time>2025-05-13T15:58:05.481Z</time>
      </trkpt>
      <trkpt lat="44.07744" lon="1.8356">
        <ele>392.979779</ele>
        <time>2025-05-13T15:58:12.040Z</time>
      </trkpt>
      <trkpt lat="44.07752" lon="1.83558">
        <ele>393.232199</ele>
        <time>2025-05-13T15:58:14.300Z</time>
      </trkpt>
      <trkpt lat="44.07854" lon="1.83558">
        <ele>396.570054</ele>
        <time>2025-05-13T15:58:42.290Z</time>
      </trkpt>
      <trkpt lat="44.07871" lon="1.8355">
        <ele>397.213286</ele>
        <time>2025-05-13T15:58:47.766Z</time>
      </trkpt>
      <trkpt lat="44.07884" lon="1.8354">
        <ele>397.711884</ele>
        <time>2025-05-13T15:58:52.063Z</time>
      </trkpt>
      <trkpt lat="44.07902" lon="1.8352">
        <ele>398.492371</ele>
        <time>2025-05-13T15:58:58.829Z</time>
      </trkpt>
      <trkpt lat="44.07916" lon="1.83493">
        <ele>399.317989</ele>
        <time>2025-05-13T15:59:06.144Z</time>
      </trkpt>
      <trkpt lat="44.07921" lon="1.83456">
        <ele>400.249275</ele>
        <time>2025-05-13T15:59:13.892Z</time>
      </trkpt>
      <trkpt lat="44.07924" lon="1.83376">
        <ele>401.899717</ele>
        <time>2025-05-13T15:59:29.914Z</time>
      </trkpt>
      <trkpt lat="44.07926" lon="1.83355">
        <ele>402.301989</ele>
        <time>2025-05-13T15:59:34.093Z</time>
      </trkpt>
      <trkpt lat="44.07936" lon="1.83319">
        <ele>403.047077</ele>
        <time>2025-05-13T15:59:41.867Z</time>
      </trkpt>
      <trkpt lat="44.07956" lon="1.83296">
        <ele>403.743948</ele>
        <time>2025-05-13T15:59:49.133Z</time>
      </trkpt>
      <trkpt lat="44.08043" lon="1.83231">
        <ele>405.827758</ele>
        <time>2025-05-13T16:00:10.662Z</time>
      </trkpt>
      <trkpt lat="44.08055" lon="1.83214">
        <ele>405.972682</ele>
        <time>2025-05-13T16:00:13.889Z</time>
      </trkpt>
      <trkpt lat="44.08079" lon="1.83117">
        <ele>406.598697</ele>
        <time>2025-05-13T16:00:26.970Z</time>
      </trkpt>
      <trkpt lat="44.08092" lon="1.83091">
        <ele>406.792244</ele>
        <time>2025-05-13T16:00:30.945Z</time>
      </trkpt>
      <trkpt lat="44.08156" lon="1.83001">
        <ele>407.627127</ele>
        <time>2025-05-13T16:00:44.998Z</time>
      </trkpt>
      <trkpt lat="44.08162" lon="1.8298">
        <ele>407.787499</ele>
        <time>2025-05-13T16:00:48.256Z</time>
      </trkpt>
      <trkpt lat="44.08166" lon="1.82911">
        <ele>408.269991</ele>
        <time>2025-05-13T16:00:58.721Z</time>
      </trkpt>
      <trkpt lat="44.08171" lon="1.82887">
        <ele>408.446458</ele>
        <time>2025-05-13T16:01:02.641Z</time>
      </trkpt>
      <trkpt lat="44.08214" lon="1.82816">
        <ele>409.023537</ele>
        <time>2025-05-13T16:01:15.091Z</time>
      </trkpt>
      <trkpt lat="44.08226" lon="1.82788">
        <ele>409.196151</ele>
        <time>2025-05-13T16:01:19.475Z</time>
      </trkpt>
      <trkpt lat="44.08228" lon="1.82761">
        <ele>409.334733</ele>
        <time>2025-05-13T16:01:23.287Z</time>
      </trkpt>
      <trkpt lat="44.08225" lon="1.827">
        <ele>409.649974</ele>
        <time>2025-05-13T16:01:30.683Z</time>
      </trkpt>
      <trkpt lat="44.0823" lon="1.82676">
        <ele>409.778838</ele>
        <time>2025-05-13T16:01:33.379Z</time>
      </trkpt>
      <trkpt lat="44.08242" lon="1.8265">
        <ele>409.935868</ele>
        <time>2025-05-13T16:01:36.585Z</time>
      </trkpt>
      <trkpt lat="44.08294" lon="1.82582">
        <ele>411.228311</ele>
        <time>2025-05-13T16:01:48.768Z</time>
      </trkpt>
      <trkpt lat="44.0834" lon="1.82516">
        <ele>412.886599</ele>
        <time>2025-05-13T16:02:05.959Z</time>
      </trkpt>
      <trkpt lat="44.08397" lon="1.82403">
        <ele>415.66488</ele>
        <time>2025-05-13T16:02:35.751Z</time>
      </trkpt>
      <trkpt lat="44.08486" lon="1.82266">
        <ele>420.311479</ele>
        <time>2025-05-13T16:03:12.484Z</time>
      </trkpt>
      <trkpt lat="44.08499" lon="1.82235">
        <ele>421.239863</ele>
        <time>2025-05-13T16:03:19.867Z</time>
      </trkpt>
      <trkpt lat="44.08503" lon="1.82208">
        <ele>421.961091</ele>
        <time>2025-05-13T16:03:25.935Z</time>
      </trkpt>
      <trkpt lat="44.08502" lon="1.82177">
        <ele>422.777814</ele>
        <time>2025-05-13T16:03:33.304Z</time>
      </trkpt>
      <trkpt lat="44.0849" lon="1.82097">
        <ele>424.935097</ele>
        <time>2025-05-13T16:03:54.906Z</time>
      </trkpt>
      <trkpt lat="44.08489" lon="1.82006">
        <ele>427.30702</ele>
        <time>2025-05-13T16:04:12.495Z</time>
      </trkpt>
      <trkpt lat="44.08487" lon="1.81981">
        <ele>427.703674</ele>
        <time>2025-05-13T16:04:15.811Z</time>
      </trkpt>
      <trkpt lat="44.08477" lon="1.81978">
        <ele>427.864218</ele>
        <time>2025-05-13T16:04:17.409Z</time>
      </trkpt>
      <trkpt lat="44.08397" lon="1.82">
        <ele>429.11937</ele>
        <time>2025-05-13T16:04:31.536Z</time>
      </trkpt>
      <trkpt lat="44.08378" lon="1.81997">
        <ele>429.41939</ele>
        <time>2025-05-13T16:04:35.071Z</time>
      </trkpt>
      <trkpt lat="44.08362" lon="1.81988">
        <ele>429.685301</ele>
        <time>2025-05-13T16:04:38.152Z</time>
      </trkpt>
      <trkpt lat="44.08353" lon="1.81975">
        <ele>429.886807</ele>
        <time>2025-05-13T16:04:40.857Z</time>
      </trkpt>
      <trkpt lat="44.08328" lon="1.81916">
        <ele>430.992331</ele>
        <time>2025-05-13T16:04:53.314Z</time>
      </trkpt>
      <trkpt lat="44.08314" lon="1.819">
        <ele>431.545624</ele>
        <time>2025-05-13T16:04:58.869Z</time>
      </trkpt>
      <trkpt lat="44.08281" lon="1.81875">
        <ele>432.699507</ele>
        <time>2025-05-13T16:05:11.964Z</time>
      </trkpt>
      <trkpt lat="44.08248" lon="1.81858">
        <ele>433.770862</ele>
        <time>2025-05-13T16:05:23.679Z</time>
      </trkpt>
      <trkpt lat="44.08235" lon="1.81856">
        <ele>434.188732</ele>
        <time>2025-05-13T16:05:27.708Z</time>
      </trkpt>
      <trkpt lat="44.08211" lon="1.81864">
        <ele>434.943421</ele>
        <time>2025-05-13T16:05:34.165Z</time>
      </trkpt>
      <trkpt lat="44.08177" lon="1.81866">
        <ele>435.757666</ele>
        <time>2025-05-13T16:05:41.144Z</time>
      </trkpt>
      <trkpt lat="44.08163" lon="1.8186">
        <ele>435.692778</ele>
        <time>2025-05-13T16:05:43.431Z</time>
      </trkpt>
      <trkpt lat="44.08155" lon="1.81851">
        <ele>435.642627</ele>
        <time>2025-05-13T16:05:45.090Z</time>
      </trkpt>
      <trkpt lat="44.08145" lon="1.81835">
        <ele>435.5733</ele>
        <time>2025-05-13T16:05:47.210Z</time>
      </trkpt>
      <trkpt lat="44.08133" lon="1.81826">
        <ele>435.511092</ele>
        <time>2025-05-13T16:05:49.000Z</time>
      </trkpt>
      <trkpt lat="44.08118" lon="1.81824">
        <ele>435.440971</ele>
        <time>2025-05-13T16:05:50.933Z</time>
      </trkpt>
      <trkpt lat="44.08046" lon="1.81843">
        <ele>435.102289</ele>
        <time>2025-05-13T16:05:59.770Z</time>
      </trkpt>
      <trkpt lat="44.07987" lon="1.81838">
        <ele>434.236744</ele>
        <time>2025-05-13T16:06:06.871Z</time>
      </trkpt>
      <trkpt lat="44.07969" lon="1.81829">
        <ele>433.73883</ele>
        <time>2025-05-13T16:06:09.056Z</time>
      </trkpt>
      <trkpt lat="44.07931" lon="1.81796">
        <ele>432.576401</ele>
        <time>2025-05-13T16:06:13.943Z</time>
      </trkpt>
      <trkpt lat="44.07918" lon="1.8179">
        <ele>432.23023</ele>
        <time>2025-05-13T16:06:15.350Z</time>
      </trkpt>
      <trkpt lat="44.07906" lon="1.8179">
        <ele>431.927207</ele>
        <time>2025-05-13T16:06:16.581Z</time>
      </trkpt>
      <trkpt lat="44.07788" lon="1.81817">
        <ele>428.456072</ele>
        <time>2025-05-13T16:06:28.308Z</time>
      </trkpt>
      <trkpt lat="44.07772" lon="1.81818">
        <ele>427.938268</ele>
        <time>2025-05-13T16:06:29.844Z</time>
      </trkpt>
      <trkpt lat="44.07759" lon="1.81816">
        <ele>427.489311</ele>
        <time>2025-05-13T16:06:31.184Z</time>
      </trkpt>
      <trkpt lat="44.07746" lon="1.81808">
        <ele>427.027581</ele>
        <time>2025-05-13T16:06:32.591Z</time>
      </trkpt>
      <trkpt lat="44.07731" lon="1.81792">
        <ele>426.419547</ele>
        <time>2025-05-13T16:06:34.480Z</time>
      </trkpt>
      <trkpt lat="44.07696" lon="1.81733">
        <ele>424.646501</ele>
        <time>2025-05-13T16:06:40.306Z</time>
      </trkpt>
      <trkpt lat="44.07687" lon="1.81722">
        <ele>424.242789</ele>
        <time>2025-05-13T16:06:41.739Z</time>
      </trkpt>
      <trkpt lat="44.07624" lon="1.81687">
        <ele>422.098028</ele>
        <time>2025-05-13T16:06:49.377Z</time>
      </trkpt>
      <trkpt lat="44.07563" lon="1.81639">
        <ele>419.840751</ele>
        <time>2025-05-13T16:06:56.305Z</time>
      </trkpt>
      <trkpt lat="44.07552" lon="1.81632">
        <ele>419.450682</ele>
        <time>2025-05-13T16:06:57.449Z</time>
      </trkpt>
      <trkpt lat="44.07538" lon="1.81628">
        <ele>419.004246</ele>
        <time>2025-05-13T16:06:58.763Z</time>
      </trkpt>
      <trkpt lat="44.07505" lon="1.81628">
        <ele>418.563466</ele>
        <time>2025-05-13T16:07:01.940Z</time>
      </trkpt>
      <trkpt lat="44.07486" lon="1.81625">
        <ele>418.446486</ele>
        <time>2025-05-13T16:07:03.782Z</time>
      </trkpt>
      <trkpt lat="44.07474" lon="1.81614">
        <ele>418.357984</ele>
        <time>2025-05-13T16:07:05.210Z</time>
      </trkpt>
      <trkpt lat="44.07465" lon="1.816">
        <ele>418.277844</ele>
        <time>2025-05-13T16:07:06.546Z</time>
      </trkpt>
      <trkpt lat="44.07459" lon="1.81578">
        <ele>418.171352</ele>
        <time>2025-05-13T16:07:08.375Z</time>
      </trkpt>
      <trkpt lat="44.07454" lon="1.81552">
        <ele>418.052881</ele>
        <time>2025-05-13T16:07:10.636Z</time>
      </trkpt>
      <trkpt lat="44.07453" lon="1.81526">
        <ele>417.932995</ele>
        <time>2025-05-13T16:07:13.808Z</time>
      </trkpt>
      <trkpt lat="44.07463" lon="1.81414">
        <ele>418.123117</ele>
        <time>2025-05-13T16:07:38.871Z</time>
      </trkpt>
      <trkpt lat="44.0746" lon="1.81364">
        <ele>418.804305</ele>
        <time>2025-05-13T16:07:51.413Z</time>
      </trkpt>
      <trkpt lat="44.07464" lon="1.81337">
        <ele>419.176933</ele>
        <time>2025-05-13T16:07:57.268Z</time>
      </trkpt>
      <trkpt lat="44.07465" lon="1.81311">
        <ele>419.53387</ele>
        <time>2025-05-13T16:08:01.906Z</time>
      </trkpt>
      <trkpt lat="44.07463" lon="1.81296">
        <ele>419.747601</ele>
        <time>2025-05-13T16:08:04.307Z</time>
      </trkpt>
      <trkpt lat="44.07458" lon="1.81285">
        <ele>419.925038</ele>
        <time>2025-05-13T16:08:06.070Z</time>
      </trkpt>
      <trkpt lat="44.07448" lon="1.81277">
        <ele>420.147625</ele>
        <time>2025-05-13T16:08:08.089Z</time>
      </trkpt>
      <trkpt lat="44.07436" lon="1.81274">
        <ele>420.368023</ele>
        <time>2025-05-13T16:08:09.927Z</time>
      </trkpt>
      <trkpt lat="44.07377" lon="1.81271">
        <ele>420.811087</ele>
        <time>2025-05-13T16:08:16.827Z</time>
      </trkpt>
      <trkpt lat="44.07359" lon="1.81263">
        <ele>420.654886</ele>
        <time>2025-05-13T16:08:18.786Z</time>
      </trkpt>
      <trkpt lat="44.07344" lon="1.81248">
        <ele>420.497212</ele>
        <time>2025-05-13T16:08:20.742Z</time>
      </trkpt>
      <trkpt lat="44.07336" lon="1.81233">
        <ele>420.385366</ele>
        <time>2025-05-13T16:08:22.136Z</time>
      </trkpt>
      <trkpt lat="44.07321" lon="1.81178">
        <ele>420.028477</ele>
        <time>2025-05-13T16:08:26.880Z</time>
      </trkpt>
      <trkpt lat="44.07302" lon="1.81148">
        <ele>419.789776</ele>
        <time>2025-05-13T16:08:30.808Z</time>
      </trkpt>
      <trkpt lat="44.07259" lon="1.8107">
        <ele>420.040696</ele>
        <time>2025-05-13T16:08:45.431Z</time>
      </trkpt>
      <trkpt lat="44.07243" lon="1.81032">
        <ele>420.47262</ele>
        <time>2025-05-13T16:08:52.669Z</time>
      </trkpt>
      <trkpt lat="44.07233" lon="1.80997">
        <ele>420.847465</ele>
        <time>2025-05-13T16:08:58.888Z</time>
      </trkpt>
      <trkpt lat="44.07205" lon="1.80926">
        <ele>421.64884</ele>
        <time>2025-05-13T16:09:11.413Z</time>
      </trkpt>
      <trkpt lat="44.0719" lon="1.80844">
        <ele>422.279217</ele>
        <time>2025-05-13T16:09:22.284Z</time>
      </trkpt>
      <trkpt lat="44.0716" lon="1.80727">
        <ele>422.988419</ele>
        <time>2025-05-13T16:09:35.686Z</time>
      </trkpt>
      <trkpt lat="44.0714" lon="1.806">
        <ele>424.358085</ele>
        <time>2025-05-13T16:09:54.604Z</time>
      </trkpt>
      <trkpt lat="44.07122" lon="1.80518">
        <ele>425.875859</ele>
        <time>2025-05-13T16:10:11.279Z</time>
      </trkpt>
      <trkpt lat="44.07117" lon="1.805">
        <ele>426.2038</ele>
        <time>2025-05-13T16:10:15.256Z</time>
      </trkpt>
      <trkpt lat="44.07108" lon="1.80463">
        <ele>426.90271</ele>
        <time>2025-05-13T16:10:23.819Z</time>
      </trkpt>
      <trkpt lat="44.071" lon="1.80446">
        <ele>427.253112</ele>
        <time>2025-05-13T16:10:28.012Z</time>
      </trkpt>
      <trkpt lat="44.07072" lon="1.80412">
        <ele>427.548029</ele>
        <time>2025-05-13T16:10:37.839Z</time>
      </trkpt>
      <trkpt lat="44.07063" lon="1.80401">
        <ele>427.313493</ele>
        <time>2025-05-13T16:10:40.492Z</time>
      </trkpt>
      <trkpt lat="44.07049" lon="1.80369">
        <ele>426.798022</ele>
        <time>2025-05-13T16:10:44.681Z</time>
      </trkpt>
      <trkpt lat="44.07039" lon="1.80315">
        <ele>426.011607</ele>
        <time>2025-05-13T16:10:48.937Z</time>
      </trkpt>
      <trkpt lat="44.07042" lon="1.80298">
        <ele>425.765709</ele>
        <time>2025-05-13T16:10:50.134Z</time>
      </trkpt>
      <trkpt lat="44.0705" lon="1.80282">
        <ele>425.490919</ele>
        <time>2025-05-13T16:10:51.424Z</time>
      </trkpt>
      <trkpt lat="44.0707" lon="1.80259">
        <ele>424.996534</ele>
        <time>2025-05-13T16:10:53.805Z</time>
      </trkpt>
      <trkpt lat="44.07088" lon="1.80212">
        <ele>424.245368</ele>
        <time>2025-05-13T16:10:57.775Z</time>
      </trkpt>
      <trkpt lat="44.07092" lon="1.80184">
        <ele>423.822161</ele>
        <time>2025-05-13T16:10:59.911Z</time>
      </trkpt>
      <trkpt lat="44.07094" lon="1.80145">
        <ele>423.253547</ele>
        <time>2025-05-13T16:11:02.645Z</time>
      </trkpt>
      <trkpt lat="44.0706" lon="1.80131">
        <ele>422.536098</ele>
        <time>2025-05-13T16:11:06.191Z</time>
      </trkpt>
      <trkpt lat="44.07045" lon="1.80116">
        <ele>422.145711</ele>
        <time>2025-05-13T16:11:08.248Z</time>
      </trkpt>
      <trkpt lat="44.07012" lon="1.80054">
        <ele>421.020181</ele>
        <time>2025-05-13T16:11:15.947Z</time>
      </trkpt>
      <trkpt lat="44.07" lon="1.80044">
        <ele>420.733049</ele>
        <time>2025-05-13T16:11:19.487Z</time>
      </trkpt>
      <trkpt lat="44.06988" lon="1.80042">
        <ele>420.627624</ele>
        <time>2025-05-13T16:11:21.708Z</time>
      </trkpt>
      <trkpt lat="44.06912" lon="1.80056">
        <ele>420.376339</ele>
        <time>2025-05-13T16:11:30.132Z</time>
      </trkpt>
      <trkpt lat="44.06817" lon="1.80081">
        <ele>420.095306</ele>
        <time>2025-05-13T16:11:44.909Z</time>
      </trkpt>
      <trkpt lat="44.06783" lon="1.80084">
        <ele>420.640397</ele>
        <time>2025-05-13T16:11:51.669Z</time>
      </trkpt>
      <trkpt lat="44.06771" lon="1.80086">
        <ele>420.839078</ele>
        <time>2025-05-13T16:11:54.294Z</time>
      </trkpt>
      <trkpt lat="44.06729" lon="1.801">
        <ele>421.556277</ele>
        <time>2025-05-13T16:12:04.542Z</time>
      </trkpt>
      <trkpt lat="44.06587" lon="1.80184">
        <ele>423.116709</ele>
        <time>2025-05-13T16:12:39.205Z</time>
      </trkpt>
      <trkpt lat="44.06541" lon="1.80196">
        <ele>423.205051</ele>
        <time>2025-05-13T16:12:46.271Z</time>
      </trkpt>
      <trkpt lat="44.06515" lon="1.80193">
        <ele>423.253965</ele>
        <time>2025-05-13T16:12:49.605Z</time>
      </trkpt>
      <trkpt lat="44.06484" lon="1.80179">
        <ele>423.31505</ele>
        <time>2025-05-13T16:12:53.429Z</time>
      </trkpt>
      <trkpt lat="44.06454" lon="1.80177">
        <ele>422.911662</ele>
        <time>2025-05-13T16:12:56.709Z</time>
      </trkpt>
      <trkpt lat="44.06225" lon="1.80188">
        <ele>418.736709</ele>
        <time>2025-05-13T16:13:21.674Z</time>
      </trkpt>
      <trkpt lat="44.06015" lon="1.80212">
        <ele>415.779578</ele>
        <time>2025-05-13T16:13:47.144Z</time>
      </trkpt>
      <trkpt lat="44.05957" lon="1.80247">
        <ele>414.94887</ele>
        <time>2025-05-13T16:13:54.462Z</time>
      </trkpt>
      <trkpt lat="44.0581" lon="1.80341">
        <ele>411.790913</ele>
        <time>2025-05-13T16:14:12.474Z</time>
      </trkpt>
      <trkpt lat="44.05796" lon="1.80325">
        <ele>411.428818</ele>
        <time>2025-05-13T16:14:14.353Z</time>
      </trkpt>
      <trkpt lat="44.05576" lon="1.80231">
        <ele>406.664939</ele>
        <time>2025-05-13T16:14:38.422Z</time>
      </trkpt>
      <trkpt lat="44.05468" lon="1.80183">
        <ele>406.763434</ele>
        <time>2025-05-13T16:14:58.353Z</time>
      </trkpt>
      <trkpt lat="44.05443" lon="1.80157">
        <ele>406.792982</ele>
        <time>2025-05-13T16:15:04.978Z</time>
      </trkpt>
      <trkpt lat="44.05419" lon="1.80133">
        <ele>407.689271</ele>
        <time>2025-05-13T16:15:11.047Z</time>
      </trkpt>
      <trkpt lat="44.05392" lon="1.80071">
        <ele>409.296843</ele>
        <time>2025-05-13T16:15:22.579Z</time>
      </trkpt>
      <trkpt lat="44.05374" lon="1.79971">
        <ele>411.571723</ele>
        <time>2025-05-13T16:15:44.331Z</time>
      </trkpt>
      <trkpt lat="44.05373" lon="1.79824">
        <ele>416.340908</ele>
        <time>2025-05-13T16:16:22.838Z</time>
      </trkpt>
      <trkpt lat="44.05373" lon="1.79772">
        <ele>418.18447</ele>
        <time>2025-05-13T16:16:36.908Z</time>
      </trkpt>
      <trkpt lat="44.0537" lon="1.79738">
        <ele>419.395467</ele>
        <time>2025-05-13T16:16:45.594Z</time>
      </trkpt>
      <trkpt lat="44.05333" lon="1.79574">
        <ele>424.141391</ele>
        <time>2025-05-13T16:17:23.294Z</time>
      </trkpt>
      <trkpt lat="44.05323" lon="1.79413">
        <ele>427.723895</ele>
        <time>2025-05-13T16:17:54.327Z</time>
      </trkpt>
      <trkpt lat="44.05318" lon="1.79381">
        <ele>428.154688</ele>
        <time>2025-05-13T16:17:59.592Z</time>
      </trkpt>
      <trkpt lat="44.05278" lon="1.79093">
        <ele>433.430787</ele>
        <time>2025-05-13T16:18:43.444Z</time>
      </trkpt>
      <trkpt lat="44.05277" lon="1.79069">
        <ele>434.051873</ele>
        <time>2025-05-13T16:18:48.422Z</time>
      </trkpt>
      <trkpt lat="44.0528" lon="1.7904">
        <ele>434.820577</ele>
        <time>2025-05-13T16:18:55.066Z</time>
      </trkpt>
      <trkpt lat="44.05298" lon="1.78881">
        <ele>440.270461</ele>
        <time>2025-05-13T16:19:40.075Z</time>
      </trkpt>
      <trkpt lat="44.05323" lon="1.78682">
        <ele>448.735446</ele>
        <time>2025-05-13T16:20:39.053Z</time>
      </trkpt>
      <trkpt lat="44.0533" lon="1.78654">
        <ele>449.539782</ele>
        <time>2025-05-13T16:20:45.949Z</time>
      </trkpt>
      <trkpt lat="44.05348" lon="1.78614">
        <ele>450.81133</ele>
        <time>2025-05-13T16:20:56.358Z</time>
      </trkpt>
      <trkpt lat="44.05368" lon="1.78563">
        <ele>452.379301</ele>
        <time>2025-05-13T16:21:08.282Z</time>
      </trkpt>
      <trkpt lat="44.05376" lon="1.78532">
        <ele>453.275633</ele>
        <time>2025-05-13T16:21:14.609Z</time>
      </trkpt>
      <trkpt lat="44.05381" lon="1.78502">
        <ele>454.112976</ele>
        <time>2025-05-13T16:21:20.185Z</time>
      </trkpt>
      <trkpt lat="44.05381" lon="1.7848">
        <ele>454.696497</ele>
        <time>2025-05-13T16:21:23.889Z</time>
      </trkpt>
      <trkpt lat="44.05368" lon="1.78398">
        <ele>455.903019</ele>
        <time>2025-05-13T16:21:37.801Z</time>
      </trkpt>
      <trkpt lat="44.05366" lon="1.78369">
        <ele>456.290871</ele>
        <time>2025-05-13T16:21:42.710Z</time>
      </trkpt>
      <trkpt lat="44.05366" lon="1.7834">
        <ele>456.672876</ele>
        <time>2025-05-13T16:21:47.471Z</time>
      </trkpt>
      <trkpt lat="44.05371" lon="1.78292">
        <ele>457.318973</ele>
        <time>2025-05-13T16:21:55.124Z</time>
      </trkpt>
      <trkpt lat="44.05382" lon="1.78252">
        <ele>457.89066</ele>
        <time>2025-05-13T16:22:01.429Z</time>
      </trkpt>
      <trkpt lat="44.05416" lon="1.78162">
        <ele>459.166818</ele>
        <time>2025-05-13T16:22:15.743Z</time>
      </trkpt>
      <trkpt lat="44.0544" lon="1.781">
        <ele>460.052767</ele>
        <time>2025-05-13T16:22:26.826Z</time>
      </trkpt>
      <trkpt lat="44.0549" lon="1.77987">
        <ele>461.453095</ele>
        <time>2025-05-13T16:22:49.735Z</time>
      </trkpt>
      <trkpt lat="44.05537" lon="1.77866">
        <ele>462.048544</ele>
        <time>2025-05-13T16:23:08.409Z</time>
      </trkpt>
      <trkpt lat="44.05548" lon="1.77828">
        <ele>462.224785</ele>
        <time>2025-05-13T16:23:12.693Z</time>
      </trkpt>
      <trkpt lat="44.05553" lon="1.77785">
        <ele>462.347452</ele>
        <time>2025-05-13T16:23:16.726Z</time>
      </trkpt>
      <trkpt lat="44.05546" lon="1.77514">
        <ele>458.162</ele>
        <time>2025-05-13T16:23:37.871Z</time>
      </trkpt>
      <trkpt lat="44.05541" lon="1.77439">
        <ele>456.462946</ele>
        <time>2025-05-13T16:23:43.210Z</time>
      </trkpt>
      <trkpt lat="44.05539" lon="1.77406">
        <ele>455.73981</ele>
        <time>2025-05-13T16:23:45.438Z</time>
      </trkpt>
      <trkpt lat="44.05553" lon="1.77236">
        <ele>453.086944</ele>
        <time>2025-05-13T16:23:58.041Z</time>
      </trkpt>
      <trkpt lat="44.05554" lon="1.77214">
        <ele>453.074196</ele>
        <time>2025-05-13T16:24:00.390Z</time>
      </trkpt>
      <trkpt lat="44.05551" lon="1.77128">
        <ele>453.023965</ele>
        <time>2025-05-13T16:24:12.498Z</time>
      </trkpt>
      <trkpt lat="44.05483" lon="1.76936">
        <ele>450.626642</ele>
        <time>2025-05-13T16:24:40.696Z</time>
      </trkpt>
      <trkpt lat="44.0547" lon="1.76923">
        <ele>450.203461</ele>
        <time>2025-05-13T16:24:42.331Z</time>
      </trkpt>
      <trkpt lat="44.05388" lon="1.76915">
        <ele>447.681916</ele>
        <time>2025-05-13T16:24:49.884Z</time>
      </trkpt>
      <trkpt lat="44.05378" lon="1.76911">
        <ele>446.994085</ele>
        <time>2025-05-13T16:24:50.779Z</time>
      </trkpt>
      <trkpt lat="44.05365" lon="1.76898">
        <ele>445.935869</ele>
        <time>2025-05-13T16:24:52.149Z</time>
      </trkpt>
      <trkpt lat="44.05341" lon="1.76854">
        <ele>443.239603</ele>
        <time>2025-05-13T16:24:55.644Z</time>
      </trkpt>
      <trkpt lat="44.05332" lon="1.76846">
        <ele>442.537822</ele>
        <time>2025-05-13T16:24:56.565Z</time>
      </trkpt>
      <trkpt lat="44.05298" lon="1.76835">
        <ele>440.138365</ele>
        <time>2025-05-13T16:24:59.769Z</time>
      </trkpt>
      <trkpt lat="44.05281" lon="1.76819">
        <ele>438.792127</ele>
        <time>2025-05-13T16:25:01.608Z</time>
      </trkpt>
      <trkpt lat="44.05263" lon="1.76765">
        <ele>435.965343</ele>
        <time>2025-05-13T16:25:05.619Z</time>
      </trkpt>
      <trkpt lat="44.05265" lon="1.76713">
        <ele>433.860703</ele>
        <time>2025-05-13T16:25:09.165Z</time>
      </trkpt>
      <trkpt lat="44.0528" lon="1.76645">
        <ele>431.016817</ele>
        <time>2025-05-13T16:25:13.871Z</time>
      </trkpt>
      <trkpt lat="44.05282" lon="1.76615">
        <ele>429.802316</ele>
        <time>2025-05-13T16:25:15.866Z</time>
      </trkpt>
      <trkpt lat="44.05277" lon="1.76584">
        <ele>428.523285</ele>
        <time>2025-05-13T16:25:17.961Z</time>
      </trkpt>
      <trkpt lat="44.05265" lon="1.7655">
        <ele>427.02234</ele>
        <time>2025-05-13T16:25:20.439Z</time>
      </trkpt>
      <trkpt lat="44.0526" lon="1.76514">
        <ele>425.905721</ele>
        <time>2025-05-13T16:25:22.854Z</time>
      </trkpt>
      <trkpt lat="44.05261" lon="1.76453">
        <ele>424.820101</ele>
        <time>2025-05-13T16:25:27.165Z</time>
      </trkpt>
      <trkpt lat="44.05269" lon="1.76416">
        <ele>424.150941</ele>
        <time>2025-05-13T16:25:30.111Z</time>
      </trkpt>
      <trkpt lat="44.05297" lon="1.76338">
        <ele>422.612731</ele>
        <time>2025-05-13T16:25:37.762Z</time>
      </trkpt>
      <trkpt lat="44.05305" lon="1.76301">
        <ele>421.934928</ele>
        <time>2025-05-13T16:25:41.297Z</time>
      </trkpt>
      <trkpt lat="44.05307" lon="1.76276">
        <ele>421.61528</ele>
        <time>2025-05-13T16:25:43.583Z</time>
      </trkpt>
      <trkpt lat="44.05292" lon="1.76144">
        <ele>420.448892</ele>
        <time>2025-05-13T16:25:54.340Z</time>
      </trkpt>
      <trkpt lat="44.05295" lon="1.76106">
        <ele>420.112163</ele>
        <time>2025-05-13T16:25:57.508Z</time>
      </trkpt>
      <trkpt lat="44.05309" lon="1.76069">
        <ele>419.745376</ele>
        <time>2025-05-13T16:26:01.232Z</time>
      </trkpt>
      <trkpt lat="44.05313" lon="1.7603">
        <ele>419.259698</ele>
        <time>2025-05-13T16:26:05.316Z</time>
      </trkpt>
      <trkpt lat="44.05307" lon="1.75974">
        <ele>418.336296</ele>
        <time>2025-05-13T16:26:11.428Z</time>
      </trkpt>
      <trkpt lat="44.05294" lon="1.75933">
        <ele>417.616923</ele>
        <time>2025-05-13T16:26:15.592Z</time>
      </trkpt>
      <trkpt lat="44.05273" lon="1.75893">
        <ele>416.798571</ele>
        <time>2025-05-13T16:26:19.571Z</time>
      </trkpt>
      <trkpt lat="44.05207" lon="1.75837">
        <ele>414.429857</ele>
        <time>2025-05-13T16:26:26.878Z</time>
      </trkpt>
      <trkpt lat="44.05195" lon="1.75832">
        <ele>413.73693</ele>
        <time>2025-05-13T16:26:28.009Z</time>
      </trkpt>
      <trkpt lat="44.05158" lon="1.75836">
        <ele>411.645086</ele>
        <time>2025-05-13T16:26:31.394Z</time>
      </trkpt>
      <trkpt lat="44.05145" lon="1.7583">
        <ele>410.893487</ele>
        <time>2025-05-13T16:26:32.606Z</time>
      </trkpt>
      <trkpt lat="44.05004" lon="1.75695">
        <ele>403.123692</ele>
        <time>2025-05-13T16:26:48.562Z</time>
      </trkpt>
      <trkpt lat="44.04994" lon="1.75685">
        <ele>402.752688</ele>
        <time>2025-05-13T16:26:49.782Z</time>
      </trkpt>
      <trkpt lat="44.04983" lon="1.75672">
        <ele>402.304072</ele>
        <time>2025-05-13T16:26:51.296Z</time>
      </trkpt>
      <trkpt lat="44.04989" lon="1.75598">
        <ele>400.675252</ele>
        <time>2025-05-13T16:26:57.224Z</time>
      </trkpt>
      <trkpt lat="44.04996" lon="1.75584">
        <ele>400.289414</ele>
        <time>2025-05-13T16:26:58.754Z</time>
      </trkpt>
      <trkpt lat="44.05012" lon="1.75565">
        <ele>399.962291</ele>
        <time>2025-05-13T16:27:01.489Z</time>
      </trkpt>
      <trkpt lat="44.05018" lon="1.75553">
        <ele>400.130006</ele>
        <time>2025-05-13T16:27:03.043Z</time>
      </trkpt>
      <trkpt lat="44.05033" lon="1.75492">
        <ele>400.878952</ele>
        <time>2025-05-13T16:27:12.844Z</time>
      </trkpt>
      <trkpt lat="44.05057" lon="1.75449">
        <ele>401.513401</ele>
        <time>2025-05-13T16:27:21.958Z</time>
      </trkpt>
      <trkpt lat="44.05075" lon="1.75413">
        <ele>402.018585</ele>
        <time>2025-05-13T16:27:29.388Z</time>
      </trkpt>
      <trkpt lat="44.05093" lon="1.75356">
        <ele>402.740821</ele>
        <time>2025-05-13T16:27:40.670Z</time>
      </trkpt>
      <trkpt lat="44.05108" lon="1.75319">
        <ele>403.168012</ele>
        <time>2025-05-13T16:27:48.409Z</time>
      </trkpt>
      <trkpt lat="44.05112" lon="1.75303">
        <ele>403.328187</ele>
        <time>2025-05-13T16:27:51.361Z</time>
      </trkpt>
      <trkpt lat="44.05112" lon="1.7524">
        <ele>403.953024</ele>
        <time>2025-05-13T16:28:02.428Z</time>
      </trkpt>
      <trkpt lat="44.05116" lon="1.7522">
        <ele>404.161994</ele>
        <time>2025-05-13T16:28:05.554Z</time>
      </trkpt>
      <trkpt lat="44.05128" lon="1.75178">
        <ele>404.60476</ele>
        <time>2025-05-13T16:28:11.160Z</time>
      </trkpt>
      <trkpt lat="44.05129" lon="1.75162">
        <ele>404.767977</ele>
        <time>2025-05-13T16:28:13.006Z</time>
      </trkpt>
      <trkpt lat="44.05127" lon="1.75148">
        <ele>404.912672</ele>
        <time>2025-05-13T16:28:14.646Z</time>
      </trkpt>
      <trkpt lat="44.05116" lon="1.7511">
        <ele>405.241947</ele>
        <time>2025-05-13T16:28:18.920Z</time>
      </trkpt>
      <trkpt lat="44.05117" lon="1.75061">
        <ele>405.244312</ele>
        <time>2025-05-13T16:28:23.629Z</time>
      </trkpt>
      <trkpt lat="44.051" lon="1.75017">
        <ele>405.246681</ele>
        <time>2025-05-13T16:28:28.437Z</time>
      </trkpt>
      <trkpt lat="44.05097" lon="1.74998">
        <ele>405.247645</ele>
        <time>2025-05-13T16:28:30.471Z</time>
      </trkpt>
      <trkpt lat="44.05097" lon="1.74977">
        <ele>405.248647</ele>
        <time>2025-05-13T16:28:32.607Z</time>
      </trkpt>
      <trkpt lat="44.05102" lon="1.74907">
        <ele>405.251998</ele>
        <time>2025-05-13T16:28:40.181Z</time>
      </trkpt>
      <trkpt lat="44.05101" lon="1.74835">
        <ele>405.59534</ele>
        <time>2025-05-13T16:28:49.319Z</time>
      </trkpt>
      <trkpt lat="44.05103" lon="1.74812">
        <ele>405.806867</ele>
        <time>2025-05-13T16:28:52.302Z</time>
      </trkpt>
      <trkpt lat="44.0511" lon="1.74791">
        <ele>406.002097</ele>
        <time>2025-05-13T16:28:54.968Z</time>
      </trkpt>
      <trkpt lat="44.0514" lon="1.74732">
        <ele>406.638947</ele>
        <time>2025-05-13T16:29:03.643Z</time>
      </trkpt>
      <trkpt lat="44.05168" lon="1.74653">
        <ele>407.406861</ele>
        <time>2025-05-13T16:29:16.893Z</time>
      </trkpt>
      <trkpt lat="44.05193" lon="1.74612">
        <ele>409.140211</ele>
        <time>2025-05-13T16:29:27.984Z</time>
      </trkpt>
      <trkpt lat="44.05227" lon="1.7458">
        <ele>411.130921</ele>
        <time>2025-05-13T16:29:42.293Z</time>
      </trkpt>
      <trkpt lat="44.05301" lon="1.7453">
        <ele>415.069182</ele>
        <time>2025-05-13T16:30:14.141Z</time>
      </trkpt>
      <trkpt lat="44.0534" lon="1.74485">
        <ele>417.756995</ele>
        <time>2025-05-13T16:30:32.433Z</time>
      </trkpt>
      <trkpt lat="44.05413" lon="1.7442">
        <ele>422.626242</ele>
        <time>2025-05-13T16:31:02.426Z</time>
      </trkpt>
      <trkpt lat="44.05464" lon="1.74368">
        <ele>426.15986</ele>
        <time>2025-05-13T16:31:27.304Z</time>
      </trkpt>
      <trkpt lat="44.0547" lon="1.74362">
        <ele>426.500679</ele>
        <time>2025-05-13T16:31:30.549Z</time>
      </trkpt>
      <trkpt lat="44.05525" lon="1.74311">
        <ele>429.423909</ele>
        <time>2025-05-13T16:31:59.156Z</time>
      </trkpt>
      <trkpt lat="44.05546" lon="1.74296">
        <ele>430.468623</ele>
        <time>2025-05-13T16:32:08.364Z</time>
      </trkpt>
      <trkpt lat="44.0557" lon="1.74286">
        <ele>431.601937</ele>
        <time>2025-05-13T16:32:16.996Z</time>
      </trkpt>
      <trkpt lat="44.0559" lon="1.74279">
        <ele>432.522138</ele>
        <time>2025-05-13T16:32:22.517Z</time>
      </trkpt>
      <trkpt lat="44.05636" lon="1.74252">
        <ele>433.826884</ele>
        <time>2025-05-13T16:32:32.026Z</time>
      </trkpt>
      <trkpt lat="44.05669" lon="1.7424">
        <ele>432.944107</ele>
        <time>2025-05-13T16:32:36.105Z</time>
      </trkpt>
      <trkpt lat="44.05676" lon="1.74233">
        <ele>432.734778</ele>
        <time>2025-05-13T16:32:36.991Z</time>
      </trkpt>
      <trkpt lat="44.05677" lon="1.74224">
        <ele>432.561738</ele>
        <time>2025-05-13T16:32:37.688Z</time>
      </trkpt>
      <trkpt lat="44.05669" lon="1.74207">
        <ele>432.195646</ele>
        <time>2025-05-13T16:32:39.147Z</time>
      </trkpt>
      <trkpt lat="44.05647" lon="1.742">
        <ele>431.62856</ele>
        <time>2025-05-13T16:32:41.350Z</time>
      </trkpt>
      <trkpt lat="44.05631" lon="1.74182">
        <ele>431.099752</ele>
        <time>2025-05-13T16:32:43.345Z</time>
      </trkpt>
      <trkpt lat="44.05618" lon="1.74145">
        <ele>430.349646</ele>
        <time>2025-05-13T16:32:46.151Z</time>
      </trkpt>
      <trkpt lat="44.056" lon="1.74037">
        <ele>427.454853</ele>
        <time>2025-05-13T16:32:53.966Z</time>
      </trkpt>
      <trkpt lat="44.05581" lon="1.73937">
        <ele>424.259936</ele>
        <time>2025-05-13T16:33:01.355Z</time>
      </trkpt>
      <trkpt lat="44.05575" lon="1.73879">
        <ele>422.4368</ele>
        <time>2025-05-13T16:33:05.392Z</time>
      </trkpt>
      <trkpt lat="44.05575" lon="1.73818">
        <ele>420.135361</ele>
        <time>2025-05-13T16:33:09.459Z</time>
      </trkpt>
      <trkpt lat="44.05583" lon="1.73782">
        <ele>418.615254</ele>
        <time>2025-05-13T16:33:11.921Z</time>
      </trkpt>
      <trkpt lat="44.05589" lon="1.73776">
        <ele>418.206649</ele>
        <time>2025-05-13T16:33:12.595Z</time>
      </trkpt>
      <trkpt lat="44.05607" lon="1.73755">
        <ele>416.88818</ele>
        <time>2025-05-13T16:33:14.754Z</time>
      </trkpt>
      <trkpt lat="44.05627" lon="1.73715">
        <ele>414.906484</ele>
        <time>2025-05-13T16:33:18.074Z</time>
      </trkpt>
      <trkpt lat="44.05645" lon="1.73653">
        <ele>412.204863</ele>
        <time>2025-05-13T16:33:22.488Z</time>
      </trkpt>
      <trkpt lat="44.05647" lon="1.73595">
        <ele>409.597237</ele>
        <time>2025-05-13T16:33:26.284Z</time>
      </trkpt>
      <trkpt lat="44.05652" lon="1.73566">
        <ele>408.244938</ele>
        <time>2025-05-13T16:33:28.228Z</time>
      </trkpt>
      <trkpt lat="44.05694" lon="1.73507">
        <ele>404.407038</ele>
        <time>2025-05-13T16:33:33.673Z</time>
      </trkpt>
      <trkpt lat="44.05711" lon="1.73424">
        <ele>400.409499</ele>
        <time>2025-05-13T16:33:39.196Z</time>
      </trkpt>
      <trkpt lat="44.05727" lon="1.73384">
        <ele>398.967265</ele>
        <time>2025-05-13T16:33:42.153Z</time>
      </trkpt>
      <trkpt lat="44.05731" lon="1.73348">
        <ele>397.911183</ele>
        <time>2025-05-13T16:33:44.604Z</time>
      </trkpt>
      <trkpt lat="44.05725" lon="1.73313">
        <ele>396.870648</ele>
        <time>2025-05-13T16:33:47.096Z</time>
      </trkpt>
      <trkpt lat="44.05697" lon="1.73231">
        <ele>394.215319</ele>
        <time>2025-05-13T16:33:53.801Z</time>
      </trkpt>
      <trkpt lat="44.05694" lon="1.73204">
        <ele>393.443235</ele>
        <time>2025-05-13T16:33:55.868Z</time>
      </trkpt>
      <trkpt lat="44.05701" lon="1.73172">
        <ele>392.585546</ele>
        <time>2025-05-13T16:33:58.618Z</time>
      </trkpt>
      <trkpt lat="44.05721" lon="1.73134">
        <ele>391.714001</ele>
        <time>2025-05-13T16:34:02.468Z</time>
      </trkpt>
      <trkpt lat="44.05737" lon="1.73112">
        <ele>391.132736</ele>
        <time>2025-05-13T16:34:05.057Z</time>
      </trkpt>
      <trkpt lat="44.05746" lon="1.73079">
        <ele>390.466532</ele>
        <time>2025-05-13T16:34:07.939Z</time>
      </trkpt>
      <trkpt lat="44.05752" lon="1.73027">
        <ele>389.478765</ele>
        <time>2025-05-13T16:34:11.967Z</time>
      </trkpt>
      <trkpt lat="44.05753" lon="1.72958">
        <ele>388.193956</ele>
        <time>2025-05-13T16:34:16.872Z</time>
      </trkpt>
      <trkpt lat="44.05765" lon="1.72915">
        <ele>386.419472</ele>
        <time>2025-05-13T16:34:20.049Z</time>
      </trkpt>
      <trkpt lat="44.05783" lon="1.72887">
        <ele>384.95568</ele>
        <time>2025-05-13T16:34:22.599Z</time>
      </trkpt>
      <trkpt lat="44.05802" lon="1.72807">
        <ele>381.66089</ele>
        <time>2025-05-13T16:34:28.171Z</time>
      </trkpt>
      <trkpt lat="44.05804" lon="1.72773">
        <ele>380.307224</ele>
        <time>2025-05-13T16:34:30.399Z</time>
      </trkpt>
      <trkpt lat="44.05794" lon="1.72721">
        <ele>378.143538</ele>
        <time>2025-05-13T16:34:33.925Z</time>
      </trkpt>
      <trkpt lat="44.05798" lon="1.72712">
        <ele>377.60183</ele>
        <time>2025-05-13T16:34:34.590Z</time>
      </trkpt>
      <trkpt lat="44.05804" lon="1.72697">
        <ele>376.731417</ele>
        <time>2025-05-13T16:34:35.676Z</time>
      </trkpt>
      <trkpt lat="44.05819" lon="1.72692">
        <ele>375.601577</ele>
        <time>2025-05-13T16:34:37.086Z</time>
      </trkpt>
      <trkpt lat="44.05831" lon="1.72694">
        <ele>374.68783</ele>
        <time>2025-05-13T16:34:38.235Z</time>
      </trkpt>
      <trkpt lat="44.05876" lon="1.72764">
        <ele>369.827394</ele>
        <time>2025-05-13T16:34:44.188Z</time>
      </trkpt>
      <trkpt lat="44.05894" lon="1.72776">
        <ele>368.353042</ele>
        <time>2025-05-13T16:34:45.968Z</time>
      </trkpt>
      <trkpt lat="44.05945" lon="1.7278">
        <ele>364.869368</ele>
        <time>2025-05-13T16:34:50.463Z</time>
      </trkpt>
      <trkpt lat="44.0599" lon="1.72799">
        <ele>362.519737</ele>
        <time>2025-05-13T16:34:54.783Z</time>
      </trkpt>
      <trkpt lat="44.06012" lon="1.72802">
        <ele>361.407134</ele>
        <time>2025-05-13T16:34:56.895Z</time>
      </trkpt>
      <trkpt lat="44.06027" lon="1.72789">
        <ele>360.532463</ele>
        <time>2025-05-13T16:34:58.559Z</time>
      </trkpt>
      <trkpt lat="44.06036" lon="1.72758">
        <ele>359.325989</ele>
        <time>2025-05-13T16:35:00.887Z</time>
      </trkpt>
      <trkpt lat="44.06034" lon="1.72672">
        <ele>356.259735</ele>
        <time>2025-05-13T16:35:06.922Z</time>
      </trkpt>
      <trkpt lat="44.06028" lon="1.72584">
        <ele>354.306997</ele>
        <time>2025-05-13T16:35:13.371Z</time>
      </trkpt>
      <trkpt lat="44.06012" lon="1.7254">
        <ele>353.22917</ele>
        <time>2025-05-13T16:35:16.997Z</time>
      </trkpt>
      <trkpt lat="44.05972" lon="1.72479">
        <ele>351.396274</ele>
        <time>2025-05-13T16:35:23.214Z</time>
      </trkpt>
      <trkpt lat="44.05955" lon="1.72442">
        <ele>350.187943</ele>
        <time>2025-05-13T16:35:26.540Z</time>
      </trkpt>
      <trkpt lat="44.0595" lon="1.72395">
        <ele>348.306471</ele>
        <time>2025-05-13T16:35:30.096Z</time>
      </trkpt>
      <trkpt lat="44.05955" lon="1.72318">
        <ele>345.253748</ele>
        <time>2025-05-13T16:35:35.417Z</time>
      </trkpt>
      <trkpt lat="44.05956" lon="1.72274">
        <ele>343.523117</ele>
        <time>2025-05-13T16:35:38.270Z</time>
      </trkpt>
      <trkpt lat="44.05946" lon="1.72236">
        <ele>341.941187</ele>
        <time>2025-05-13T16:35:40.830Z</time>
      </trkpt>
      <trkpt lat="44.05945" lon="1.72206">
        <ele>340.735419</ele>
        <time>2025-05-13T16:35:42.732Z</time>
      </trkpt>
      <trkpt lat="44.05954" lon="1.72142">
        <ele>337.850377</ele>
        <time>2025-05-13T16:35:46.793Z</time>
      </trkpt>
      <trkpt lat="44.05957" lon="1.72038">
        <ele>333.212</ele>
        <time>2025-05-13T16:35:53.487Z</time>
      </trkpt>
      <trkpt lat="44.05978" lon="1.72038">
        <ele>331.903739</ele>
        <time>2025-05-13T16:35:55.462Z</time>
      </trkpt>
      <trkpt lat="44.05987" lon="1.72038">
        <ele>331.369324</ele>
        <time>2025-05-13T16:35:56.286Z</time>
      </trkpt>
      <trkpt lat="44.06012" lon="1.72031">
        <ele>329.784678</ele>
        <time>2025-05-13T16:35:58.823Z</time>
      </trkpt>
      <trkpt lat="44.06034" lon="1.7202">
        <ele>330.002307</ele>
        <time>2025-05-13T16:36:01.439Z</time>
      </trkpt>
      <trkpt lat="44.06075" lon="1.71994">
        <ele>330.463314</ele>
        <time>2025-05-13T16:36:08.517Z</time>
      </trkpt>
      <trkpt lat="44.06093" lon="1.71987">
        <ele>330.645</ele>
        <time>2025-05-13T16:36:12.565Z</time>
      </trkpt>
      <trkpt lat="44.06108" lon="1.71986">
        <ele>330.803254</ele>
        <time>2025-05-13T16:36:16.589Z</time>
      </trkpt>
      <trkpt lat="44.06114" lon="1.71988">
        <ele>330.859446</ele>
        <time>2025-05-13T16:36:18.094Z</time>
      </trkpt>
      <trkpt lat="44.06122" lon="1.71998">
        <ele>330.969747</ele>
        <time>2025-05-13T16:36:21.120Z</time>
      </trkpt>
      <trkpt lat="44.06138" lon="1.72067">
        <ele>331.500969</ele>
        <time>2025-05-13T16:36:35.335Z</time>
      </trkpt>
      <trkpt lat="44.06155" lon="1.72118">
        <ele>331.989373</ele>
        <time>2025-05-13T16:36:45.985Z</time>
      </trkpt>
      <trkpt lat="44.06165" lon="1.72137">
        <ele>332.201759</ele>
        <time>2025-05-13T16:36:50.274Z</time>
      </trkpt>
      <trkpt lat="44.06184" lon="1.7216">
        <ele>332.518158</ele>
        <time>2025-05-13T16:36:56.080Z</time>
      </trkpt>
      <trkpt lat="44.06203" lon="1.7217">
        <ele>332.77523</ele>
        <time>2025-05-13T16:37:00.577Z</time>
      </trkpt>
      <trkpt lat="44.0626" lon="1.72183">
        <ele>333.501607</ele>
        <time>2025-05-13T16:37:11.274Z</time>
      </trkpt>
      <trkpt lat="44.06264" lon="1.72183">
        <ele>333.5435</ele>
        <time>2025-05-13T16:37:11.730Z</time>
      </trkpt>
      <trkpt lat="44.06272" lon="1.72188">
        <ele>333.654457</ele>
        <time>2025-05-13T16:37:12.892Z</time>
      </trkpt>
      <trkpt lat="44.06279" lon="1.72199">
        <ele>333.791003</ele>
        <time>2025-05-13T16:37:14.247Z</time>
      </trkpt>
      <trkpt lat="44.06283" lon="1.72205">
        <ele>333.832551</ele>
        <time>2025-05-13T16:37:14.984Z</time>
      </trkpt>
      <trkpt lat="44.06301" lon="1.72257">
        <ele>332.660418</ele>
        <time>2025-05-13T16:37:19.798Z</time>
      </trkpt>
      <trkpt lat="44.0631" lon="1.72275">
        <ele>332.230815</ele>
        <time>2025-05-13T16:37:21.481Z</time>
      </trkpt>
      <trkpt lat="44.06321" lon="1.72291">
        <ele>331.779107</ele>
        <time>2025-05-13T16:37:23.215Z</time>
      </trkpt>
      <trkpt lat="44.06335" lon="1.72308">
        <ele>331.250897</ele>
        <time>2025-05-13T16:37:25.200Z</time>
      </trkpt>
      <trkpt lat="44.06352" lon="1.72322">
        <ele>330.699295</ele>
        <time>2025-05-13T16:37:27.234Z</time>
      </trkpt>
      <trkpt lat="44.06381" lon="1.72338">
        <ele>329.830072</ele>
        <time>2025-05-13T16:37:30.270Z</time>
      </trkpt>
      <trkpt lat="44.06423" lon="1.72348">
        <ele>328.516602</ele>
        <time>2025-05-13T16:37:34.263Z</time>
      </trkpt>
      <trkpt lat="44.06463" lon="1.7235">
        <ele>326.51215</ele>
        <time>2025-05-13T16:37:38.020Z</time>
      </trkpt>
      <trkpt lat="44.06571" lon="1.72332">
        <ele>321.098928</ele>
        <time>2025-05-13T16:37:48.240Z</time>
      </trkpt>
      <trkpt lat="44.06612" lon="1.72336">
        <ele>319.15512</ele>
        <time>2025-05-13T16:37:52.145Z</time>
      </trkpt>
      <trkpt lat="44.0665" lon="1.72352">
        <ele>317.43553</ele>
        <time>2025-05-13T16:37:55.967Z</time>
      </trkpt>
      <trkpt lat="44.06815" lon="1.72441">
        <ele>309.810246</ele>
        <time>2025-05-13T16:38:13.266Z</time>
      </trkpt>
      <trkpt lat="44.06896" lon="1.72484">
        <ele>306.068802</ele>
        <time>2025-05-13T16:38:21.619Z</time>
      </trkpt>
      <trkpt lat="44.06949" lon="1.72513">
        <ele>303.392689</ele>
        <time>2025-05-13T16:38:27.018Z</time>
      </trkpt>
      <trkpt lat="44.06985" lon="1.72533">
        <ele>301.2641</ele>
        <time>2025-05-13T16:38:30.622Z</time>
      </trkpt>
      <trkpt lat="44.07036" lon="1.72546">
        <ele>298.401595</ele>
        <time>2025-05-13T16:38:35.433Z</time>
      </trkpt>
      <trkpt lat="44.07057" lon="1.72548">
        <ele>297.243944</ele>
        <time>2025-05-13T16:38:37.365Z</time>
      </trkpt>
      <trkpt lat="44.07097" lon="1.72552">
        <ele>295.017659</ele>
        <time>2025-05-13T16:38:41.041Z</time>
      </trkpt>
      <trkpt lat="44.0712" lon="1.72558">
        <ele>293.682078</ele>
        <time>2025-05-13T16:38:43.178Z</time>
      </trkpt>
      <trkpt lat="44.07136" lon="1.72575">
        <ele>292.469936</ele>
        <time>2025-05-13T16:38:45.073Z</time>
      </trkpt>
      <trkpt lat="44.07142" lon="1.72588">
        <ele>291.824426</ele>
        <time>2025-05-13T16:38:46.082Z</time>
      </trkpt>
      <trkpt lat="44.07144" lon="1.72598">
        <ele>291.38916</ele>
        <time>2025-05-13T16:38:46.767Z</time>
      </trkpt>
      <trkpt lat="44.07144" lon="1.72614">
        <ele>290.695734</ele>
        <time>2025-05-13T16:38:47.854Z</time>
      </trkpt>
      <trkpt lat="44.07141" lon="1.72626">
        <ele>290.181837</ele>
        <time>2025-05-13T16:38:48.662Z</time>
      </trkpt>
      <trkpt lat="44.07134" lon="1.72637">
        <ele>289.565908</ele>
        <time>2025-05-13T16:38:49.634Z</time>
      </trkpt>
      <trkpt lat="44.07126" lon="1.72644">
        <ele>288.98188</ele>
        <time>2025-05-13T16:38:50.550Z</time>
      </trkpt>
      <trkpt lat="44.07111" lon="1.7265">
        <ele>288.071514</ele>
        <time>2025-05-13T16:38:51.981Z</time>
      </trkpt>
      <trkpt lat="44.07021" lon="1.72655">
        <ele>282.923602</ele>
        <time>2025-05-13T16:39:00.202Z</time>
      </trkpt>
      <trkpt lat="44.07008" lon="1.72659">
        <ele>282.275503</ele>
        <time>2025-05-13T16:39:01.451Z</time>
      </trkpt>
      <trkpt lat="44.06998" lon="1.72669">
        <ele>281.698225</ele>
        <time>2025-05-13T16:39:02.562Z</time>
      </trkpt>
      <trkpt lat="44.0699" lon="1.72685">
        <ele>281.03758</ele>
        <time>2025-05-13T16:39:03.826Z</time>
      </trkpt>
      <trkpt lat="44.06978" lon="1.72719">
        <ele>279.735152</ele>
        <time>2025-05-13T16:39:06.321Z</time>
      </trkpt>
      <trkpt lat="44.0697" lon="1.72736">
        <ele>279.001687</ele>
        <time>2025-05-13T16:39:07.734Z</time>
      </trkpt>
      <trkpt lat="44.06963" lon="1.72744">
        <ele>278.581849</ele>
        <time>2025-05-13T16:39:08.545Z</time>
      </trkpt>
      <trkpt lat="44.06943" lon="1.7275">
        <ele>277.593818</ele>
        <time>2025-05-13T16:39:10.471Z</time>
      </trkpt>
      <trkpt lat="44.06925" lon="1.72748">
        <ele>276.737174</ele>
        <time>2025-05-13T16:39:12.164Z</time>
      </trkpt>
      <trkpt lat="44.06901" lon="1.72751">
        <ele>275.572845</ele>
        <time>2025-05-13T16:39:14.586Z</time>
      </trkpt>
      <trkpt lat="44.06889" lon="1.72758">
        <ele>275.025848</ele>
        <time>2025-05-13T16:39:16.016Z</time>
      </trkpt>
      <trkpt lat="44.06869" lon="1.72783">
        <ele>274.479934</ele>
        <time>2025-05-13T16:39:19.271Z</time>
      </trkpt>
      <trkpt lat="44.06852" lon="1.7279">
        <ele>274.108708</ele>
        <time>2025-05-13T16:39:21.973Z</time>
      </trkpt>
      <trkpt lat="44.06819" lon="1.72793">
        <ele>273.420393</ele>
        <time>2025-05-13T16:39:26.764Z</time>
      </trkpt>
      <trkpt lat="44.06788" lon="1.7279">
        <ele>272.781705</ele>
        <time>2025-05-13T16:39:30.906Z</time>
      </trkpt>
      <trkpt lat="44.06763" lon="1.72799">
        <ele>272.24103</ele>
        <time>2025-05-13T16:39:34.056Z</time>
      </trkpt>
      <trkpt lat="44.06749" lon="1.72811">
        <ele>271.905138</ele>
        <time>2025-05-13T16:39:35.865Z</time>
      </trkpt>
      <trkpt lat="44.06641" lon="1.7293">
        <ele>264.932745</ele>
        <time>2025-05-13T16:39:48.666Z</time>
      </trkpt>
      <trkpt lat="44.06585" lon="1.72975">
        <ele>261.202392</ele>
        <time>2025-05-13T16:39:54.483Z</time>
      </trkpt>
      <trkpt lat="44.06518" lon="1.73011">
        <ele>256.998122</ele>
        <time>2025-05-13T16:40:01.051Z</time>
      </trkpt>
      <trkpt lat="44.06507" lon="1.73022">
        <ele>256.197417</ele>
        <time>2025-05-13T16:40:02.334Z</time>
      </trkpt>
      <trkpt lat="44.06477" lon="1.73073">
        <ele>253.396959</ele>
        <time>2025-05-13T16:40:06.830Z</time>
      </trkpt>
      <trkpt lat="44.06444" lon="1.73133">
        <ele>250.129759</ele>
        <time>2025-05-13T16:40:11.857Z</time>
      </trkpt>
      <trkpt lat="44.06439" lon="1.7315">
        <ele>249.039344</ele>
        <time>2025-05-13T16:40:13.059Z</time>
      </trkpt>
      <trkpt lat="44.06438" lon="1.73163">
        <ele>248.27854</ele>
        <time>2025-05-13T16:40:13.896Z</time>
      </trkpt>
      <trkpt lat="44.0644" lon="1.73178">
        <ele>247.39848</ele>
        <time>2025-05-13T16:40:14.856Z</time>
      </trkpt>
      <trkpt lat="44.06443" lon="1.73188">
        <ele>246.747634</ele>
        <time>2025-05-13T16:40:15.562Z</time>
      </trkpt>
      <trkpt lat="44.06451" lon="1.73196">
        <ele>245.927479</ele>
        <time>2025-05-13T16:40:16.454Z</time>
      </trkpt>
      <trkpt lat="44.0646" lon="1.732">
        <ele>245.155012</ele>
        <time>2025-05-13T16:40:17.291Z</time>
      </trkpt>
      <trkpt lat="44.06472" lon="1.732">
        <ele>244.201614</ele>
        <time>2025-05-13T16:40:18.313Z</time>
      </trkpt>
      <trkpt lat="44.06524" lon="1.73196">
        <ele>239.921322</ele>
        <time>2025-05-13T16:40:22.850Z</time>
      </trkpt>
      <trkpt lat="44.06572" lon="1.73187">
        <ele>235.969313</ele>
        <time>2025-05-13T16:40:27.005Z</time>
      </trkpt>
      <trkpt lat="44.06609" lon="1.7318">
        <ele>232.975194</ele>
        <time>2025-05-13T16:40:30.278Z</time>
      </trkpt>
      <trkpt lat="44.0663" lon="1.7318">
        <ele>231.331851</ele>
        <time>2025-05-13T16:40:32.102Z</time>
      </trkpt>
      <trkpt lat="44.06684" lon="1.73188">
        <ele>227.054489</ele>
        <time>2025-05-13T16:40:36.924Z</time>
      </trkpt>
      <trkpt lat="44.06702" lon="1.73187">
        <ele>225.6233</ele>
        <time>2025-05-13T16:40:38.574Z</time>
      </trkpt>
      <trkpt lat="44.06779" lon="1.73159">
        <ele>219.666096</ele>
        <time>2025-05-13T16:40:45.791Z</time>
      </trkpt>
      <trkpt lat="44.06792" lon="1.73163">
        <ele>218.783651</ele>
        <time>2025-05-13T16:40:46.971Z</time>
      </trkpt>
      <trkpt lat="44.06816" lon="1.73181">
        <ele>216.941999</ele>
        <time>2025-05-13T16:40:49.410Z</time>
      </trkpt>
      <trkpt lat="44.06829" lon="1.73186">
        <ele>216.042326</ele>
        <time>2025-05-13T16:40:50.592Z</time>
      </trkpt>
      <trkpt lat="44.06847" lon="1.73187">
        <ele>214.828761</ele>
        <time>2025-05-13T16:40:52.188Z</time>
      </trkpt>
      <trkpt lat="44.06889" lon="1.73181">
        <ele>211.980944</ele>
        <time>2025-05-13T16:40:55.918Z</time>
      </trkpt>
      <trkpt lat="44.06918" lon="1.73188">
        <ele>209.93265</ele>
        <time>2025-05-13T16:40:58.635Z</time>
      </trkpt>
      <trkpt lat="44.06965" lon="1.73181">
        <ele>207.415193</ele>
        <time>2025-05-13T16:41:03.039Z</time>
      </trkpt>
      <trkpt lat="44.06993" lon="1.73183">
        <ele>205.988748</ele>
        <time>2025-05-13T16:41:05.795Z</time>
      </trkpt>
      <trkpt lat="44.07008" lon="1.73191">
        <ele>205.168421</ele>
        <time>2025-05-13T16:41:07.374Z</time>
      </trkpt>
      <trkpt lat="44.07052" lon="1.73228">
        <ele>202.604084</ele>
        <time>2025-05-13T16:41:12.235Z</time>
      </trkpt>
      <trkpt lat="44.0707" lon="1.73246">
        <ele>201.493052</ele>
        <time>2025-05-13T16:41:14.335Z</time>
      </trkpt>
      <trkpt lat="44.07091" lon="1.73283">
        <ele>199.656831</ele>
        <time>2025-05-13T16:41:17.548Z</time>
      </trkpt>
      <trkpt lat="44.07109" lon="1.73293">
        <ele>198.529082</ele>
        <time>2025-05-13T16:41:19.321Z</time>
      </trkpt>
      <trkpt lat="44.07129" lon="1.73292">
        <ele>197.308855</ele>
        <time>2025-05-13T16:41:21.214Z</time>
      </trkpt>
      <trkpt lat="44.07162" lon="1.73278">
        <ele>195.313344</ele>
        <time>2025-05-13T16:41:24.277Z</time>
      </trkpt>
      <trkpt lat="44.07172" lon="1.73277">
        <ele>194.697209</ele>
        <time>2025-05-13T16:41:25.209Z</time>
      </trkpt>
      <trkpt lat="44.07185" lon="1.73282">
        <ele>193.883373</ele>
        <time>2025-05-13T16:41:26.462Z</time>
      </trkpt>
      <trkpt lat="44.07204" lon="1.73299">
        <ele>192.569987</ele>
        <time>2025-05-13T16:41:28.499Z</time>
      </trkpt>
      <trkpt lat="44.07233" lon="1.73358">
        <ele>189.530177</ele>
        <time>2025-05-13T16:41:33.254Z</time>
      </trkpt>
      <trkpt lat="44.07258" lon="1.73376">
        <ele>187.671832</ele>
        <time>2025-05-13T16:41:35.885Z</time>
      </trkpt>
      <trkpt lat="44.07271" lon="1.73379">
        <ele>186.815492</ele>
        <time>2025-05-13T16:41:37.102Z</time>
      </trkpt>
      <trkpt lat="44.07283" lon="1.73379">
        <ele>186.07814</ele>
        <time>2025-05-13T16:41:38.145Z</time>
      </trkpt>
      <trkpt lat="44.07307" lon="1.7337">
        <ele>184.413756</ele>
        <time>2025-05-13T16:41:40.467Z</time>
      </trkpt>
      <trkpt lat="44.0734" lon="1.73346">
        <ele>181.993571</ele>
        <time>2025-05-13T16:41:43.769Z</time>
      </trkpt>
      <trkpt lat="44.07377" lon="1.73312">
        <ele>179.127891</ele>
        <time>2025-05-13T16:41:47.667Z</time>
      </trkpt>
      <trkpt lat="44.07389" lon="1.73304">
        <ele>178.239738</ele>
        <time>2025-05-13T16:41:48.883Z</time>
      </trkpt>
      <trkpt lat="44.07401" lon="1.73299">
        <ele>177.513398</ele>
        <time>2025-05-13T16:41:50.009Z</time>
      </trkpt>
      <trkpt lat="44.07418" lon="1.73298">
        <ele>176.608323</ele>
        <time>2025-05-13T16:41:51.565Z</time>
      </trkpt>
      <trkpt lat="44.07435" lon="1.733">
        <ele>175.674456</ele>
        <time>2025-05-13T16:41:53.181Z</time>
      </trkpt>
      <trkpt lat="44.07496" lon="1.73317">
        <ele>172.347104</ele>
        <time>2025-05-13T16:41:59.068Z</time>
      </trkpt>
      <trkpt lat="44.07518" lon="1.7332">
        <ele>171.138704</ele>
        <time>2025-05-13T16:42:01.253Z</time>
      </trkpt>
      <trkpt lat="44.07529" lon="1.73321">
        <ele>170.546824</ele>
        <time>2025-05-13T16:42:02.301Z</time>
      </trkpt>
      <trkpt lat="44.07544" lon="1.73313">
        <ele>169.676644</ele>
        <time>2025-05-13T16:42:03.837Z</time>
      </trkpt>
      <trkpt lat="44.0756" lon="1.73295">
        <ele>168.561418</ele>
        <time>2025-05-13T16:42:05.810Z</time>
      </trkpt>
      <trkpt lat="44.07585" lon="1.73291">
        <ele>167.029373</ele>
        <time>2025-05-13T16:42:08.113Z</time>
      </trkpt>
      <trkpt lat="44.07591" lon="1.73297">
        <ele>166.557727</ele>
        <time>2025-05-13T16:42:08.795Z</time>
      </trkpt>
      <trkpt lat="44.07619" lon="1.73238">
        <ele>163.259395</ele>
        <time>2025-05-13T16:42:13.366Z</time>
      </trkpt>
      <trkpt lat="44.07639" lon="1.732">
        <ele>161.092915</ele>
        <time>2025-05-13T16:42:16.338Z</time>
      </trkpt>
      <trkpt lat="44.0766" lon="1.73179">
        <ele>159.420484</ele>
        <time>2025-05-13T16:42:18.656Z</time>
      </trkpt>
      <trkpt lat="44.07669" lon="1.73174">
        <ele>158.796531</ele>
        <time>2025-05-13T16:42:19.520Z</time>
      </trkpt>
      <trkpt lat="44.07676" lon="1.73164">
        <ele>158.157132</ele>
        <time>2025-05-13T16:42:20.411Z</time>
      </trkpt>
      <trkpt lat="44.07679" lon="1.73145">
        <ele>157.277437</ele>
        <time>2025-05-13T16:42:21.643Z</time>
      </trkpt>
      <trkpt lat="44.0768" lon="1.73101">
        <ele>155.917725</ele>
        <time>2025-05-13T16:42:24.634Z</time>
      </trkpt>
      <trkpt lat="44.07681" lon="1.73096">
        <ele>155.804694</ele>
        <time>2025-05-13T16:42:24.978Z</time>
      </trkpt>
      <trkpt lat="44.07682" lon="1.73079">
        <ele>155.418948</ele>
        <time>2025-05-13T16:42:26.127Z</time>
      </trkpt>
      <trkpt lat="44.07679" lon="1.73061">
        <ele>154.993634</ele>
        <time>2025-05-13T16:42:27.432Z</time>
      </trkpt>
      <trkpt lat="44.07677" lon="1.73026">
        <ele>154.202603</ele>
        <time>2025-05-13T16:42:29.936Z</time>
      </trkpt>
      <trkpt lat="44.07683" lon="1.72996">
        <ele>153.480853</ele>
        <time>2025-05-13T16:42:32.370Z</time>
      </trkpt>
      <trkpt lat="44.07689" lon="1.72973">
        <ele>152.927563</ele>
        <time>2025-05-13T16:42:34.365Z</time>
      </trkpt>
      <trkpt lat="44.07699" lon="1.72949">
        <ele>152.284845</ele>
        <time>2025-05-13T16:42:36.676Z</time>
      </trkpt>
      <trkpt lat="44.07711" lon="1.72928">
        <ele>151.690511</ele>
        <time>2025-05-13T16:42:38.802Z</time>
      </trkpt>
      <trkpt lat="44.07733" lon="1.72843">
        <ele>149.386834</ele>
        <time>2025-05-13T16:42:46.032Z</time>
      </trkpt>
      <trkpt lat="44.07748" lon="1.72786">
        <ele>147.76031</ele>
        <time>2025-05-13T16:42:50.473Z</time>
      </trkpt>
      <trkpt lat="44.07759" lon="1.72754">
        <ele>146.812206</ele>
        <time>2025-05-13T16:42:52.912Z</time>
      </trkpt>
      <trkpt lat="44.07771" lon="1.72725">
        <ele>145.902825</ele>
        <time>2025-05-13T16:42:55.176Z</time>
      </trkpt>
      <trkpt lat="44.07788" lon="1.72662">
        <ele>144.115032</ele>
        <time>2025-05-13T16:42:59.584Z</time>
      </trkpt>
      <trkpt lat="44.07817" lon="1.72607">
        <ele>142.199688</ele>
        <time>2025-05-13T16:43:04.505Z</time>
      </trkpt>
      <trkpt lat="44.07842" lon="1.72581">
        <ele>140.978571</ele>
        <time>2025-05-13T16:43:07.638Z</time>
      </trkpt>
      <trkpt lat="44.07843" lon="1.72589">
        <ele>140.760661</ele>
        <time>2025-05-13T16:43:08.451Z</time>
      </trkpt>
      <trkpt lat="44.07831" lon="1.72602">
        <ele>140.191799</ele>
        <time>2025-05-13T16:43:10.552Z</time>
      </trkpt>
      <trkpt lat="44.07805" lon="1.72654">
        <ele>138.408308</ele>
        <time>2025-05-13T16:43:17.144Z</time>
      </trkpt>
      <trkpt lat="44.07831" lon="1.72602">
        <ele>136.616584</ele>
        <time>2025-05-13T16:43:23.696Z</time>
      </trkpt>
      <trkpt lat="44.07843" lon="1.72589">
        <ele>136.038923</ele>
        <time>2025-05-13T16:43:25.711Z</time>
      </trkpt>
      <trkpt lat="44.07842" lon="1.72581">
        <ele>135.817643</ele>
        <time>2025-05-13T16:43:26.465Z</time>
      </trkpt>
      <trkpt lat="44.07844" lon="1.72577">
        <ele>135.674361</ele>
        <time>2025-05-13T16:43:26.807Z</time>
      </trkpt>
      <trkpt lat="44.07902" lon="1.7249">
        <ele>132.304802</ele>
        <time>2025-05-13T16:43:34.608Z</time>
      </trkpt>
      <trkpt lat="44.07921" lon="1.72478">
        <ele>131.464894</ele>
        <time>2025-05-13T16:43:36.756Z</time>
      </trkpt>
      <trkpt lat="44.07933" lon="1.72477">
        <ele>131.006727</ele>
        <time>2025-05-13T16:43:37.987Z</time>
      </trkpt>
      <trkpt lat="44.07944" lon="1.72479">
        <ele>130.553277</ele>
        <time>2025-05-13T16:43:39.313Z</time>
      </trkpt>
      <trkpt lat="44.07953" lon="1.72486">
        <ele>130.149626</ele>
        <time>2025-05-13T16:43:40.631Z</time>
      </trkpt>
      <trkpt lat="44.07958" lon="1.72494">
        <ele>129.970114</ele>
        <time>2025-05-13T16:43:41.835Z</time>
      </trkpt>
      <trkpt lat="44.07961" lon="1.72506">
        <ele>129.848916</ele>
        <time>2025-05-13T16:43:43.253Z</time>
      </trkpt>
      <trkpt lat="44.07966" lon="1.72547">
        <ele>129.446904</ele>
        <time>2025-05-13T16:43:47.439Z</time>
      </trkpt>
      <trkpt lat="44.07966" lon="1.72581">
        <ele>129.121696</ele>
        <time>2025-05-13T16:43:51.236Z</time>
      </trkpt>
      <trkpt lat="44.07955" lon="1.72643">
        <ele>128.501402</ele>
        <time>2025-05-13T16:43:58.738Z</time>
      </trkpt>
      <trkpt lat="44.07955" lon="1.72662">
        <ele>128.31835</ele>
        <time>2025-05-13T16:44:00.425Z</time>
      </trkpt>
      <trkpt lat="44.07965" lon="1.7267">
        <ele>128.172562</ele>
        <time>2025-05-13T16:44:01.577Z</time>
      </trkpt>
      <trkpt lat="44.07971" lon="1.72635">
        <ele>127.830395</ele>
        <time>2025-05-13T16:44:04.238Z</time>
      </trkpt>
      <trkpt lat="44.07976" lon="1.72595">
        <ele>127.284613</ele>
        <time>2025-05-13T16:44:07.134Z</time>
      </trkpt>
      <trkpt lat="44.07979" lon="1.72526">
        <ele>126.019902</ele>
        <time>2025-05-13T16:44:11.845Z</time>
      </trkpt>
      <trkpt lat="44.07978" lon="1.72498">
        <ele>125.509303</ele>
        <time>2025-05-13T16:44:13.808Z</time>
      </trkpt>
      <trkpt lat="44.07955" lon="1.72272">
        <ele>122.279604</ele>
        <time>2025-05-13T16:44:33.246Z</time>
      </trkpt>
      <trkpt lat="44.07941" lon="1.72197">
        <ele>121.626811</ele>
        <time>2025-05-13T16:44:40.122Z</time>
      </trkpt>
      <trkpt lat="44.07928" lon="1.72154">
        <ele>121.233172</ele>
        <time>2025-05-13T16:44:44.326Z</time>
      </trkpt>
      <trkpt lat="44.07908" lon="1.721">
        <ele>120.526159</ele>
        <time>2025-05-13T16:44:49.420Z</time>
      </trkpt>
      <trkpt lat="44.07876" lon="1.72037">
        <ele>119.346197</ele>
        <time>2025-05-13T16:44:55.636Z</time>
      </trkpt>
      <trkpt lat="44.0782" lon="1.71939">
        <ele>117.436304</ele>
        <time>2025-05-13T16:45:05.287Z</time>
      </trkpt>
      <trkpt lat="44.07799" lon="1.71908">
        <ele>116.745965</ele>
        <time>2025-05-13T16:45:08.397Z</time>
      </trkpt>
      <trkpt lat="44.07757" lon="1.71863">
        <ele>115.524349</ele>
        <time>2025-05-13T16:45:13.627Z</time>
      </trkpt>
      <trkpt lat="44.07727" lon="1.71837">
        <ele>114.70557</ele>
        <time>2025-05-13T16:45:17.289Z</time>
      </trkpt>
      <trkpt lat="44.07687" lon="1.71811">
        <ele>113.669288</ele>
        <time>2025-05-13T16:45:22.263Z</time>
      </trkpt>
      <trkpt lat="44.07655" lon="1.71795">
        <ele>112.947557</ele>
        <time>2025-05-13T16:45:26.338Z</time>
      </trkpt>
      <trkpt lat="44.0762" lon="1.71781">
        <ele>112.770994</ele>
        <time>2025-05-13T16:45:31.036Z</time>
      </trkpt>
      <trkpt lat="44.07564" lon="1.71773">
        <ele>112.4916</ele>
        <time>2025-05-13T16:45:39.297Z</time>
      </trkpt>
      <trkpt lat="44.07484" lon="1.71767">
        <ele>112.100253</ele>
        <time>2025-05-13T16:45:49.686Z</time>
      </trkpt>
      <trkpt lat="44.07445" lon="1.71765">
        <ele>112.242173</ele>
        <time>2025-05-13T16:45:55.102Z</time>
      </trkpt>
      <trkpt lat="44.07358" lon="1.71757">
        <ele>112.647833</ele>
        <time>2025-05-13T16:46:08.927Z</time>
      </trkpt>
      <trkpt lat="44.07335" lon="1.71753">
        <ele>112.756474</ele>
        <time>2025-05-13T16:46:13.474Z</time>
      </trkpt>
      <trkpt lat="44.07301" lon="1.71741">
        <ele>112.919324</ele>
        <time>2025-05-13T16:46:20.881Z</time>
      </trkpt>
      <trkpt lat="44.0724" lon="1.71713">
        <ele>113.594854</ele>
        <time>2025-05-13T16:46:34.000Z</time>
      </trkpt>
      <trkpt lat="44.07212" lon="1.71696">
        <ele>113.919218</ele>
        <time>2025-05-13T16:46:39.203Z</time>
      </trkpt>
      <trkpt lat="44.07158" lon="1.71655">
        <ele>114.563456</ele>
        <time>2025-05-13T16:46:49.257Z</time>
      </trkpt>
      <trkpt lat="44.07145" lon="1.71641">
        <ele>114.72977</ele>
        <time>2025-05-13T16:46:52.352Z</time>
      </trkpt>
      <trkpt lat="44.07113" lon="1.71597">
        <ele>115.778801</ele>
        <time>2025-05-13T16:47:02.393Z</time>
      </trkpt>
      <trkpt lat="44.07085" lon="1.71546">
        <ele>116.963552</ele>
        <time>2025-05-13T16:47:13.944Z</time>
      </trkpt>
      <trkpt lat="44.07063" lon="1.7149">
        <ele>118.151125</ele>
        <time>2025-05-13T16:47:25.857Z</time>
      </trkpt>
      <trkpt lat="44.07052" lon="1.71449">
        <ele>118.961827</ele>
        <time>2025-05-13T16:47:35.035Z</time>
      </trkpt>
      <trkpt lat="44.07043" lon="1.71397">
        <ele>119.962716</ele>
        <time>2025-05-13T16:47:46.308Z</time>
      </trkpt>
      <trkpt lat="44.07039" lon="1.71346">
        <ele>120.956538</ele>
        <time>2025-05-13T16:47:56.408Z</time>
      </trkpt>
      <trkpt lat="44.07044" lon="1.71266">
        <ele>122.500368</ele>
        <time>2025-05-13T16:48:09.780Z</time>
      </trkpt>
      <trkpt lat="44.07052" lon="1.71221">
        <ele>123.393574</ele>
        <time>2025-05-13T16:48:17.412Z</time>
      </trkpt>
      <trkpt lat="44.07065" lon="1.71174">
        <ele>124.387015</ele>
        <time>2025-05-13T16:48:26.634Z</time>
      </trkpt>
      <trkpt lat="44.07082" lon="1.71127">
        <ele>125.655039</ele>
        <time>2025-05-13T16:48:36.628Z</time>
      </trkpt>
      <trkpt lat="44.07208" lon="1.70862">
        <ele>131.879298</ele>
        <time>2025-05-13T16:49:43.917Z</time>
      </trkpt>
      <trkpt lat="44.07248" lon="1.7077">
        <ele>133.210956</ele>
        <time>2025-05-13T16:49:57.625Z</time>
      </trkpt>
      <trkpt lat="44.07271" lon="1.70706">
        <ele>132.098272</ele>
        <time>2025-05-13T16:50:03.355Z</time>
      </trkpt>
      <trkpt lat="44.07282" lon="1.70664">
        <ele>131.036585</ele>
        <time>2025-05-13T16:50:06.629Z</time>
      </trkpt>
      <trkpt lat="44.07298" lon="1.70582">
        <ele>129.011173</ele>
        <time>2025-05-13T16:50:12.567Z</time>
      </trkpt>
      <trkpt lat="44.07307" lon="1.70501">
        <ele>127.050483</ele>
        <time>2025-05-13T16:50:18.110Z</time>
      </trkpt>
      <trkpt lat="44.07309" lon="1.70452">
        <ele>125.841029</ele>
        <time>2025-05-13T16:50:21.486Z</time>
      </trkpt>
      <trkpt lat="44.07309" lon="1.70386">
        <ele>124.211697</ele>
        <time>2025-05-13T16:50:26.198Z</time>
      </trkpt>
      <trkpt lat="44.07302" lon="1.70311">
        <ele>122.35181</ele>
        <time>2025-05-13T16:50:31.816Z</time>
      </trkpt>
      <trkpt lat="44.07291" lon="1.70253">
        <ele>120.795269</ele>
        <time>2025-05-13T16:50:36.377Z</time>
      </trkpt>
      <trkpt lat="44.07276" lon="1.70196">
        <ele>118.955991</ele>
        <time>2025-05-13T16:50:41.157Z</time>
      </trkpt>
      <trkpt lat="44.07253" lon="1.70139">
        <ele>117.030585</ele>
        <time>2025-05-13T16:50:45.933Z</time>
      </trkpt>
      <trkpt lat="44.07236" lon="1.70107">
        <ele>115.845904</ele>
        <time>2025-05-13T16:50:48.662Z</time>
      </trkpt>
      <trkpt lat="44.07209" lon="1.70068">
        <ele>114.228645</ele>
        <time>2025-05-13T16:50:52.186Z</time>
      </trkpt>
      <trkpt lat="44.07172" lon="1.70031">
        <ele>111.99021</ele>
        <time>2025-05-13T16:50:56.266Z</time>
      </trkpt>
      <trkpt lat="44.0713" lon="1.70003">
        <ele>109.598876</ele>
        <time>2025-05-13T16:51:00.480Z</time>
      </trkpt>
      <trkpt lat="44.07097" lon="1.69986">
        <ele>107.772231</ele>
        <time>2025-05-13T16:51:03.755Z</time>
      </trkpt>
      <trkpt lat="44.07069" lon="1.6998">
        <ele>106.348207</ele>
        <time>2025-05-13T16:51:06.365Z</time>
      </trkpt>
      <trkpt lat="44.07015" lon="1.69975">
        <ele>104.791048</ele>
        <time>2025-05-13T16:51:11.972Z</time>
      </trkpt>
      <trkpt lat="44.06993" lon="1.6998">
        <ele>105.020432</ele>
        <time>2025-05-13T16:51:14.890Z</time>
      </trkpt>
      <trkpt lat="44.06883" lon="1.70016">
        <ele>106.169296</ele>
        <time>2025-05-13T16:51:39.399Z</time>
      </trkpt>
      <trkpt lat="44.0684" lon="1.70026">
        <ele>106.972914</ele>
        <time>2025-05-13T16:51:53.153Z</time>
      </trkpt>
      <trkpt lat="44.06783" lon="1.70029">
        <ele>108.569767</ele>
        <time>2025-05-13T16:52:10.126Z</time>
      </trkpt>
      <trkpt lat="44.0675" lon="1.70025">
        <ele>109.517884</ele>
        <time>2025-05-13T16:52:18.161Z</time>
      </trkpt>
      <trkpt lat="44.06697" lon="1.7001">
        <ele>111.038217</ele>
        <time>2025-05-13T16:52:30.595Z</time>
      </trkpt>
      <trkpt lat="44.0664" lon="1.69979">
        <ele>112.591036</ele>
        <time>2025-05-13T16:52:46.102Z</time>
      </trkpt>
      <trkpt lat="44.06592" lon="1.69941">
        <ele>113.93313</ele>
        <time>2025-05-13T16:52:59.968Z</time>
      </trkpt>
      <trkpt lat="44.06563" lon="1.69909">
        <ele>114.811009</ele>
        <time>2025-05-13T16:53:10.402Z</time>
      </trkpt>
      <trkpt lat="44.06456" lon="1.69768">
        <ele>115.91087</ele>
        <time>2025-05-13T16:53:41.641Z</time>
      </trkpt>
      <trkpt lat="44.06432" lon="1.69727">
        <ele>115.931028</ele>
        <time>2025-05-13T16:53:45.751Z</time>
      </trkpt>
      <trkpt lat="44.06419" lon="1.697">
        <ele>115.943489</ele>
        <time>2025-05-13T16:53:48.304Z</time>
      </trkpt>
      <trkpt lat="44.06393" lon="1.69633">
        <ele>115.95562</ele>
        <time>2025-05-13T16:53:54.190Z</time>
      </trkpt>
      <trkpt lat="44.06384" lon="1.69603">
        <ele>115.958472</ele>
        <time>2025-05-13T16:53:56.860Z</time>
      </trkpt>
      <trkpt lat="44.06351" lon="1.69469">
        <ele>115.970799</ele>
        <time>2025-05-13T16:54:13.536Z</time>
      </trkpt>
      <trkpt lat="44.06342" lon="1.69441">
        <ele>116.288974</ele>
        <time>2025-05-13T16:54:19.395Z</time>
      </trkpt>
      <trkpt lat="44.06328" lon="1.69405">
        <ele>117.391722</ele>
        <time>2025-05-13T16:54:27.645Z</time>
      </trkpt>
      <trkpt lat="44.06253" lon="1.69243">
        <ele>122.584909</ele>
        <time>2025-05-13T16:55:12.629Z</time>
      </trkpt>
      <trkpt lat="44.0625" lon="1.69236">
        <ele>122.822367</ele>
        <time>2025-05-13T16:55:14.730Z</time>
      </trkpt>
      <trkpt lat="44.06225" lon="1.69154">
        <ele>125.439401</ele>
        <time>2025-05-13T16:55:32.998Z</time>
      </trkpt>
      <trkpt lat="44.06207" lon="1.69079">
        <ele>127.75948</ele>
        <time>2025-05-13T16:55:49.243Z</time>
      </trkpt>
      <trkpt lat="44.06192" lon="1.69003">
        <ele>130.070705</ele>
        <time>2025-05-13T16:56:07.663Z</time>
      </trkpt>
      <trkpt lat="44.06184" lon="1.68935">
        <ele>132.073315</ele>
        <time>2025-05-13T16:56:27.038Z</time>
      </trkpt>
      <trkpt lat="44.06176" lon="1.68823">
        <ele>135.333505</ele>
        <time>2025-05-13T16:56:56.456Z</time>
      </trkpt>
      <trkpt lat="44.06177" lon="1.68724">
        <ele>137.285359</ele>
        <time>2025-05-13T16:57:11.046Z</time>
      </trkpt>
      <trkpt lat="44.06183" lon="1.68662">
        <ele>137.154394</ele>
        <time>2025-05-13T16:57:16.932Z</time>
      </trkpt>
      <trkpt lat="44.06192" lon="1.68607">
        <ele>137.035841</ele>
        <time>2025-05-13T16:57:22.025Z</time>
      </trkpt>
      <trkpt lat="44.06211" lon="1.68537">
        <ele>136.880934</ele>
        <time>2025-05-13T16:57:28.949Z</time>
      </trkpt>
      <trkpt lat="44.06237" lon="1.68461">
        <ele>135.168788</ele>
        <time>2025-05-13T16:57:36.494Z</time>
      </trkpt>
      <trkpt lat="44.06263" lon="1.68408">
        <ele>133.326772</ele>
        <time>2025-05-13T16:57:41.380Z</time>
      </trkpt>
      <trkpt lat="44.06306" lon="1.6833">
        <ele>130.4789</ele>
        <time>2025-05-13T16:57:47.931Z</time>
      </trkpt>
      <trkpt lat="44.06428" lon="1.68122">
        <ele>118.599483</ele>
        <time>2025-05-13T16:58:05.145Z</time>
      </trkpt>
      <trkpt lat="44.06443" lon="1.6809">
        <ele>118.540729</ele>
        <time>2025-05-13T16:58:07.970Z</time>
      </trkpt>
      <trkpt lat="44.06456" lon="1.68055">
        <ele>119.296559</ele>
        <time>2025-05-13T16:58:11.674Z</time>
      </trkpt>
      <trkpt lat="44.06466" lon="1.68019">
        <ele>120.045062</ele>
        <time>2025-05-13T16:58:17.896Z</time>
      </trkpt>
      <trkpt lat="44.06475" lon="1.67975">
        <ele>120.923818</ele>
        <time>2025-05-13T16:58:28.940Z</time>
      </trkpt>
      <trkpt lat="44.06482" lon="1.67907">
        <ele>122.224945</ele>
        <time>2025-05-13T16:58:50.682Z</time>
      </trkpt>
      <trkpt lat="44.06479" lon="1.67825">
        <ele>122.758497</ele>
        <time>2025-05-13T16:59:14.860Z</time>
      </trkpt>
      <trkpt lat="44.06465" lon="1.6775">
        <ele>122.628248</ele>
        <time>2025-05-13T16:59:28.129Z</time>
      </trkpt>
      <trkpt lat="44.06452" lon="1.67711">
        <ele>122.556691</ele>
        <time>2025-05-13T16:59:31.592Z</time>
      </trkpt>
      <trkpt lat="44.06436" lon="1.67671">
        <ele>122.479396</ele>
        <time>2025-05-13T16:59:34.776Z</time>
      </trkpt>
      <trkpt lat="44.06394" lon="1.67588">
        <ele>119.695814</ele>
        <time>2025-05-13T16:59:41.241Z</time>
      </trkpt>
      <trkpt lat="44.0636" lon="1.6754">
        <ele>117.049926</ele>
        <time>2025-05-13T16:59:45.505Z</time>
      </trkpt>
      <trkpt lat="44.06321" lon="1.675">
        <ele>114.354371</ele>
        <time>2025-05-13T16:59:50.082Z</time>
      </trkpt>
      <trkpt lat="44.06307" lon="1.67489">
        <ele>113.435942</ele>
        <time>2025-05-13T16:59:51.737Z</time>
      </trkpt>
      <trkpt lat="44.06266" lon="1.67464">
        <ele>112.244888</ele>
        <time>2025-05-13T16:59:56.461Z</time>
      </trkpt>
      <trkpt lat="44.06225" lon="1.67448">
        <ele>111.944581</ele>
        <time>2025-05-13T17:00:01.295Z</time>
      </trkpt>
      <trkpt lat="44.05884" lon="1.67347">
        <ele>113.991019</ele>
        <time>2025-05-13T17:01:00.030Z</time>
      </trkpt>
      <trkpt lat="44.05847" lon="1.67335">
        <ele>115.117079</ele>
        <time>2025-05-13T17:01:16.852Z</time>
      </trkpt>
      <trkpt lat="44.05782" lon="1.67299">
        <ele>117.172751</ele>
        <time>2025-05-13T17:01:42.201Z</time>
      </trkpt>
      <trkpt lat="44.05758" lon="1.67281">
        <ele>116.910434</ele>
        <time>2025-05-13T17:01:47.094Z</time>
      </trkpt>
      <trkpt lat="44.05716" lon="1.67236">
        <ele>114.283779</ele>
        <time>2025-05-13T17:01:52.424Z</time>
      </trkpt>
      <trkpt lat="44.05697" lon="1.67209">
        <ele>112.928484</ele>
        <time>2025-05-13T17:01:54.846Z</time>
      </trkpt>
      <trkpt lat="44.05686" lon="1.6719">
        <ele>112.068041</ele>
        <time>2025-05-13T17:01:56.345Z</time>
      </trkpt>
      <trkpt lat="44.05658" lon="1.67129">
        <ele>109.463548</ele>
        <time>2025-05-13T17:02:00.923Z</time>
      </trkpt>
      <trkpt lat="44.05645" lon="1.67091">
        <ele>108.326478</ele>
        <time>2025-05-13T17:02:03.605Z</time>
      </trkpt>
      <trkpt lat="44.0564" lon="1.67071">
        <ele>107.951492</ele>
        <time>2025-05-13T17:02:05.054Z</time>
      </trkpt>
      <trkpt lat="44.05628" lon="1.67066">
        <ele>107.653039</ele>
        <time>2025-05-13T17:02:06.262Z</time>
      </trkpt>
      <trkpt lat="44.05618" lon="1.67069">
        <ele>107.404291</ele>
        <time>2025-05-13T17:02:07.349Z</time>
      </trkpt>
      <trkpt lat="44.05585" lon="1.67096">
        <ele>106.479564</ele>
        <time>2025-05-13T17:02:11.467Z</time>
      </trkpt>
      <trkpt lat="44.05563" lon="1.6711">
        <ele>105.887653</ele>
        <time>2025-05-13T17:02:14.242Z</time>
      </trkpt>
      <trkpt lat="44.05451" lon="1.67182">
        <ele>104.407609</ele>
        <time>2025-05-13T17:02:33.184Z</time>
      </trkpt>
      <trkpt lat="44.05426" lon="1.67191">
        <ele>104.465804</ele>
        <time>2025-05-13T17:02:36.899Z</time>
      </trkpt>
      <trkpt lat="44.05368" lon="1.67205">
        <ele>104.598371</ele>
        <time>2025-05-13T17:02:46.281Z</time>
      </trkpt>
      <trkpt lat="44.05175" lon="1.67249">
        <ele>106.225009</ele>
        <time>2025-05-13T17:03:18.808Z</time>
      </trkpt>
      <trkpt lat="44.05145" lon="1.67258">
        <ele>106.838904</ele>
        <time>2025-05-13T17:03:25.826Z</time>
      </trkpt>
      <trkpt lat="44.05128" lon="1.67245">
        <ele>107.740681</ele>
        <time>2025-05-13T17:03:31.543Z</time>
      </trkpt>
      <trkpt lat="44.05128" lon="1.67244">
        <ele>107.787363</ele>
        <time>2025-05-13T17:03:31.869Z</time>
      </trkpt>
      <trkpt lat="44.05111" lon="1.67221">
        <ele>108.882764</ele>
        <time>2025-05-13T17:03:39.661Z</time>
      </trkpt>
      <trkpt lat="44.05092" lon="1.6719">
        <ele>110.257373</ele>
        <time>2025-05-13T17:03:49.942Z</time>
      </trkpt>
      <trkpt lat="44.05076" lon="1.67163">
        <ele>111.415233</ele>
        <time>2025-05-13T17:03:59.040Z</time>
      </trkpt>
      <trkpt lat="44.05071" lon="1.67139">
        <ele>112.254779</ele>
        <time>2025-05-13T17:04:05.806Z</time>
      </trkpt>
      <trkpt lat="44.05075" lon="1.6711">
        <ele>113.238468</ele>
        <time>2025-05-13T17:04:14.282Z</time>
      </trkpt>
      <trkpt lat="44.05079" lon="1.67101">
        <ele>113.607246</ele>
        <time>2025-05-13T17:04:17.606Z</time>
      </trkpt>
      <trkpt lat="44.05091" lon="1.67086">
        <ele>114.360078</ele>
        <time>2025-05-13T17:04:24.686Z</time>
      </trkpt>
      <trkpt lat="44.05335" lon="1.66917">
        <ele>127.607616</ele>
        <time>2025-05-13T17:05:55.858Z</time>
      </trkpt>
      <trkpt lat="44.05357" lon="1.66897">
        <ele>128.941832</ele>
        <time>2025-05-13T17:06:05.334Z</time>
      </trkpt>
      <trkpt lat="44.0537" lon="1.66877">
        <ele>129.881474</ele>
        <time>2025-05-13T17:06:12.214Z</time>
      </trkpt>
      <trkpt lat="44.05381" lon="1.66848">
        <ele>131.030394</ele>
        <time>2025-05-13T17:06:20.750Z</time>
      </trkpt>
      <trkpt lat="44.05383" lon="1.66812">
        <ele>132.323248</ele>
        <time>2025-05-13T17:06:30.597Z</time>
      </trkpt>
      <trkpt lat="44.05358" lon="1.66617">
        <ele>137.530425</ele>
        <time>2025-05-13T17:07:17.715Z</time>
      </trkpt>
      <trkpt lat="44.05355" lon="1.66548">
        <ele>138.857112</ele>
        <time>2025-05-13T17:07:28.312Z</time>
      </trkpt>
      <trkpt lat="44.05358" lon="1.66356">
        <ele>137.088751</ele>
        <time>2025-05-13T17:07:44.331Z</time>
      </trkpt>
      <trkpt lat="44.05362" lon="1.66317">
        <ele>136.720959</ele>
        <time>2025-05-13T17:07:47.209Z</time>
      </trkpt>
      <trkpt lat="44.05366" lon="1.6629">
        <ele>136.665472</ele>
        <time>2025-05-13T17:07:49.133Z</time>
      </trkpt>
      <trkpt lat="44.05385" lon="1.6622">
        <ele>136.61695</ele>
        <time>2025-05-13T17:07:54.668Z</time>
      </trkpt>
      <trkpt lat="44.05401" lon="1.66182">
        <ele>136.588337</ele>
        <time>2025-05-13T17:07:58.389Z</time>
      </trkpt>
      <trkpt lat="44.05421" lon="1.66235">
        <ele>136.549517</ele>
        <time>2025-05-13T17:08:05.915Z</time>
      </trkpt>
      <trkpt lat="44.0544" lon="1.66277">
        <ele>136.598302</ele>
        <time>2025-05-13T17:08:15.609Z</time>
      </trkpt>
      <trkpt lat="44.05463" lon="1.66329">
        <ele>139.023097</ele>
        <time>2025-05-13T17:08:33.460Z</time>
      </trkpt>
      <trkpt lat="44.05494" lon="1.66399">
        <ele>142.348266</ele>
        <time>2025-05-13T17:09:00.860Z</time>
      </trkpt>
      <trkpt lat="44.05499" lon="1.66413">
        <ele>142.981054</ele>
        <time>2025-05-13T17:09:05.580Z</time>
      </trkpt>
      <trkpt lat="44.05509" lon="1.66427">
        <ele>143.750232</ele>
        <time>2025-05-13T17:09:11.004Z</time>
      </trkpt>
      <trkpt lat="44.05513" lon="1.66438">
        <ele>144.25429</ele>
        <time>2025-05-13T17:09:14.891Z</time>
      </trkpt>
      <trkpt lat="44.05517" lon="1.66449">
        <ele>144.747767</ele>
        <time>2025-05-13T17:09:18.559Z</time>
      </trkpt>
      <trkpt lat="44.05506" lon="1.66484">
        <ele>146.32037</ele>
        <time>2025-05-13T17:09:27.894Z</time>
      </trkpt>
      <trkpt lat="44.05492" lon="1.66536">
        <ele>148.240698</ele>
        <time>2025-05-13T17:09:38.478Z</time>
      </trkpt>
      <trkpt lat="44.05484" lon="1.6657">
        <ele>149.435629</ele>
        <time>2025-05-13T17:09:45.267Z</time>
      </trkpt>
      <trkpt lat="44.0547" lon="1.66633">
        <ele>151.675503</ele>
        <time>2025-05-13T17:09:58.656Z</time>
      </trkpt>
      <trkpt lat="44.05474" lon="1.66674">
        <ele>153.064952</ele>
        <time>2025-05-13T17:10:08.395Z</time>
      </trkpt>
      <trkpt lat="44.05483" lon="1.66672">
        <ele>153.479486</ele>
        <time>2025-05-13T17:10:12.029Z</time>
      </trkpt>
      <trkpt lat="44.05484" lon="1.66645">
        <ele>154.40456</ele>
        <time>2025-05-13T17:10:20.547Z</time>
      </trkpt>
      <trkpt lat="44.05487" lon="1.66633">
        <ele>154.840168</ele>
        <time>2025-05-13T17:10:24.930Z</time>
      </trkpt>
      <trkpt lat="44.05489" lon="1.66626">
        <ele>155.083939</ele>
        <time>2025-05-13T17:10:27.388Z</time>
      </trkpt>
      <trkpt lat="44.05511" lon="1.66588">
        <ele>158.148473</ele>
        <time>2025-05-13T17:10:45.780Z</time>
      </trkpt>
      <trkpt lat="44.05542" lon="1.66562">
        <ele>161.382959</ele>
        <time>2025-05-13T17:11:08.375Z</time>
      </trkpt>
      <trkpt lat="44.05551" lon="1.66554">
        <ele>162.346475</ele>
        <time>2025-05-13T17:11:15.482Z</time>
      </trkpt>
      <trkpt lat="44.05556" lon="1.6655">
        <ele>162.82449</ele>
        <time>2025-05-13T17:11:18.891Z</time>
      </trkpt>
      <trkpt lat="44.05559" lon="1.66547">
        <ele>163.169471</ele>
        <time>2025-05-13T17:11:21.317Z</time>
      </trkpt>
      <trkpt lat="44.05603" lon="1.66471">
        <ele>169.339151</ele>
        <time>2025-05-13T17:12:14.096Z</time>
      </trkpt>
      <trkpt lat="44.05619" lon="1.66444">
        <ele>171.207311</ele>
        <time>2025-05-13T17:12:32.302Z</time>
      </trkpt>
      <trkpt lat="44.05628" lon="1.66429">
        <ele>171.763997</ele>
        <time>2025-05-13T17:12:41.881Z</time>
      </trkpt>
      <trkpt lat="44.05629" lon="1.66427">
        <ele>171.849354</ele>
        <time>2025-05-13T17:12:43.298Z</time>
      </trkpt>
      <trkpt lat="44.05632" lon="1.66419">
        <ele>172.117593</ele>
        <time>2025-05-13T17:12:46.274Z</time>
      </trkpt>
      <trkpt lat="44.05646" lon="1.6644">
        <ele>172.92322</ele>
        <time>2025-05-13T17:12:54.191Z</time>
      </trkpt>
      <trkpt lat="44.05658" lon="1.66455">
        <ele>173.584037</ele>
        <time>2025-05-13T17:12:59.865Z</time>
      </trkpt>
      <trkpt lat="44.0568" lon="1.66473">
        <ele>174.607489</ele>
        <time>2025-05-13T17:13:07.179Z</time>
      </trkpt>
      <trkpt lat="44.05671" lon="1.66487">
        <ele>175.159309</ele>
        <time>2025-05-13T17:13:10.307Z</time>
      </trkpt>
      <trkpt lat="44.05647" lon="1.66529">
        <ele>176.717716</ele>
        <time>2025-05-13T17:13:19.349Z</time>
      </trkpt>
      <trkpt lat="44.05617" lon="1.66567">
        <ele>178.098442</ele>
        <time>2025-05-13T17:13:29.161Z</time>
      </trkpt>
      <trkpt lat="44.05607" lon="1.66582">
        <ele>177.558392</ele>
        <time>2025-05-13T17:13:31.607Z</time>
      </trkpt>
      <trkpt lat="44.056" lon="1.66591">
        <ele>177.19598</ele>
        <time>2025-05-13T17:13:32.784Z</time>
      </trkpt>
      <trkpt lat="44.05607" lon="1.66582">
        <ele>176.833569</ele>
        <time>2025-05-13T17:13:34.602Z</time>
      </trkpt>
      <trkpt lat="44.05617" lon="1.66567">
        <ele>176.293519</ele>
        <time>2025-05-13T17:13:36.499Z</time>
      </trkpt>
      <trkpt lat="44.05647" lon="1.66529">
        <ele>174.775402</ele>
        <time>2025-05-13T17:13:40.838Z</time>
      </trkpt>
      <trkpt lat="44.05671" lon="1.66487">
        <ele>173.33776</ele>
        <time>2025-05-13T17:13:44.635Z</time>
      </trkpt>
      <trkpt lat="44.0568" lon="1.66473">
        <ele>172.828702</ele>
        <time>2025-05-13T17:13:45.914Z</time>
      </trkpt>
      <trkpt lat="44.05658" lon="1.66455">
        <ele>171.88456</ele>
        <time>2025-05-13T17:13:48.153Z</time>
      </trkpt>
      <trkpt lat="44.05646" lon="1.6644">
        <ele>170.729263</ele>
        <time>2025-05-13T17:13:49.558Z</time>
      </trkpt>
      <trkpt lat="44.05632" lon="1.66419">
        <ele>168.105247</ele>
        <time>2025-05-13T17:13:51.243Z</time>
      </trkpt>
      <trkpt lat="44.05624" lon="1.6641">
        <ele>166.638554</ele>
        <time>2025-05-13T17:13:52.177Z</time>
      </trkpt>
      <trkpt lat="44.05612" lon="1.66409">
        <ele>165.061825</ele>
        <time>2025-05-13T17:13:53.172Z</time>
      </trkpt>
      <trkpt lat="44.05541" lon="1.66445">
        <ele>155.095492</ele>
        <time>2025-05-13T17:13:59.410Z</time>
      </trkpt>
      <trkpt lat="44.05533" lon="1.66458">
        <ele>153.505155</ele>
        <time>2025-05-13T17:14:00.414Z</time>
      </trkpt>
      <trkpt lat="44.05524" lon="1.66464">
        <ele>152.183495</ele>
        <time>2025-05-13T17:14:01.245Z</time>
      </trkpt>
      <trkpt lat="44.05523" lon="1.66461">
        <ele>151.851678</ele>
        <time>2025-05-13T17:14:01.535Z</time>
      </trkpt>
      <trkpt lat="44.05517" lon="1.66449">
        <ele>150.449635</ele>
        <time>2025-05-13T17:14:02.779Z</time>
      </trkpt>
      <trkpt lat="44.05513" lon="1.66438">
        <ele>149.284225</ele>
        <time>2025-05-13T17:14:03.815Z</time>
      </trkpt>
      <trkpt lat="44.05509" lon="1.66427">
        <ele>148.09383</ele>
        <time>2025-05-13T17:14:04.879Z</time>
      </trkpt>
      <trkpt lat="44.05499" lon="1.66413">
        <ele>146.857137</ele>
        <time>2025-05-13T17:14:06.036Z</time>
      </trkpt>
      <trkpt lat="44.05494" lon="1.66399">
        <ele>145.96699</ele>
        <time>2025-05-13T17:14:06.991Z</time>
      </trkpt>
      <trkpt lat="44.05463" lon="1.66329">
        <ele>141.289455</ele>
        <time>2025-05-13T17:14:12.121Z</time>
      </trkpt>
      <trkpt lat="44.0544" lon="1.66277">
        <ele>137.878482</ele>
        <time>2025-05-13T17:14:16.018Z</time>
      </trkpt>
      <trkpt lat="44.05421" lon="1.66235">
        <ele>135.053351</ele>
        <time>2025-05-13T17:14:19.481Z</time>
      </trkpt>
      <trkpt lat="44.05401" lon="1.66182">
        <ele>133.096583</ele>
        <time>2025-05-13T17:14:23.843Z</time>
      </trkpt>
      <trkpt lat="44.05407" lon="1.66172">
        <ele>132.923338</ele>
        <time>2025-05-13T17:14:24.813Z</time>
      </trkpt>
      <trkpt lat="44.05439" lon="1.66129">
        <ele>132.093857</ele>
        <time>2025-05-13T17:14:29.616Z</time>
      </trkpt>
      <trkpt lat="44.05523" lon="1.66033">
        <ele>130.179209</ele>
        <time>2025-05-13T17:14:42.687Z</time>
      </trkpt>
      <trkpt lat="44.05549" lon="1.66014">
        <ele>130.113184</ele>
        <time>2025-05-13T17:14:46.532Z</time>
      </trkpt>
      <trkpt lat="44.05574" lon="1.66003">
        <ele>130.055074</ele>
        <time>2025-05-13T17:14:50.273Z</time>
      </trkpt>
      <trkpt lat="44.05603" lon="1.65986">
        <ele>129.984619</ele>
        <time>2025-05-13T17:14:55.109Z</time>
      </trkpt>
      <trkpt lat="44.05664" lon="1.65941">
        <ele>129.833098</ele>
        <time>2025-05-13T17:15:06.343Z</time>
      </trkpt>
      <trkpt lat="44.05804" lon="1.65836">
        <ele>128.520616</ele>
        <time>2025-05-13T17:15:26.632Z</time>
      </trkpt>
      <trkpt lat="44.05845" lon="1.65806">
        <ele>128.063645</ele>
        <time>2025-05-13T17:15:31.894Z</time>
      </trkpt>
      <trkpt lat="44.05877" lon="1.65787">
        <ele>127.571101</ele>
        <time>2025-05-13T17:15:35.877Z</time>
      </trkpt>
      <trkpt lat="44.05937" lon="1.65768">
        <ele>126.722622</ele>
        <time>2025-05-13T17:15:42.766Z</time>
      </trkpt>
      <trkpt lat="44.0604" lon="1.65741">
        <ele>125.852209</ele>
        <time>2025-05-13T17:15:55.148Z</time>
      </trkpt>
      <trkpt lat="44.06055" lon="1.6573">
        <ele>125.958048</ele>
        <time>2025-05-13T17:15:57.389Z</time>
      </trkpt>
      <trkpt lat="44.06071" lon="1.65712">
        <ele>126.084104</ele>
        <time>2025-05-13T17:16:00.406Z</time>
      </trkpt>
      <trkpt lat="44.0609" lon="1.65677">
        <ele>126.276161</ele>
        <time>2025-05-13T17:16:05.966Z</time>
      </trkpt>
      <trkpt lat="44.06114" lon="1.65616">
        <ele>126.581504</ele>
        <time>2025-05-13T17:16:17.174Z</time>
      </trkpt>
      <trkpt lat="44.06118" lon="1.65606">
        <ele>126.631229</ele>
        <time>2025-05-13T17:16:19.353Z</time>
      </trkpt>
      <trkpt lat="44.06185" lon="1.65434">
        <ele>126.975755</ele>
        <time>2025-05-13T17:16:48.811Z</time>
      </trkpt>
      <trkpt lat="44.06267" lon="1.65496">
        <ele>127.142127</ele>
        <time>2025-05-13T17:16:58.643Z</time>
      </trkpt>
      <trkpt lat="44.06347" lon="1.65598">
        <ele>127.34741</ele>
        <time>2025-05-13T17:17:12.180Z</time>
      </trkpt>
      <trkpt lat="44.06357" lon="1.65607">
        <ele>127.370055</ele>
        <time>2025-05-13T17:17:15.765Z</time>
      </trkpt>
      <trkpt lat="44.06365" lon="1.6561">
        <ele>127.386214</ele>
        <time>2025-05-13T17:17:18.411Z</time>
      </trkpt>
      <trkpt lat="44.06378" lon="1.65606">
        <ele>127.411169</ele>
        <time>2025-05-13T17:17:22.660Z</time>
      </trkpt>
      <trkpt lat="44.06398" lon="1.65584">
        <ele>128.02135</ele>
        <time>2025-05-13T17:17:31.093Z</time>
      </trkpt>
      <trkpt lat="44.0641" lon="1.65576">
        <ele>128.448852</ele>
        <time>2025-05-13T17:17:35.779Z</time>
      </trkpt>
      <trkpt lat="44.06418" lon="1.65578">
        <ele>128.70274</ele>
        <time>2025-05-13T17:17:38.578Z</time>
      </trkpt>
      <trkpt lat="44.06437" lon="1.65591">
        <ele>129.3577</ele>
        <time>2025-05-13T17:17:45.948Z</time>
      </trkpt>
      <trkpt lat="44.06456" lon="1.65594">
        <ele>129.982224</ele>
        <time>2025-05-13T17:17:52.630Z</time>
      </trkpt>
      <trkpt lat="44.0647" lon="1.65602">
        <ele>130.466222</ele>
        <time>2025-05-13T17:17:57.683Z</time>
      </trkpt>
      <trkpt lat="44.06483" lon="1.65618">
        <ele>131.005541</ele>
        <time>2025-05-13T17:18:03.168Z</time>
      </trkpt>
      <trkpt lat="44.06514" lon="1.6568">
        <ele>132.72707</ele>
        <time>2025-05-13T17:18:17.739Z</time>
      </trkpt>
      <trkpt lat="44.06517" lon="1.65692">
        <ele>133.023225</ele>
        <time>2025-05-13T17:18:19.497Z</time>
      </trkpt>
      <trkpt lat="44.06515" lon="1.65708">
        <ele>132.7609</ele>
        <time>2025-05-13T17:18:21.277Z</time>
      </trkpt>
      <trkpt lat="44.06497" lon="1.65759">
        <ele>131.05018</ele>
        <time>2025-05-13T17:18:26.097Z</time>
      </trkpt>
      <trkpt lat="44.06491" lon="1.65789">
        <ele>130.134211</ele>
        <time>2025-05-13T17:18:28.333Z</time>
      </trkpt>
      <trkpt lat="44.06482" lon="1.65965">
        <ele>125.043717</ele>
        <time>2025-05-13T17:18:39.797Z</time>
      </trkpt>
      <trkpt lat="44.06473" lon="1.66004">
        <ele>124.096202</ele>
        <time>2025-05-13T17:18:42.460Z</time>
      </trkpt>
      <trkpt lat="44.06458" lon="1.66049">
        <ele>122.950575</ele>
        <time>2025-05-13T17:18:45.794Z</time>
      </trkpt>
      <trkpt lat="44.06458" lon="1.66068">
        <ele>122.516674</ele>
        <time>2025-05-13T17:18:47.098Z</time>
      </trkpt>
      <trkpt lat="44.06452" lon="1.66076">
        <ele>122.255783</ele>
        <time>2025-05-13T17:18:47.900Z</time>
      </trkpt>
      <trkpt lat="44.06319" lon="1.6628">
        <ele>120.036216</ele>
        <time>2025-05-13T17:19:21.845Z</time>
      </trkpt>
      <trkpt lat="44.06291" lon="1.66317">
        <ele>120.083035</ele>
        <time>2025-05-13T17:19:27.565Z</time>
      </trkpt>
      <trkpt lat="44.0625" lon="1.66366">
        <ele>119.756961</ele>
        <time>2025-05-13T17:19:33.969Z</time>
      </trkpt>
      <trkpt lat="44.06185" lon="1.66428">
        <ele>119.003269</ele>
        <time>2025-05-13T17:19:42.596Z</time>
      </trkpt>
      <trkpt lat="44.06144" lon="1.6646">
        <ele>118.551193</ele>
        <time>2025-05-13T17:19:48.489Z</time>
      </trkpt>
      <trkpt lat="44.06104" lon="1.66486">
        <ele>119.047809</ele>
        <time>2025-05-13T17:19:55.950Z</time>
      </trkpt>
      <trkpt lat="44.06044" lon="1.66516">
        <ele>120.594329</ele>
        <time>2025-05-13T17:20:10.798Z</time>
      </trkpt>
      <trkpt lat="44.06034" lon="1.6652">
        <ele>120.852119</ele>
        <time>2025-05-13T17:20:13.700Z</time>
      </trkpt>
      <trkpt lat="44.05849" lon="1.66587">
        <ele>124.838292</ele>
        <time>2025-05-13T17:21:10.476Z</time>
      </trkpt>
      <trkpt lat="44.05829" lon="1.66594">
        <ele>125.215839</ele>
        <time>2025-05-13T17:21:15.406Z</time>
      </trkpt>
      <trkpt lat="44.05812" lon="1.66602">
        <ele>125.544909</ele>
        <time>2025-05-13T17:21:18.892Z</time>
      </trkpt>
      <trkpt lat="44.05779" lon="1.66621">
        <ele>125.531183</ele>
        <time>2025-05-13T17:21:23.194Z</time>
      </trkpt>
      <trkpt lat="44.05738" lon="1.66654">
        <ele>121.617212</ele>
        <time>2025-05-13T17:21:27.652Z</time>
      </trkpt>
      <trkpt lat="44.05712" lon="1.66684">
        <ele>118.889717</ele>
        <time>2025-05-13T17:21:30.594Z</time>
      </trkpt>
      <trkpt lat="44.05687" lon="1.66721">
        <ele>115.890196</ele>
        <time>2025-05-13T17:21:33.703Z</time>
      </trkpt>
      <trkpt lat="44.05661" lon="1.66773">
        <ele>112.16409</ele>
        <time>2025-05-13T17:21:37.507Z</time>
      </trkpt>
      <trkpt lat="44.05649" lon="1.66809">
        <ele>110.526782</ele>
        <time>2025-05-13T17:21:39.934Z</time>
      </trkpt>
      <trkpt lat="44.05639" lon="1.66846">
        <ele>109.327002</ele>
        <time>2025-05-13T17:21:42.378Z</time>
      </trkpt>
      <trkpt lat="44.0563" lon="1.6691">
        <ele>107.359732</ele>
        <time>2025-05-13T17:21:46.583Z</time>
      </trkpt>
      <trkpt lat="44.05628" lon="1.66943">
        <ele>106.353072</ele>
        <time>2025-05-13T17:21:49.047Z</time>
      </trkpt>
      <trkpt lat="44.05628" lon="1.66956">
        <ele>105.960326</ele>
        <time>2025-05-13T17:21:50.211Z</time>
      </trkpt>
      <trkpt lat="44.05633" lon="1.67039">
        <ele>104.20538</ele>
        <time>2025-05-13T17:22:04.752Z</time>
      </trkpt>
      <trkpt lat="44.0564" lon="1.67071">
        <ele>105.874645</ele>
        <time>2025-05-13T17:22:13.325Z</time>
      </trkpt>
      <trkpt lat="44.05645" lon="1.67091">
        <ele>106.954946</ele>
        <time>2025-05-13T17:22:20.346Z</time>
      </trkpt>
      <trkpt lat="44.05658" lon="1.67129">
        <ele>109.038976</ele>
        <time>2025-05-13T17:22:36.134Z</time>
      </trkpt>
      <trkpt lat="44.05686" lon="1.6719">
        <ele>112.716373</ele>
        <time>2025-05-13T17:23:05.776Z</time>
      </trkpt>
      <trkpt lat="44.05697" lon="1.67209">
        <ele>113.93127</ele>
        <time>2025-05-13T17:23:15.306Z</time>
      </trkpt>
      <trkpt lat="44.05716" lon="1.67236">
        <ele>115.844871</ele>
        <time>2025-05-13T17:23:27.609Z</time>
      </trkpt>
      <trkpt lat="44.05758" lon="1.67281">
        <ele>115.691618</ele>
        <time>2025-05-13T17:23:42.583Z</time>
      </trkpt>
      <trkpt lat="44.05782" lon="1.67299">
        <ele>115.314485</ele>
        <time>2025-05-13T17:23:46.002Z</time>
      </trkpt>
      <trkpt lat="44.05847" lon="1.67335">
        <ele>114.34187</ele>
        <time>2025-05-13T17:23:52.547Z</time>
      </trkpt>
      <trkpt lat="44.05884" lon="1.67347">
        <ele>113.81045</ele>
        <time>2025-05-13T17:23:55.976Z</time>
      </trkpt>
      <trkpt lat="44.06225" lon="1.67448">
        <ele>111.281466</ele>
        <time>2025-05-13T17:24:41.963Z</time>
      </trkpt>
      <trkpt lat="44.06266" lon="1.67464">
        <ele>112.588081</ele>
        <time>2025-05-13T17:24:51.177Z</time>
      </trkpt>
      <trkpt lat="44.06307" lon="1.67489">
        <ele>114.389945</ele>
        <time>2025-05-13T17:25:02.389Z</time>
      </trkpt>
      <trkpt lat="44.06321" lon="1.675">
        <ele>115.055626</ele>
        <time>2025-05-13T17:25:07.141Z</time>
      </trkpt>
      <trkpt lat="44.0636" lon="1.6754">
        <ele>117.009377</ele>
        <time>2025-05-13T17:25:24.015Z</time>
      </trkpt>
      <trkpt lat="44.06394" lon="1.67588">
        <ele>118.89543</ele>
        <time>2025-05-13T17:25:44.835Z</time>
      </trkpt>
      <trkpt lat="44.06436" lon="1.67671">
        <ele>121.62359</ele>
        <time>2025-05-13T17:26:19.548Z</time>
      </trkpt>
      <trkpt lat="44.06452" lon="1.67711">
        <ele>122.855345</ele>
        <time>2025-05-13T17:26:30.260Z</time>
      </trkpt>
      <trkpt lat="44.06465" lon="1.6775">
        <ele>123.995676</ele>
        <time>2025-05-13T17:26:36.919Z</time>
      </trkpt>
      <trkpt lat="44.06479" lon="1.67825">
        <ele>124.196482</ele>
        <time>2025-05-13T17:26:42.930Z</time>
      </trkpt>
      <trkpt lat="44.06482" lon="1.67907">
        <ele>121.655901</ele>
        <time>2025-05-13T17:26:48.306Z</time>
      </trkpt>
      <trkpt lat="44.06475" lon="1.67975">
        <ele>119.558973</ele>
        <time>2025-05-13T17:26:52.663Z</time>
      </trkpt>
      <trkpt lat="44.06466" lon="1.68019">
        <ele>118.142747</ele>
        <time>2025-05-13T17:26:55.812Z</time>
      </trkpt>
      <trkpt lat="44.06456" lon="1.68055">
        <ele>118.042332</ele>
        <time>2025-05-13T17:26:58.943Z</time>
      </trkpt>
      <trkpt lat="44.06443" lon="1.6809">
        <ele>119.283639</ele>
        <time>2025-05-13T17:27:03.831Z</time>
      </trkpt>
      <trkpt lat="44.06428" lon="1.68122">
        <ele>120.453552</ele>
        <time>2025-05-13T17:27:10.471Z</time>
      </trkpt>
      <trkpt lat="44.06306" lon="1.6833">
        <ele>129.983512</ele>
        <time>2025-05-13T17:28:37.485Z</time>
      </trkpt>
      <trkpt lat="44.06263" lon="1.68408">
        <ele>134.015957</ele>
        <time>2025-05-13T17:29:04.068Z</time>
      </trkpt>
      <trkpt lat="44.06237" lon="1.68461">
        <ele>135.798137</ele>
        <time>2025-05-13T17:29:15.245Z</time>
      </trkpt>
      <trkpt lat="44.06211" lon="1.68537">
        <ele>136.502485</ele>
        <time>2025-05-13T17:29:26.327Z</time>
      </trkpt>
      <trkpt lat="44.06192" lon="1.68607">
        <ele>137.122562</ele>
        <time>2025-05-13T17:29:35.541Z</time>
      </trkpt>
      <trkpt lat="44.06183" lon="1.68662">
        <ele>137.597122</ele>
        <time>2025-05-13T17:29:42.990Z</time>
      </trkpt>
      <trkpt lat="44.06177" lon="1.68724">
        <ele>136.715055</ele>
        <time>2025-05-13T17:29:50.733Z</time>
      </trkpt>
      <trkpt lat="44.06176" lon="1.68823">
        <ele>134.922458</ele>
        <time>2025-05-13T17:29:58.978Z</time>
      </trkpt>
      <trkpt lat="44.06184" lon="1.68935">
        <ele>132.686894</ele>
        <time>2025-05-13T17:30:06.491Z</time>
      </trkpt>
      <trkpt lat="44.06192" lon="1.69003">
        <ele>130.444678</ele>
        <time>2025-05-13T17:30:11.037Z</time>
      </trkpt>
      <trkpt lat="44.06207" lon="1.69079">
        <ele>127.881707</ele>
        <time>2025-05-13T17:30:16.479Z</time>
      </trkpt>
      <trkpt lat="44.06225" lon="1.69154">
        <ele>125.308919</ele>
        <time>2025-05-13T17:30:22.173Z</time>
      </trkpt>
      <trkpt lat="44.0625" lon="1.69236">
        <ele>122.698255</ele>
        <time>2025-05-13T17:30:28.607Z</time>
      </trkpt>
      <trkpt lat="44.06253" lon="1.69243">
        <ele>122.451734</ele>
        <time>2025-05-13T17:30:29.187Z</time>
      </trkpt>
      <trkpt lat="44.06328" lon="1.69405">
        <ele>117.462557</ele>
        <time>2025-05-13T17:30:42.451Z</time>
      </trkpt>
      <trkpt lat="44.06342" lon="1.69441">
        <ele>117.038339</ele>
        <time>2025-05-13T17:30:45.402Z</time>
      </trkpt>
      <trkpt lat="44.06351" lon="1.69469">
        <ele>116.713723</ele>
        <time>2025-05-13T17:30:47.727Z</time>
      </trkpt>
      <trkpt lat="44.06384" lon="1.69603">
        <ele>115.243541</ele>
        <time>2025-05-13T17:31:01.463Z</time>
      </trkpt>
      <trkpt lat="44.06393" lon="1.69633">
        <ele>115.330669</ele>
        <time>2025-05-13T17:31:06.474Z</time>
      </trkpt>
      <trkpt lat="44.06419" lon="1.697">
        <ele>115.786653</ele>
        <time>2025-05-13T17:31:19.330Z</time>
      </trkpt>
      <trkpt lat="44.06432" lon="1.69727">
        <ele>115.985695</ele>
        <time>2025-05-13T17:31:25.008Z</time>
      </trkpt>
      <trkpt lat="44.06456" lon="1.69768">
        <ele>116.307685</ele>
        <time>2025-05-13T17:31:34.284Z</time>
      </trkpt>
      <trkpt lat="44.06563" lon="1.69909">
        <ele>114.59126</ele>
        <time>2025-05-13T17:31:51.054Z</time>
      </trkpt>
      <trkpt lat="44.06592" lon="1.69941">
        <ele>113.852296</ele>
        <time>2025-05-13T17:31:54.686Z</time>
      </trkpt>
      <trkpt lat="44.0664" lon="1.69979">
        <ele>112.632139</ele>
        <time>2025-05-13T17:32:00.530Z</time>
      </trkpt>
      <trkpt lat="44.06697" lon="1.7001">
        <ele>111.002082</ele>
        <time>2025-05-13T17:32:06.981Z</time>
      </trkpt>
      <trkpt lat="44.0675" lon="1.70025">
        <ele>109.575461</ele>
        <time>2025-05-13T17:32:12.851Z</time>
      </trkpt>
      <trkpt lat="44.06783" lon="1.70029">
        <ele>108.685786</ele>
        <time>2025-05-13T17:32:16.442Z</time>
      </trkpt>
      <trkpt lat="44.0684" lon="1.70026">
        <ele>107.310804</ele>
        <time>2025-05-13T17:32:22.000Z</time>
      </trkpt>
      <trkpt lat="44.06883" lon="1.70016">
        <ele>106.276688</ele>
        <time>2025-05-13T17:32:26.289Z</time>
      </trkpt>
      <trkpt lat="44.06993" lon="1.6998">
        <ele>104.598037</ele>
        <time>2025-05-13T17:32:39.018Z</time>
      </trkpt>
      <trkpt lat="44.07015" lon="1.69975">
        <ele>105.352525</ele>
        <time>2025-05-13T17:32:42.961Z</time>
      </trkpt>
      <trkpt lat="44.07069" lon="1.6998">
        <ele>107.158412</ele>
        <time>2025-05-13T17:32:56.988Z</time>
      </trkpt>
      <trkpt lat="44.07097" lon="1.69986">
        <ele>108.085298</ele>
        <time>2025-05-13T17:33:06.701Z</time>
      </trkpt>
      <trkpt lat="44.0713" lon="1.70003">
        <ele>109.274246</ele>
        <time>2025-05-13T17:33:20.324Z</time>
      </trkpt>
      <trkpt lat="44.07172" lon="1.70031">
        <ele>111.29717</ele>
        <time>2025-05-13T17:33:39.495Z</time>
      </trkpt>
      <trkpt lat="44.07209" lon="1.70068">
        <ele>113.71377</ele>
        <time>2025-05-13T17:33:59.035Z</time>
      </trkpt>
      <trkpt lat="44.07236" lon="1.70107">
        <ele>115.789849</ele>
        <time>2025-05-13T17:34:15.320Z</time>
      </trkpt>
      <trkpt lat="44.07253" lon="1.70139">
        <ele>117.310626</ele>
        <time>2025-05-13T17:34:24.853Z</time>
      </trkpt>
      <trkpt lat="44.07276" lon="1.70196">
        <ele>119.705847</ele>
        <time>2025-05-13T17:34:37.292Z</time>
      </trkpt>
      <trkpt lat="44.07291" lon="1.70253">
        <ele>121.039151</ele>
        <time>2025-05-13T17:34:47.834Z</time>
      </trkpt>
      <trkpt lat="44.07302" lon="1.70311">
        <ele>122.327223</ele>
        <time>2025-05-13T17:34:58.352Z</time>
      </trkpt>
      <trkpt lat="44.07309" lon="1.70386">
        <ele>123.952937</ele>
        <time>2025-05-13T17:35:12.390Z</time>
      </trkpt>
      <trkpt lat="44.07309" lon="1.70452">
        <ele>125.501481</ele>
        <time>2025-05-13T17:35:26.252Z</time>
      </trkpt>
      <trkpt lat="44.07307" lon="1.70501">
        <ele>126.915261</ele>
        <time>2025-05-13T17:35:37.822Z</time>
      </trkpt>
      <trkpt lat="44.07298" lon="1.70582">
        <ele>129.274611</ele>
        <time>2025-05-13T17:35:58.239Z</time>
      </trkpt>
      <trkpt lat="44.07282" lon="1.70664">
        <ele>131.730286</ele>
        <time>2025-05-13T17:36:17.388Z</time>
      </trkpt>
      <trkpt lat="44.07271" lon="1.70706">
        <ele>132.226794</ele>
        <time>2025-05-13T17:36:26.123Z</time>
      </trkpt>
      <trkpt lat="44.07248" lon="1.7077">
        <ele>132.212132</ele>
        <time>2025-05-13T17:36:37.817Z</time>
      </trkpt>
      <trkpt lat="44.07208" lon="1.70862">
        <ele>132.190454</ele>
        <time>2025-05-13T17:36:47.529Z</time>
      </trkpt>
      <trkpt lat="44.07082" lon="1.71127">
        <ele>125.566531</ele>
        <time>2025-05-13T17:37:10.254Z</time>
      </trkpt>
      <trkpt lat="44.07065" lon="1.71174">
        <ele>124.545088</ele>
        <time>2025-05-13T17:37:14.133Z</time>
      </trkpt>
      <trkpt lat="44.07052" lon="1.71221">
        <ele>123.568857</ele>
        <time>2025-05-13T17:37:17.888Z</time>
      </trkpt>
      <trkpt lat="44.07044" lon="1.71266">
        <ele>122.66391</ele>
        <time>2025-05-13T17:37:21.549Z</time>
      </trkpt>
      <trkpt lat="44.07039" lon="1.71346">
        <ele>121.094954</ele>
        <time>2025-05-13T17:37:27.834Z</time>
      </trkpt>
      <trkpt lat="44.07043" lon="1.71397">
        <ele>120.009939</ele>
        <time>2025-05-13T17:37:31.621Z</time>
      </trkpt>
      <trkpt lat="44.07052" lon="1.71449">
        <ele>118.896611</ele>
        <time>2025-05-13T17:37:35.397Z</time>
      </trkpt>
      <trkpt lat="44.07063" lon="1.7149">
        <ele>117.975676</ele>
        <time>2025-05-13T17:37:38.532Z</time>
      </trkpt>
      <trkpt lat="44.07085" lon="1.71546">
        <ele>116.626623</ele>
        <time>2025-05-13T17:37:43.332Z</time>
      </trkpt>
      <trkpt lat="44.07113" lon="1.71597">
        <ele>115.626001</ele>
        <time>2025-05-13T17:37:48.184Z</time>
      </trkpt>
      <trkpt lat="44.07145" lon="1.71641">
        <ele>115.038289</ele>
        <time>2025-05-13T17:37:53.153Z</time>
      </trkpt>
      <trkpt lat="44.07158" lon="1.71655">
        <ele>114.830337</ele>
        <time>2025-05-13T17:37:55.062Z</time>
      </trkpt>
      <trkpt lat="44.07212" lon="1.71696">
        <ele>114.024803</ele>
        <time>2025-05-13T17:38:03.397Z</time>
      </trkpt>
      <trkpt lat="44.0724" lon="1.71713">
        <ele>113.61923</ele>
        <time>2025-05-13T17:38:07.478Z</time>
      </trkpt>
      <trkpt lat="44.07301" lon="1.71741">
        <ele>113.050619</ele>
        <time>2025-05-13T17:38:15.010Z</time>
      </trkpt>
      <trkpt lat="44.07335" lon="1.71753">
        <ele>112.758243</ele>
        <time>2025-05-13T17:38:18.931Z</time>
      </trkpt>
      <trkpt lat="44.07358" lon="1.71757">
        <ele>112.561003</ele>
        <time>2025-05-13T17:38:21.743Z</time>
      </trkpt>
      <trkpt lat="44.07445" lon="1.71765">
        <ele>112.095371</ele>
        <time>2025-05-13T17:38:33.892Z</time>
      </trkpt>
      <trkpt lat="44.07484" lon="1.71767">
        <ele>112.196077</ele>
        <time>2025-05-13T17:38:40.078Z</time>
      </trkpt>
      <trkpt lat="44.07503" lon="1.71769">
        <ele>112.244761</ele>
        <time>2025-05-13T17:38:43.151Z</time>
      </trkpt>
      <trkpt lat="44.07564" lon="1.71773">
        <ele>112.402472</ele>
        <time>2025-05-13T17:38:53.843Z</time>
      </trkpt>
      <trkpt lat="44.0762" lon="1.71781">
        <ele>112.829693</ele>
        <time>2025-05-13T17:39:02.462Z</time>
      </trkpt>
      <trkpt lat="44.07655" lon="1.71795">
        <ele>113.415605</ele>
        <time>2025-05-13T17:39:08.679Z</time>
      </trkpt>
      <trkpt lat="44.07687" lon="1.71811">
        <ele>113.960058</ele>
        <time>2025-05-13T17:39:14.997Z</time>
      </trkpt>
      <trkpt lat="44.07727" lon="1.71837">
        <ele>114.687214</ele>
        <time>2025-05-13T17:39:24.911Z</time>
      </trkpt>
      <trkpt lat="44.07757" lon="1.71863">
        <ele>115.261747</ele>
        <time>2025-05-13T17:39:34.127Z</time>
      </trkpt>
      <trkpt lat="44.07799" lon="1.71908">
        <ele>116.511467</ele>
        <time>2025-05-13T17:39:49.617Z</time>
      </trkpt>
      <trkpt lat="44.0782" lon="1.71939">
        <ele>117.29898</ele>
        <time>2025-05-13T17:39:58.279Z</time>
      </trkpt>
      <trkpt lat="44.07876" lon="1.72037">
        <ele>119.582478</ele>
        <time>2025-05-13T17:40:19.712Z</time>
      </trkpt>
      <trkpt lat="44.07908" lon="1.721">
        <ele>120.515227</ele>
        <time>2025-05-13T17:40:31.833Z</time>
      </trkpt>
      <trkpt lat="44.07928" lon="1.72154">
        <ele>121.090675</ele>
        <time>2025-05-13T17:40:40.683Z</time>
      </trkpt>
      <trkpt lat="44.07941" lon="1.72197">
        <ele>121.533941</ele>
        <time>2025-05-13T17:40:46.834Z</time>
      </trkpt>
      <trkpt lat="44.07955" lon="1.72272">
        <ele>122.269033</ele>
        <time>2025-05-13T17:40:57.203Z</time>
      </trkpt>
      <trkpt lat="44.07978" lon="1.72498">
        <ele>123.85199</ele>
        <time>2025-05-13T17:41:29.612Z</time>
      </trkpt>
      <trkpt lat="44.07979" lon="1.72526">
        <ele>124.043506</ele>
        <time>2025-05-13T17:41:35.543Z</time>
      </trkpt>
      <trkpt lat="44.07976" lon="1.72595">
        <ele>121.707204</ele>
        <time>2025-05-13T17:41:41.643Z</time>
      </trkpt>
      <trkpt lat="44.07971" lon="1.72635">
        <ele>120.219753</ele>
        <time>2025-05-13T17:41:44.396Z</time>
      </trkpt>
      <trkpt lat="44.07965" lon="1.7267">
        <ele>118.923439</ele>
        <time>2025-05-13T17:41:46.691Z</time>
      </trkpt>
      <trkpt lat="44.07972" lon="1.72674">
        <ele>118.508004</ele>
        <time>2025-05-13T17:41:47.416Z</time>
      </trkpt>
      <trkpt lat="44.07986" lon="1.72683">
        <ele>117.747107</ele>
        <time>2025-05-13T17:41:48.744Z</time>
      </trkpt>
      <trkpt lat="44.08052" lon="1.72724">
        <ele>114.346333</ele>
        <time>2025-05-13T17:41:55.127Z</time>
      </trkpt>
      <trkpt lat="44.08096" lon="1.72751">
        <ele>112.806253</ele>
        <time>2025-05-13T17:41:59.306Z</time>
      </trkpt>
      <trkpt lat="44.08092" lon="1.72867">
        <ele>110.109675</ele>
        <time>2025-05-13T17:42:09.487Z</time>
      </trkpt>
      <trkpt lat="44.08098" lon="1.73014">
        <ele>110.233623</ele>
        <time>2025-05-13T17:42:31.179Z</time>
      </trkpt>
      <trkpt lat="44.08105" lon="1.73054">
        <ele>110.69149</ele>
        <time>2025-05-13T17:42:37.483Z</time>
      </trkpt>
      <trkpt lat="44.08142" lon="1.73159">
        <ele>111.995983</ele>
        <time>2025-05-13T17:42:56.319Z</time>
      </trkpt>
      <trkpt lat="44.08172" lon="1.73261">
        <ele>113.257833</ele>
        <time>2025-05-13T17:43:14.399Z</time>
      </trkpt>
      <trkpt lat="44.08177" lon="1.73269">
        <ele>113.375391</ele>
        <time>2025-05-13T17:43:16.071Z</time>
      </trkpt>
      <trkpt lat="44.08234" lon="1.73363">
        <ele>114.743343</ele>
        <time>2025-05-13T17:43:34.280Z</time>
      </trkpt>
      <trkpt lat="44.08264" lon="1.73409">
        <ele>114.982541</ele>
        <time>2025-05-13T17:43:41.643Z</time>
      </trkpt>
      <trkpt lat="44.08313" lon="1.73456">
        <ele>115.305597</ele>
        <time>2025-05-13T17:43:50.991Z</time>
      </trkpt>
      <trkpt lat="44.08335" lon="1.73476">
        <ele>115.448498</ele>
        <time>2025-05-13T17:43:55.101Z</time>
      </trkpt>
      <trkpt lat="44.08354" lon="1.73493">
        <ele>115.570276</ele>
        <time>2025-05-13T17:43:58.651Z</time>
      </trkpt>
      <trkpt lat="44.0837" lon="1.73502">
        <ele>115.661593</ele>
        <time>2025-05-13T17:44:01.327Z</time>
      </trkpt>
      <trkpt lat="44.08395" lon="1.73505">
        <ele>116.013453</ele>
        <time>2025-05-13T17:44:05.516Z</time>
      </trkpt>
      <trkpt lat="44.08526" lon="1.73468">
        <ele>118.284035</ele>
        <time>2025-05-13T17:44:33.341Z</time>
      </trkpt>
      <trkpt lat="44.08557" lon="1.73454">
        <ele>118.932087</ele>
        <time>2025-05-13T17:44:42.596Z</time>
      </trkpt>
      <trkpt lat="44.08602" lon="1.73424">
        <ele>120.732856</ele>
        <time>2025-05-13T17:44:57.146Z</time>
      </trkpt>
      <trkpt lat="44.0864" lon="1.7339">
        <ele>122.370662</ele>
        <time>2025-05-13T17:45:10.624Z</time>
      </trkpt>
      <trkpt lat="44.08701" lon="1.73328">
        <ele>125.079309</ele>
        <time>2025-05-13T17:45:33.508Z</time>
      </trkpt>
      <trkpt lat="44.08736" lon="1.73273">
        <ele>126.820458</ele>
        <time>2025-05-13T17:45:49.803Z</time>
      </trkpt>
      <trkpt lat="44.08791" lon="1.73159">
        <ele>129.998784</ele>
        <time>2025-05-13T17:46:18.286Z</time>
      </trkpt>
      <trkpt lat="44.08834" lon="1.73037">
        <ele>132.333886</ele>
        <time>2025-05-13T17:46:39.780Z</time>
      </trkpt>
      <trkpt lat="44.08862" lon="1.72949">
        <ele>133.699913</ele>
        <time>2025-05-13T17:46:53.894Z</time>
      </trkpt>
      <trkpt lat="44.08892" lon="1.7283">
        <ele>136.227896</ele>
        <time>2025-05-13T17:47:15.812Z</time>
      </trkpt>
      <trkpt lat="44.08949" lon="1.72582">
        <ele>143.045002</ele>
        <time>2025-05-13T17:48:14.327Z</time>
      </trkpt>
      <trkpt lat="44.08973" lon="1.72496">
        <ele>145.523831</ele>
        <time>2025-05-13T17:48:37.518Z</time>
      </trkpt>
      <trkpt lat="44.09005" lon="1.72398">
        <ele>147.726811</ele>
        <time>2025-05-13T17:48:57.494Z</time>
      </trkpt>
      <trkpt lat="44.0903" lon="1.72341">
        <ele>147.366019</ele>
        <time>2025-05-13T17:49:06.278Z</time>
      </trkpt>
      <trkpt lat="44.09051" lon="1.723">
        <ele>147.086777</ele>
        <time>2025-05-13T17:49:11.548Z</time>
      </trkpt>
      <trkpt lat="44.09104" lon="1.72232">
        <ele>146.538449</ele>
        <time>2025-05-13T17:49:19.391Z</time>
      </trkpt>
      <trkpt lat="44.09151" lon="1.72194">
        <ele>143.622654</ele>
        <time>2025-05-13T17:49:24.543Z</time>
      </trkpt>
      <trkpt lat="44.09193" lon="1.72167">
        <ele>140.731132</ele>
        <time>2025-05-13T17:49:28.674Z</time>
      </trkpt>
      <trkpt lat="44.09242" lon="1.72154">
        <ele>137.617591</ele>
        <time>2025-05-13T17:49:33.048Z</time>
      </trkpt>
      <trkpt lat="44.09297" lon="1.72154">
        <ele>135.065813</ele>
        <time>2025-05-13T17:49:38.008Z</time>
      </trkpt>
      <trkpt lat="44.09366" lon="1.72161">
        <ele>134.189391</ele>
        <time>2025-05-13T17:49:45.322Z</time>
      </trkpt>
      <trkpt lat="44.09444" lon="1.72177">
        <ele>133.172769</ele>
        <time>2025-05-13T17:50:00.695Z</time>
      </trkpt>
      <trkpt lat="44.09571" lon="1.72216">
        <ele>137.13535</ele>
        <time>2025-05-13T17:50:31.324Z</time>
      </trkpt>
      <trkpt lat="44.09639" lon="1.72228">
        <ele>139.861989</ele>
        <time>2025-05-13T17:50:55.492Z</time>
      </trkpt>
      <trkpt lat="44.09684" lon="1.72233">
        <ele>143.988732</ele>
        <time>2025-05-13T17:51:17.330Z</time>
      </trkpt>
      <trkpt lat="44.09706" lon="1.7223">
        <ele>145.953501</ele>
        <time>2025-05-13T17:51:28.948Z</time>
      </trkpt>
      <trkpt lat="44.09742" lon="1.72207">
        <ele>149.607718</ele>
        <time>2025-05-13T17:51:51.343Z</time>
      </trkpt>
      <trkpt lat="44.09755" lon="1.722">
        <ele>150.900004</ele>
        <time>2025-05-13T17:51:59.556Z</time>
      </trkpt>
      <trkpt lat="44.09773" lon="1.72196">
        <ele>152.531539</ele>
        <time>2025-05-13T17:52:10.035Z</time>
      </trkpt>
      <trkpt lat="44.09979" lon="1.72214">
        <ele>172.272894</ele>
        <time>2025-05-13T17:54:02.509Z</time>
      </trkpt>
      <trkpt lat="44.10022" lon="1.72218">
        <ele>175.241759</ele>
        <time>2025-05-13T17:54:22.940Z</time>
      </trkpt>
      <trkpt lat="44.10032" lon="1.72217">
        <ele>175.895226</ele>
        <time>2025-05-13T17:54:27.787Z</time>
      </trkpt>
      <trkpt lat="44.1004" lon="1.7221">
        <ele>176.428913</ele>
        <time>2025-05-13T17:54:31.747Z</time>
      </trkpt>
      <trkpt lat="44.10045" lon="1.72201">
        <ele>176.977475</ele>
        <time>2025-05-13T17:54:35.557Z</time>
      </trkpt>
      <trkpt lat="44.1006" lon="1.72152">
        <ele>179.314248</ele>
        <time>2025-05-13T17:54:51.425Z</time>
      </trkpt>
      <trkpt lat="44.10134" lon="1.72012">
        <ele>184.089142</ele>
        <time>2025-05-13T17:55:31.731Z</time>
      </trkpt>
      <trkpt lat="44.1015" lon="1.7198">
        <ele>183.960331</ele>
        <time>2025-05-13T17:55:36.972Z</time>
      </trkpt>
      <trkpt lat="44.1017" lon="1.71926">
        <ele>183.753392</ele>
        <time>2025-05-13T17:55:42.804Z</time>
      </trkpt>
      <trkpt lat="44.10202" lon="1.7186">
        <ele>183.487713</ele>
        <time>2025-05-13T17:55:48.501Z</time>
      </trkpt>
      <trkpt lat="44.10226" lon="1.71825">
        <ele>182.240756</ele>
        <time>2025-05-13T17:55:51.694Z</time>
      </trkpt>
      <trkpt lat="44.10245" lon="1.71808">
        <ele>181.285116</ele>
        <time>2025-05-13T17:55:53.669Z</time>
      </trkpt>
      <trkpt lat="44.10275" lon="1.71791">
        <ele>179.861909</ele>
        <time>2025-05-13T17:55:56.620Z</time>
      </trkpt>
      <trkpt lat="44.10308" lon="1.71754">
        <ele>178.019375</ele>
        <time>2025-05-13T17:56:00.490Z</time>
      </trkpt>
      <trkpt lat="44.10324" lon="1.71742">
        <ele>177.209187</ele>
        <time>2025-05-13T17:56:02.293Z</time>
      </trkpt>
      <trkpt lat="44.1035" lon="1.71739">
        <ele>176.07462</ele>
        <time>2025-05-13T17:56:05.019Z</time>
      </trkpt>
      <trkpt lat="44.10356" lon="1.71735">
        <ele>175.776649</ele>
        <time>2025-05-13T17:56:05.821Z</time>
      </trkpt>
      <trkpt lat="44.1036" lon="1.71726">
        <ele>175.523778</ele>
        <time>2025-05-13T17:56:06.709Z</time>
      </trkpt>
      <trkpt lat="44.1036" lon="1.71717">
        <ele>175.386653</ele>
        <time>2025-05-13T17:56:07.638Z</time>
      </trkpt>
      <trkpt lat="44.10356" lon="1.71709">
        <ele>175.247081</ele>
        <time>2025-05-13T17:56:08.603Z</time>
      </trkpt>
      <trkpt lat="44.10353" lon="1.71688">
        <ele>174.932738</ele>
        <time>2025-05-13T17:56:11.344Z</time>
      </trkpt>
      <trkpt lat="44.10364" lon="1.71593">
        <ele>173.552329</ele>
        <time>2025-05-13T17:56:25.469Z</time>
      </trkpt>
      <trkpt lat="44.1037" lon="1.71577">
        <ele>173.290208</ele>
        <time>2025-05-13T17:56:27.399Z</time>
      </trkpt>
      <trkpt lat="44.10382" lon="1.71564">
        <ele>172.970977</ele>
        <time>2025-05-13T17:56:29.407Z</time>
      </trkpt>
      <trkpt lat="44.10393" lon="1.71559">
        <ele>172.748381</ele>
        <time>2025-05-13T17:56:30.662Z</time>
      </trkpt>
      <trkpt lat="44.10404" lon="1.71547">
        <ele>172.46026</ele>
        <time>2025-05-13T17:56:32.128Z</time>
      </trkpt>
      <trkpt lat="44.10408" lon="1.71532">
        <ele>172.238718</ele>
        <time>2025-05-13T17:56:33.179Z</time>
      </trkpt>
      <trkpt lat="44.1041" lon="1.71504">
        <ele>171.025061</ele>
        <time>2025-05-13T17:56:35.035Z</time>
      </trkpt>
      <trkpt lat="44.10417" lon="1.71493">
        <ele>169.681804</ele>
        <time>2025-05-13T17:56:35.935Z</time>
      </trkpt>
      <trkpt lat="44.10472" lon="1.71459">
        <ele>161.750316</ele>
        <time>2025-05-13T17:56:41.056Z</time>
      </trkpt>
      <trkpt lat="44.10482" lon="1.71452">
        <ele>160.303669</ele>
        <time>2025-05-13T17:56:41.973Z</time>
      </trkpt>
      <trkpt lat="44.10498" lon="1.71431">
        <ele>157.439091</ele>
        <time>2025-05-13T17:56:43.786Z</time>
      </trkpt>
      <trkpt lat="44.10506" lon="1.71428">
        <ele>156.313538</ele>
        <time>2025-05-13T17:56:44.502Z</time>
      </trkpt>
      <trkpt lat="44.10525" lon="1.71431">
        <ele>153.82994</ele>
        <time>2025-05-13T17:56:46.072Z</time>
      </trkpt>
      <trkpt lat="44.10555" lon="1.71421">
        <ele>149.804618</ele>
        <time>2025-05-13T17:56:48.611Z</time>
      </trkpt>
      <trkpt lat="44.10706" lon="1.71427">
        <ele>130.33829</ele>
        <time>2025-05-13T17:57:01.196Z</time>
      </trkpt>
      <trkpt lat="44.10731" lon="1.71439">
        <ele>126.967423</ele>
        <time>2025-05-13T17:57:03.464Z</time>
      </trkpt>
      <trkpt lat="44.10744" lon="1.71454">
        <ele>125.255201</ele>
        <time>2025-05-13T17:57:04.996Z</time>
      </trkpt>
      <trkpt lat="44.10766" lon="1.71489">
        <ele>124.706397</ele>
        <time>2025-05-13T17:57:08.020Z</time>
      </trkpt>
      <trkpt lat="44.10775" lon="1.71499">
        <ele>124.509229</ele>
        <time>2025-05-13T17:57:09.156Z</time>
      </trkpt>
      <trkpt lat="44.1079" lon="1.71507">
        <ele>124.248373</ele>
        <time>2025-05-13T17:57:10.720Z</time>
      </trkpt>
      <trkpt lat="44.10817" lon="1.71513">
        <ele>123.790332</ele>
        <time>2025-05-13T17:57:13.805Z</time>
      </trkpt>
      <trkpt lat="44.10847" lon="1.7153">
        <ele>123.24854</ele>
        <time>2025-05-13T17:57:18.885Z</time>
      </trkpt>
      <trkpt lat="44.10866" lon="1.71549">
        <ele>122.86573</ele>
        <time>2025-05-13T17:57:23.862Z</time>
      </trkpt>
      <trkpt lat="44.10888" lon="1.71577">
        <ele>122.366989</ele>
        <time>2025-05-13T17:57:31.776Z</time>
      </trkpt>
      <trkpt lat="44.11077" lon="1.71862">
        <ele>139.153154</ele>
        <time>2025-05-13T17:59:14.263Z</time>
      </trkpt>
      <trkpt lat="44.11114" lon="1.71913">
        <ele>143.252599</ele>
        <time>2025-05-13T17:59:43.757Z</time>
      </trkpt>
      <trkpt lat="44.11148" lon="1.71951">
        <ele>146.666846</ele>
        <time>2025-05-13T18:00:10.070Z</time>
      </trkpt>
      <trkpt lat="44.11168" lon="1.71979">
        <ele>148.767639</ele>
        <time>2025-05-13T18:00:26.828Z</time>
      </trkpt>
      <trkpt lat="44.11183" lon="1.71999">
        <ele>150.319801</ele>
        <time>2025-05-13T18:00:38.313Z</time>
      </trkpt>
      <trkpt lat="44.11197" lon="1.72011">
        <ele>151.545521</ele>
        <time>2025-05-13T18:00:46.674Z</time>
      </trkpt>
      <trkpt lat="44.11221" lon="1.72027">
        <ele>153.50458</ele>
        <time>2025-05-13T18:00:58.731Z</time>
      </trkpt>
      <trkpt lat="44.1126" lon="1.72044">
        <ele>156.563981</ele>
        <time>2025-05-13T18:01:14.411Z</time>
      </trkpt>
      <trkpt lat="44.11306" lon="1.72075">
        <ele>158.964385</ele>
        <time>2025-05-13T18:01:29.847Z</time>
      </trkpt>
      <trkpt lat="44.11336" lon="1.72091">
        <ele>158.697852</ele>
        <time>2025-05-13T18:01:37.123Z</time>
      </trkpt>
      <trkpt lat="44.11394" lon="1.7211">
        <ele>158.200865</ele>
        <time>2025-05-13T18:01:45.507Z</time>
      </trkpt>
      <trkpt lat="44.11439" lon="1.72117">
        <ele>157.818903</ele>
        <time>2025-05-13T18:01:50.271Z</time>
      </trkpt>
      <trkpt lat="44.1147" lon="1.72131">
        <ele>156.970653</ele>
        <time>2025-05-13T18:01:53.361Z</time>
      </trkpt>
      <trkpt lat="44.11496" lon="1.72146">
        <ele>154.101488</ele>
        <time>2025-05-13T18:01:55.955Z</time>
      </trkpt>
      <trkpt lat="44.11504" lon="1.72145">
        <ele>153.320252</ele>
        <time>2025-05-13T18:01:56.642Z</time>
      </trkpt>
      <trkpt lat="44.11511" lon="1.72135">
        <ele>152.23855</ele>
        <time>2025-05-13T18:01:57.585Z</time>
      </trkpt>
      <trkpt lat="44.11531" lon="1.72064">
        <ele>146.69256</ele>
        <time>2025-05-13T18:02:02.254Z</time>
      </trkpt>
      <trkpt lat="44.11539" lon="1.72049">
        <ele>145.353892</ele>
        <time>2025-05-13T18:02:03.359Z</time>
      </trkpt>
      <trkpt lat="44.11552" lon="1.72036">
        <ele>143.785825</ele>
        <time>2025-05-13T18:02:04.651Z</time>
      </trkpt>
      <trkpt lat="44.11653" lon="1.71976">
        <ele>132.861474</ele>
        <time>2025-05-13T18:02:13.886Z</time>
      </trkpt>
      <trkpt lat="44.11702" lon="1.71933">
        <ele>127.157597</ele>
        <time>2025-05-13T18:02:18.864Z</time>
      </trkpt>
      <trkpt lat="44.11702" lon="1.71981">
        <ele>123.772104</ele>
        <time>2025-05-13T18:02:21.918Z</time>
      </trkpt>
      <trkpt lat="44.11709" lon="1.72157">
        <ele>117.663734</ele>
        <time>2025-05-13T18:02:33.664Z</time>
      </trkpt>
      <trkpt lat="44.11718" lon="1.72324">
        <ele>115.36003</ele>
        <time>2025-05-13T18:02:48.111Z</time>
      </trkpt>
      <trkpt lat="44.11721" lon="1.72388">
        <ele>115.892488</ele>
        <time>2025-05-13T18:02:58.673Z</time>
      </trkpt>
      <trkpt lat="44.11722" lon="1.72396">
        <ele>115.9555</ele>
        <time>2025-05-13T18:03:00.045Z</time>
      </trkpt>
      <trkpt lat="44.11728" lon="1.7241">
        <ele>116.090024</ele>
        <time>2025-05-13T18:03:02.942Z</time>
      </trkpt>
      <trkpt lat="44.11751" lon="1.72381">
        <ele>116.454379</ele>
        <time>2025-05-13T18:03:11.133Z</time>
      </trkpt>
      <trkpt lat="44.1181" lon="1.72319">
        <ele>116.893663</ele>
        <time>2025-05-13T18:03:28.761Z</time>
      </trkpt>
      <trkpt lat="44.11854" lon="1.72287">
        <ele>116.874902</ele>
        <time>2025-05-13T18:03:35.030Z</time>
      </trkpt>
      <trkpt lat="44.11886" lon="1.72269">
        <ele>116.861685</ele>
        <time>2025-05-13T18:03:39.291Z</time>
      </trkpt>
      <trkpt lat="44.1193" lon="1.72249">
        <ele>116.844032</ele>
        <time>2025-05-13T18:03:45.009Z</time>
      </trkpt>
      <trkpt lat="44.11968" lon="1.72237">
        <ele>116.786986</ele>
        <time>2025-05-13T18:03:49.775Z</time>
      </trkpt>
      <trkpt lat="44.12168" lon="1.72183">
        <ele>116.618218</ele>
        <time>2025-05-13T18:04:19.591Z</time>
      </trkpt>
      <trkpt lat="44.12188" lon="1.72175">
        <ele>116.687905</ele>
        <time>2025-05-13T18:04:23.073Z</time>
      </trkpt>
      <trkpt lat="44.12201" lon="1.7217">
        <ele>116.734086</ele>
        <time>2025-05-13T18:04:25.414Z</time>
      </trkpt>
      <trkpt lat="44.12242" lon="1.72146">
        <ele>116.887824</ele>
        <time>2025-05-13T18:04:33.258Z</time>
      </trkpt>
      <trkpt lat="44.12424" lon="1.72015">
        <ele>117.374738</ele>
        <time>2025-05-13T18:05:06.600Z</time>
      </trkpt>
      <trkpt lat="44.12455" lon="1.71989">
        <ele>117.452751</ele>
        <time>2025-05-13T18:05:11.464Z</time>
      </trkpt>
      <trkpt lat="44.12512" lon="1.7193">
        <ele>117.634014</ele>
        <time>2025-05-13T18:05:21.233Z</time>
      </trkpt>
      <trkpt lat="44.12746" lon="1.71623">
        <ele>118.412699</ele>
        <time>2025-05-13T18:06:17.691Z</time>
      </trkpt>
      <trkpt lat="44.12769" lon="1.71585">
        <ele>117.922175</ele>
        <time>2025-05-13T18:06:21.744Z</time>
      </trkpt>
      <trkpt lat="44.12799" lon="1.7153">
        <ele>117.235406</ele>
        <time>2025-05-13T18:06:27.016Z</time>
      </trkpt>
      <trkpt lat="44.12865" lon="1.7138">
        <ele>116.617417</ele>
        <time>2025-05-13T18:06:40.681Z</time>
      </trkpt>
      <trkpt lat="44.12895" lon="1.71316">
        <ele>116.713238</ele>
        <time>2025-05-13T18:06:51.345Z</time>
      </trkpt>
      <trkpt lat="44.12932" lon="1.71262">
        <ele>116.813624</ele>
        <time>2025-05-13T18:07:04.047Z</time>
      </trkpt>
      <trkpt lat="44.12932" lon="1.71256">
        <ele>116.888051</ele>
        <time>2025-05-13T18:07:05.172Z</time>
      </trkpt>
      <trkpt lat="44.12948" lon="1.71221">
        <ele>117.391056</ele>
        <time>2025-05-13T18:07:12.549Z</time>
      </trkpt>
      <trkpt lat="44.12971" lon="1.71173">
        <ele>118.110877</ele>
        <time>2025-05-13T18:07:22.548Z</time>
      </trkpt>
      <trkpt lat="44.12979" lon="1.71158">
        <ele>118.340142</ele>
        <time>2025-05-13T18:07:25.618Z</time>
      </trkpt>
      <trkpt lat="44.13021" lon="1.71067">
        <ele>119.672762</ele>
        <time>2025-05-13T18:07:41.092Z</time>
      </trkpt>
      <trkpt lat="44.13056" lon="1.70942">
        <ele>121.588766</ele>
        <time>2025-05-13T18:07:59.152Z</time>
      </trkpt>
      <trkpt lat="44.13065" lon="1.70919">
        <ele>121.971626</ele>
        <time>2025-05-13T18:08:03.368Z</time>
      </trkpt>
      <trkpt lat="44.13105" lon="1.70845">
        <ele>123.334126</ele>
        <time>2025-05-13T18:08:19.060Z</time>
      </trkpt>
      <trkpt lat="44.13125" lon="1.70819">
        <ele>124.41609</ele>
        <time>2025-05-13T18:08:27.329Z</time>
      </trkpt>
      <trkpt lat="44.13152" lon="1.70794">
        <ele>126.119478</ele>
        <time>2025-05-13T18:08:39.324Z</time>
      </trkpt>
      <trkpt lat="44.13171" lon="1.70785">
        <ele>127.167498</ele>
        <time>2025-05-13T18:08:46.806Z</time>
      </trkpt>
      <trkpt lat="44.13198" lon="1.70777">
        <ele>128.635138</ele>
        <time>2025-05-13T18:08:57.422Z</time>
      </trkpt>
      <trkpt lat="44.13213" lon="1.7078">
        <ele>129.434555</ele>
        <time>2025-05-13T18:09:02.989Z</time>
      </trkpt>
      <trkpt lat="44.13221" lon="1.70795">
        <ele>130.124543</ele>
        <time>2025-05-13T18:09:07.641Z</time>
      </trkpt>
      <trkpt lat="44.13222" lon="1.70813">
        <ele>130.813364</ele>
        <time>2025-05-13T18:09:12.375Z</time>
      </trkpt>
      <trkpt lat="44.13216" lon="1.70825">
        <ele>131.382603</ele>
        <time>2025-05-13T18:09:16.333Z</time>
      </trkpt>
      <trkpt lat="44.1321" lon="1.70831">
        <ele>131.757338</ele>
        <time>2025-05-13T18:09:19.032Z</time>
      </trkpt>
      <trkpt lat="44.13175" lon="1.70854">
        <ele>134.067052</ele>
        <time>2025-05-13T18:09:34.561Z</time>
      </trkpt>
      <trkpt lat="44.13136" lon="1.70879">
        <ele>137.058874</ele>
        <time>2025-05-13T18:09:52.277Z</time>
      </trkpt>
      <trkpt lat="44.13129" lon="1.70891">
        <ele>137.832896</ele>
        <time>2025-05-13T18:09:56.386Z</time>
      </trkpt>
      <trkpt lat="44.13126" lon="1.70906">
        <ele>138.593946</ele>
        <time>2025-05-13T18:10:00.229Z</time>
      </trkpt>
      <trkpt lat="44.13127" lon="1.7092">
        <ele>139.299929</ele>
        <time>2025-05-13T18:10:03.722Z</time>
      </trkpt>
      <trkpt lat="44.13133" lon="1.70927">
        <ele>139.853176</ele>
        <time>2025-05-13T18:10:06.803Z</time>
      </trkpt>
      <trkpt lat="44.13149" lon="1.7093">
        <ele>141.043443</ele>
        <time>2025-05-13T18:10:13.722Z</time>
      </trkpt>
      <trkpt lat="44.13189" lon="1.709">
        <ele>144.172307</ele>
        <time>2025-05-13T18:10:34.592Z</time>
      </trkpt>
      <trkpt lat="44.13206" lon="1.70899">
        <ele>145.406186</ele>
        <time>2025-05-13T18:10:43.692Z</time>
      </trkpt>
      <trkpt lat="44.13212" lon="1.70903">
        <ele>145.85142</ele>
        <time>2025-05-13T18:10:46.819Z</time>
      </trkpt>
      <trkpt lat="44.13219" lon="1.70918">
        <ele>146.920951</ele>
        <time>2025-05-13T18:10:53.640Z</time>
      </trkpt>
      <trkpt lat="44.1322" lon="1.70935">
        <ele>147.874117</ele>
        <time>2025-05-13T18:10:59.778Z</time>
      </trkpt>
      <trkpt lat="44.13217" lon="1.70945">
        <ele>148.48742</ele>
        <time>2025-05-13T18:11:03.809Z</time>
      </trkpt>
      <trkpt lat="44.13209" lon="1.70968">
        <ele>149.972649</ele>
        <time>2025-05-13T18:11:13.707Z</time>
      </trkpt>
      <trkpt lat="44.13196" lon="1.71028">
        <ele>153.584968</ele>
        <time>2025-05-13T18:11:37.396Z</time>
      </trkpt>
      <trkpt lat="44.13189" lon="1.71158">
        <ele>160.750658</ele>
        <time>2025-05-13T18:12:18.508Z</time>
      </trkpt>
      <trkpt lat="44.13184" lon="1.71192">
        <ele>162.048417</ele>
        <time>2025-05-13T18:12:26.527Z</time>
      </trkpt>
      <trkpt lat="44.13183" lon="1.71212">
        <ele>162.789211</ele>
        <time>2025-05-13T18:12:30.913Z</time>
      </trkpt>
      <trkpt lat="44.13187" lon="1.71303">
        <ele>166.243627</ele>
        <time>2025-05-13T18:12:51.690Z</time>
      </trkpt>
      <trkpt lat="44.13194" lon="1.7139">
        <ele>169.51765</ele>
        <time>2025-05-13T18:13:12.564Z</time>
      </trkpt>
      <trkpt lat="44.13205" lon="1.71445">
        <ele>173.023687</ele>
        <time>2025-05-13T18:13:30.134Z</time>
      </trkpt>
      <trkpt lat="44.1321" lon="1.71455">
        <ele>173.737777</ele>
        <time>2025-05-13T18:13:34.486Z</time>
      </trkpt>
      <trkpt lat="44.13232" lon="1.71489">
        <ele>176.465632</ele>
        <time>2025-05-13T18:13:52.344Z</time>
      </trkpt>
      <trkpt lat="44.13246" lon="1.71554">
        <ele>180.592131</ele>
        <time>2025-05-13T18:14:18.292Z</time>
      </trkpt>
      <trkpt lat="44.13261" lon="1.71573">
        <ele>182.318722</ele>
        <time>2025-05-13T18:14:27.967Z</time>
      </trkpt>
      <trkpt lat="44.13279" lon="1.7159">
        <ele>184.14625</ele>
        <time>2025-05-13T18:14:35.855Z</time>
      </trkpt>
      <trkpt lat="44.13281" lon="1.71595">
        <ele>184.471893</ele>
        <time>2025-05-13T18:14:37.473Z</time>
      </trkpt>
      <trkpt lat="44.13283" lon="1.71602">
        <ele>185.031821</ele>
        <time>2025-05-13T18:14:40.082Z</time>
      </trkpt>
      <trkpt lat="44.13291" lon="1.71626">
        <ele>187.140377</ele>
        <time>2025-05-13T18:14:50.384Z</time>
      </trkpt>
      <trkpt lat="44.13293" lon="1.71656">
        <ele>189.571997</ele>
        <time>2025-05-13T18:15:05.049Z</time>
      </trkpt>
      <trkpt lat="44.13301" lon="1.71668">
        <ele>190.866485</ele>
        <time>2025-05-13T18:15:13.183Z</time>
      </trkpt>
      <trkpt lat="44.13331" lon="1.71688">
        <ele>194.646942</ele>
        <time>2025-05-13T18:15:36.598Z</time>
      </trkpt>
      <trkpt lat="44.13341" lon="1.717">
        <ele>196.089146</ele>
        <time>2025-05-13T18:15:44.333Z</time>
      </trkpt>
      <trkpt lat="44.13343" lon="1.71736">
        <ele>199.014793</ele>
        <time>2025-05-13T18:15:59.837Z</time>
      </trkpt>
      <trkpt lat="44.13345" lon="1.71744">
        <ele>199.664305</ele>
        <time>2025-05-13T18:16:02.931Z</time>
      </trkpt>
      <trkpt lat="44.13351" lon="1.71769">
        <ele>201.759821</ele>
        <time>2025-05-13T18:16:13.939Z</time>
      </trkpt>
      <trkpt lat="44.13356" lon="1.71787">
        <ele>203.337789</ele>
        <time>2025-05-13T18:16:22.172Z</time>
      </trkpt>
      <trkpt lat="44.13373" lon="1.71826">
        <ele>205.31501</ele>
        <time>2025-05-13T18:16:41.490Z</time>
      </trkpt>
      <trkpt lat="44.13377" lon="1.71874">
        <ele>206.244726</ele>
        <time>2025-05-13T18:17:03.610Z</time>
      </trkpt>
      <trkpt lat="44.13374" lon="1.71895">
        <ele>206.662783</ele>
        <time>2025-05-13T18:17:11.344Z</time>
      </trkpt>
      <trkpt lat="44.13366" lon="1.71919">
        <ele>207.175625</ele>
        <time>2025-05-13T18:17:18.390Z</time>
      </trkpt>
      <trkpt lat="44.13342" lon="1.71979">
        <ele>208.492835</ele>
        <time>2025-05-13T18:17:25.981Z</time>
      </trkpt>
      <trkpt lat="44.13332" lon="1.7204">
        <ele>209.164163</ele>
        <time>2025-05-13T18:17:30.150Z</time>
      </trkpt>
      <trkpt lat="44.13334" lon="1.7207">
        <ele>205.550169</ele>
        <time>2025-05-13T18:17:32.052Z</time>
      </trkpt>
      <trkpt lat="44.13338" lon="1.72078">
        <ele>204.333284</ele>
        <time>2025-05-13T18:17:32.671Z</time>
      </trkpt>
      <trkpt lat="44.13347" lon="1.72082">
        <ele>202.865912</ele>
        <time>2025-05-13T18:17:33.423Z</time>
      </trkpt>
      <trkpt lat="44.13355" lon="1.72082">
        <ele>201.49822</ele>
        <time>2025-05-13T18:17:34.115Z</time>
      </trkpt>
      <trkpt lat="44.1336" lon="1.72078">
        <ele>200.505128</ele>
        <time>2025-05-13T18:17:34.624Z</time>
      </trkpt>
      <trkpt lat="44.13382" lon="1.72055">
        <ele>196.060688</ele>
        <time>2025-05-13T18:17:36.851Z</time>
      </trkpt>
      <trkpt lat="44.13396" lon="1.72044">
        <ele>193.309015</ele>
        <time>2025-05-13T18:17:38.213Z</time>
      </trkpt>
      <trkpt lat="44.13442" lon="1.72021">
        <ele>185.388197</ele>
        <time>2025-05-13T18:17:42.134Z</time>
      </trkpt>
      <trkpt lat="44.13453" lon="1.72009">
        <ele>183.041319</ele>
        <time>2025-05-13T18:17:43.298Z</time>
      </trkpt>
      <trkpt lat="44.135" lon="1.7194">
        <ele>173.627764</ele>
        <time>2025-05-13T18:17:48.896Z</time>
      </trkpt>
      <trkpt lat="44.13537" lon="1.71891">
        <ele>167.199877</ele>
        <time>2025-05-13T18:17:53.139Z</time>
      </trkpt>
      <trkpt lat="44.13547" lon="1.71881">
        <ele>165.602577</ele>
        <time>2025-05-13T18:17:54.219Z</time>
      </trkpt>
      <trkpt lat="44.13591" lon="1.7188">
        <ele>159.969857</ele>
        <time>2025-05-13T18:17:58.144Z</time>
      </trkpt>
      <trkpt lat="44.13642" lon="1.71883">
        <ele>155.982628</ele>
        <time>2025-05-13T18:18:03.029Z</time>
      </trkpt>
      <trkpt lat="44.13774" lon="1.71902">
        <ele>150.684004</ele>
        <time>2025-05-13T18:18:16.142Z</time>
      </trkpt>
      <trkpt lat="44.13856" lon="1.71909">
        <ele>149.263281</ele>
        <time>2025-05-13T18:18:24.488Z</time>
      </trkpt>
      <trkpt lat="44.13891" lon="1.71901">
        <ele>148.89147</ele>
        <time>2025-05-13T18:18:29.012Z</time>
      </trkpt>
      <trkpt lat="44.13956" lon="1.71903">
        <ele>148.205631</ele>
        <time>2025-05-13T18:18:40.189Z</time>
      </trkpt>
      <trkpt lat="44.13969" lon="1.71901">
        <ele>148.072148</ele>
        <time>2025-05-13T18:18:42.864Z</time>
      </trkpt>
      <trkpt lat="44.1414" lon="1.71823">
        <ele>148.180785</ele>
        <time>2025-05-13T18:19:12.186Z</time>
      </trkpt>
      <trkpt lat="44.14165" lon="1.71802">
        <ele>147.121577</ele>
        <time>2025-05-13T18:19:15.534Z</time>
      </trkpt>
      <trkpt lat="44.14232" lon="1.71722">
        <ele>143.446369</ele>
        <time>2025-05-13T18:19:24.602Z</time>
      </trkpt>
      <trkpt lat="44.14247" lon="1.71702">
        <ele>142.61565</ele>
        <time>2025-05-13T18:19:26.445Z</time>
      </trkpt>
      <trkpt lat="44.14267" lon="1.71667">
        <ele>141.281227</ele>
        <time>2025-05-13T18:19:29.359Z</time>
      </trkpt>
      <trkpt lat="44.14307" lon="1.71608">
        <ele>137.652457</ele>
        <time>2025-05-13T18:19:34.510Z</time>
      </trkpt>
      <trkpt lat="44.1435" lon="1.71567">
        <ele>134.157674</ele>
        <time>2025-05-13T18:19:39.009Z</time>
      </trkpt>
      <trkpt lat="44.14369" lon="1.71552">
        <ele>132.693073</ele>
        <time>2025-05-13T18:19:40.922Z</time>
      </trkpt>
      <trkpt lat="44.14404" lon="1.71531">
        <ele>130.090837</ele>
        <time>2025-05-13T18:19:44.471Z</time>
      </trkpt>
      <trkpt lat="44.14442" lon="1.71518">
        <ele>128.375555</ele>
        <time>2025-05-13T18:19:48.448Z</time>
      </trkpt>
      <trkpt lat="44.14469" lon="1.71517">
        <ele>128.023366</ele>
        <time>2025-05-13T18:19:51.440Z</time>
      </trkpt>
      <trkpt lat="44.14543" lon="1.71533">
        <ele>127.044757</ele>
        <time>2025-05-13T18:20:00.518Z</time>
      </trkpt>
      <trkpt lat="44.14583" lon="1.71522">
        <ele>126.504728</ele>
        <time>2025-05-13T18:20:06.807Z</time>
      </trkpt>
      <trkpt lat="44.14624" lon="1.7152">
        <ele>126.388326</ele>
        <time>2025-05-13T18:20:12.843Z</time>
      </trkpt>
      <trkpt lat="44.14763" lon="1.71545">
        <ele>127.365218</ele>
        <time>2025-05-13T18:20:35.822Z</time>
      </trkpt>
      <trkpt lat="44.14802" lon="1.71561">
        <ele>128.549847</ele>
        <time>2025-05-13T18:20:44.970Z</time>
      </trkpt>
      <trkpt lat="44.14828" lon="1.71579">
        <ele>129.936692</ele>
        <time>2025-05-13T18:20:52.889Z</time>
      </trkpt>
      <trkpt lat="44.14858" lon="1.71615">
        <ele>131.848413</ele>
        <time>2025-05-13T18:21:05.272Z</time>
      </trkpt>
      <trkpt lat="44.14871" lon="1.71649">
        <ele>133.204519</ele>
        <time>2025-05-13T18:21:14.945Z</time>
      </trkpt>
      <trkpt lat="44.14881" lon="1.71681">
        <ele>134.389552</ele>
        <time>2025-05-13T18:21:24.660Z</time>
      </trkpt>
      <trkpt lat="44.14888" lon="1.71715">
        <ele>135.636984</ele>
        <time>2025-05-13T18:21:36.287Z</time>
      </trkpt>
      <trkpt lat="44.14891" lon="1.71748">
        <ele>137.11452</ele>
        <time>2025-05-13T18:21:47.620Z</time>
      </trkpt>
      <trkpt lat="44.14891" lon="1.71769">
        <ele>138.295914</ele>
        <time>2025-05-13T18:21:55.422Z</time>
      </trkpt>
      <trkpt lat="44.14884" lon="1.71808">
        <ele>140.475812</ele>
        <time>2025-05-13T18:22:09.932Z</time>
      </trkpt>
      <trkpt lat="44.14867" lon="1.71856">
        <ele>143.369233</ele>
        <time>2025-05-13T18:22:28.707Z</time>
      </trkpt>
      <trkpt lat="44.14763" lon="1.72059">
        <ele>155.828919</ele>
        <time>2025-05-13T18:23:43.949Z</time>
      </trkpt>
      <trkpt lat="44.14747" lon="1.72122">
        <ele>158.891829</ele>
        <time>2025-05-13T18:24:02.726Z</time>
      </trkpt>
      <trkpt lat="44.1471" lon="1.72247">
        <ele>161.941466</ele>
        <time>2025-05-13T18:24:40.176Z</time>
      </trkpt>
      <trkpt lat="44.147" lon="1.72289">
        <ele>162.270412</ele>
        <time>2025-05-13T18:24:49.952Z</time>
      </trkpt>
      <trkpt lat="44.14695" lon="1.7233">
        <ele>162.575968</ele>
        <time>2025-05-13T18:24:55.673Z</time>
      </trkpt>
      <trkpt lat="44.14698" lon="1.72375">
        <ele>162.911815</ele>
        <time>2025-05-13T18:24:59.330Z</time>
      </trkpt>
      <trkpt lat="44.14717" lon="1.72424">
        <ele>161.737911</ele>
        <time>2025-05-13T18:25:03.058Z</time>
      </trkpt>
      <trkpt lat="44.14736" lon="1.7246">
        <ele>158.230822</ele>
        <time>2025-05-13T18:25:05.817Z</time>
      </trkpt>
      <trkpt lat="44.1475" lon="1.72519">
        <ele>153.348038</ele>
        <time>2025-05-13T18:25:09.558Z</time>
      </trkpt>
      <trkpt lat="44.14755" lon="1.72533">
        <ele>152.047886</ele>
        <time>2025-05-13T18:25:10.548Z</time>
      </trkpt>
      <trkpt lat="44.14772" lon="1.72552">
        <ele>149.703463</ele>
        <time>2025-05-13T18:25:12.322Z</time>
      </trkpt>
      <trkpt lat="44.14802" lon="1.72559">
        <ele>146.360372</ele>
        <time>2025-05-13T18:25:14.854Z</time>
      </trkpt>
      <trkpt lat="44.14822" lon="1.72558">
        <ele>144.145697</ele>
        <time>2025-05-13T18:25:16.542Z</time>
      </trkpt>
      <trkpt lat="44.14875" lon="1.72549">
        <ele>139.6311</ele>
        <time>2025-05-13T18:25:21.030Z</time>
      </trkpt>
      <trkpt lat="44.14911" lon="1.72536">
        <ele>136.588583</ele>
        <time>2025-05-13T18:25:24.250Z</time>
      </trkpt>
      <trkpt lat="44.14934" lon="1.72523">
        <ele>134.580466</ele>
        <time>2025-05-13T18:25:26.424Z</time>
      </trkpt>
      <trkpt lat="44.14997" lon="1.72472">
        <ele>128.751945</ele>
        <time>2025-05-13T18:25:33.340Z</time>
      </trkpt>
      <trkpt lat="44.15018" lon="1.72444">
        <ele>128.328046</ele>
        <time>2025-05-13T18:25:36.467Z</time>
      </trkpt>
      <trkpt lat="44.1508" lon="1.72308">
        <ele>126.64423</ele>
        <time>2025-05-13T18:25:50.129Z</time>
      </trkpt>
      <trkpt lat="44.15091" lon="1.72278">
        <ele>126.290467</ele>
        <time>2025-05-13T18:25:53.264Z</time>
      </trkpt>
      <trkpt lat="44.15127" lon="1.72155">
        <ele>128.339549</ele>
        <time>2025-05-13T18:26:10.836Z</time>
      </trkpt>
      <trkpt lat="44.1514" lon="1.72123">
        <ele>129.026297</ele>
        <time>2025-05-13T18:26:18.190Z</time>
      </trkpt>
      <trkpt lat="44.15154" lon="1.72102">
        <ele>129.549515</ele>
        <time>2025-05-13T18:26:24.421Z</time>
      </trkpt>
      <trkpt lat="44.15163" lon="1.72094">
        <ele>129.809574</ele>
        <time>2025-05-13T18:26:27.707Z</time>
      </trkpt>
      <trkpt lat="44.15182" lon="1.72088">
        <ele>130.322293</ele>
        <time>2025-05-13T18:26:34.495Z</time>
      </trkpt>
      <trkpt lat="44.15192" lon="1.72089">
        <ele>130.589806</ele>
        <time>2025-05-13T18:26:38.237Z</time>
      </trkpt>
      <trkpt lat="44.15209" lon="1.72098">
        <ele>131.090911</ele>
        <time>2025-05-13T18:26:44.709Z</time>
      </trkpt>
      <trkpt lat="44.15223" lon="1.72115">
        <ele>131.677472</ele>
        <time>2025-05-13T18:26:52.006Z</time>
      </trkpt>
      <trkpt lat="44.15234" lon="1.72146">
        <ele>132.432562</ele>
        <time>2025-05-13T18:27:01.139Z</time>
      </trkpt>
      <trkpt lat="44.15248" lon="1.72218">
        <ele>134.101003</ele>
        <time>2025-05-13T18:27:19.414Z</time>
      </trkpt>
      <trkpt lat="44.15249" lon="1.72256">
        <ele>134.933488</ele>
        <time>2025-05-13T18:27:27.100Z</time>
      </trkpt>
      <trkpt lat="44.15218" lon="1.72443">
        <ele>135.081234</ele>
        <time>2025-05-13T18:27:43.533Z</time>
      </trkpt>
      <trkpt lat="44.15208" lon="1.72478">
        <ele>134.714024</ele>
        <time>2025-05-13T18:27:46.213Z</time>
      </trkpt>
      <trkpt lat="44.15185" lon="1.72525">
        <ele>134.17611</ele>
        <time>2025-05-13T18:27:50.361Z</time>
      </trkpt>
      <trkpt lat="44.15183" lon="1.72536">
        <ele>134.071775</ele>
        <time>2025-05-13T18:27:51.214Z</time>
      </trkpt>
      <trkpt lat="44.15185" lon="1.7254">
        <ele>134.029177</ele>
        <time>2025-05-13T18:27:51.546Z</time>
      </trkpt>
      <trkpt lat="44.15167" lon="1.72574">
        <ele>134.834293</ele>
        <time>2025-05-13T18:27:55.153Z</time>
      </trkpt>
      <trkpt lat="44.15057" lon="1.72767">
        <ele>142.518547</ele>
        <time>2025-05-13T18:28:57.865Z</time>
      </trkpt>
      <trkpt lat="44.15004" lon="1.72852">
        <ele>148.657269</ele>
        <time>2025-05-13T18:29:36.888Z</time>
      </trkpt>
      <trkpt lat="44.14786" lon="1.73161">
        <ele>170.563165</ele>
        <time>2025-05-13T18:32:03.606Z</time>
      </trkpt>
      <trkpt lat="44.14755" lon="1.73215">
        <ele>171.975926</ele>
        <time>2025-05-13T18:32:20.516Z</time>
      </trkpt>
      <trkpt lat="44.14735" lon="1.73266">
        <ele>173.173313</ele>
        <time>2025-05-13T18:32:28.994Z</time>
      </trkpt>
      <trkpt lat="44.14725" lon="1.73307">
        <ele>174.076094</ele>
        <time>2025-05-13T18:32:32.499Z</time>
      </trkpt>
      <trkpt lat="44.1472" lon="1.73349">
        <ele>172.356362</ele>
        <time>2025-05-13T18:32:35.387Z</time>
      </trkpt>
      <trkpt lat="44.14714" lon="1.73485">
        <ele>165.009074</ele>
        <time>2025-05-13T18:32:43.901Z</time>
      </trkpt>
      <trkpt lat="44.14716" lon="1.73536">
        <ele>162.252873</ele>
        <time>2025-05-13T18:32:47.068Z</time>
      </trkpt>
      <trkpt lat="44.14721" lon="1.73587">
        <ele>160.022511</ele>
        <time>2025-05-13T18:32:50.302Z</time>
      </trkpt>
      <trkpt lat="44.14728" lon="1.73632">
        <ele>158.607956</ele>
        <time>2025-05-13T18:32:53.295Z</time>
      </trkpt>
      <trkpt lat="44.14835" lon="1.74118">
        <ele>146.521052</ele>
        <time>2025-05-13T18:33:31.677Z</time>
      </trkpt>
      <trkpt lat="44.14849" lon="1.74191">
        <ele>144.597507</ele>
        <time>2025-05-13T18:33:37.117Z</time>
      </trkpt>
      <trkpt lat="44.14869" lon="1.74349">
        <ele>140.686862</ele>
        <time>2025-05-13T18:33:48.084Z</time>
      </trkpt>
      <trkpt lat="44.14886" lon="1.74484">
        <ele>137.572982</ele>
        <time>2025-05-13T18:33:57.915Z</time>
      </trkpt>
      <trkpt lat="44.14912" lon="1.74685">
        <ele>135.98307</ele>
        <time>2025-05-13T18:34:16.849Z</time>
      </trkpt>
      <trkpt lat="44.14919" lon="1.74739">
        <ele>135.832475</ele>
        <time>2025-05-13T18:34:22.911Z</time>
      </trkpt>
      <trkpt lat="44.14931" lon="1.74836">
        <ele>136.202424</ele>
        <time>2025-05-13T18:34:34.443Z</time>
      </trkpt>
      <trkpt lat="44.14949" lon="1.74982">
        <ele>137.531576</ele>
        <time>2025-05-13T18:34:54.094Z</time>
      </trkpt>
      <trkpt lat="44.14957" lon="1.75061">
        <ele>138.331511</ele>
        <time>2025-05-13T18:35:09.874Z</time>
      </trkpt>
      <trkpt lat="44.1496" lon="1.75124">
        <ele>139.078483</ele>
        <time>2025-05-13T18:35:21.347Z</time>
      </trkpt>
      <trkpt lat="44.14961" lon="1.75214">
        <ele>140.147006</ele>
        <time>2025-05-13T18:35:35.593Z</time>
      </trkpt>
      <trkpt lat="44.14978" lon="1.75213">
        <ele>140.422917</ele>
        <time>2025-05-13T18:35:38.843Z</time>
      </trkpt>
      <trkpt lat="44.14975" lon="1.75236">
        <ele>140.7025</ele>
        <time>2025-05-13T18:35:41.973Z</time>
      </trkpt>
      <trkpt lat="44.14958" lon="1.75371">
        <ele>138.092048</ele>
        <time>2025-05-13T18:35:55.012Z</time>
      </trkpt>
      <trkpt lat="44.14948" lon="1.75451">
        <ele>136.136863</ele>
        <time>2025-05-13T18:36:00.389Z</time>
      </trkpt>
      <trkpt lat="44.14944" lon="1.75466">
        <ele>135.749481</ele>
        <time>2025-05-13T18:36:01.411Z</time>
      </trkpt>
      <trkpt lat="44.14939" lon="1.75473">
        <ele>135.528136</ele>
        <time>2025-05-13T18:36:01.985Z</time>
      </trkpt>
      <trkpt lat="44.14933" lon="1.75483">
        <ele>135.199954</ele>
        <time>2025-05-13T18:36:02.867Z</time>
      </trkpt>
      <trkpt lat="44.1494" lon="1.75485">
        <ele>134.937544</ele>
        <time>2025-05-13T18:36:03.556Z</time>
      </trkpt>
      <trkpt lat="44.14946" lon="1.75488">
        <ele>134.787963</ele>
        <time>2025-05-13T18:36:04.053Z</time>
      </trkpt>
      <trkpt lat="44.14948" lon="1.75489">
        <ele>134.710991</ele>
        <time>2025-05-13T18:36:04.321Z</time>
      </trkpt>
      <trkpt lat="44.1495" lon="1.7549">
        <ele>134.674085</ele>
        <time>2025-05-13T18:36:04.437Z</time>
      </trkpt>
      <trkpt lat="44.15025" lon="1.75525">
        <ele>132.580184</ele>
        <time>2025-05-13T18:36:11.921Z</time>
      </trkpt>
      <trkpt lat="44.15034" lon="1.75524">
        <ele>132.336435</ele>
        <time>2025-05-13T18:36:12.831Z</time>
      </trkpt>
      <trkpt lat="44.15037" lon="1.75524">
        <ele>132.261103</ele>
        <time>2025-05-13T18:36:13.083Z</time>
      </trkpt>
      <trkpt lat="44.15039" lon="1.75531">
        <ele>132.102143</ele>
        <time>2025-05-13T18:36:13.625Z</time>
      </trkpt>
      <trkpt lat="44.15044" lon="1.75534">
        <ele>131.958844</ele>
        <time>2025-05-13T18:36:14.124Z</time>
      </trkpt>
      <trkpt lat="44.15074" lon="1.75542">
        <ele>131.167069</ele>
        <time>2025-05-13T18:36:17.467Z</time>
      </trkpt>
      <trkpt lat="44.15085" lon="1.75547">
        <ele>130.854809</ele>
        <time>2025-05-13T18:36:19.366Z</time>
      </trkpt>
      <trkpt lat="44.15132" lon="1.75556">
        <ele>130.504144</ele>
        <time>2025-05-13T18:36:34.591Z</time>
      </trkpt>
      <trkpt lat="44.15141" lon="1.7556">
        <ele>130.652751</ele>
        <time>2025-05-13T18:36:38.243Z</time>
      </trkpt>
      <trkpt lat="44.15166" lon="1.75577">
        <ele>131.12577</ele>
        <time>2025-05-13T18:36:57.667Z</time>
      </trkpt>
      <trkpt lat="44.15171" lon="1.75594">
        <ele>131.353483</ele>
        <time>2025-05-13T18:37:06.994Z</time>
      </trkpt>
      <trkpt lat="44.15173" lon="1.75608">
        <ele>131.52693</ele>
        <time>2025-05-13T18:37:14.077Z</time>
      </trkpt>
      <trkpt lat="44.15177" lon="1.75652">
        <ele>132.072461</ele>
        <time>2025-05-13T18:37:36.452Z</time>
      </trkpt>
      <trkpt lat="44.15178" lon="1.75662">
        <ele>132.186293</ele>
        <time>2025-05-13T18:37:41.080Z</time>
      </trkpt>
      <trkpt lat="44.15178" lon="1.75667">
        <ele>132.252378</ele>
        <time>2025-05-13T18:37:43.798Z</time>
      </trkpt>
      <trkpt lat="44.15173" lon="1.75668">
        <ele>132.337766</ele>
        <time>2025-05-13T18:37:44.715Z</time>
      </trkpt>
      <trkpt lat="44.1515" lon="1.75669">
        <ele>132.72811</ele>
        <time>2025-05-13T18:37:48.865Z</time>
      </trkpt>
      <trkpt lat="44.15144" lon="1.75668">
        <ele>132.833476</ele>
        <time>2025-05-13T18:37:49.989Z</time>
      </trkpt>
      <trkpt lat="44.15132" lon="1.75666">
        <ele>133.033187</ele>
        <time>2025-05-13T18:37:54.082Z</time>
      </trkpt>
      <trkpt lat="44.15125" lon="1.75664">
        <ele>133.150236</ele>
        <time>2025-05-13T18:37:56.454Z</time>
      </trkpt>
      <trkpt lat="44.15122" lon="1.75662">
        <ele>133.201926</ele>
        <time>2025-05-13T18:37:57.495Z</time>
      </trkpt>
      <trkpt lat="44.15106" lon="1.75655">
        <ele>133.410909</ele>
        <time>2025-05-13T18:38:03.883Z</time>
      </trkpt>
      <trkpt lat="44.15088" lon="1.75645">
        <ele>133.642465</ele>
        <time>2025-05-13T18:38:06.887Z</time>
      </trkpt>
      <trkpt lat="44.1508" lon="1.7564">
        <ele>133.748173</ele>
        <time>2025-05-13T18:38:08.020Z</time>
      </trkpt>
      <trkpt lat="44.15076" lon="1.75634">
        <ele>133.821752</ele>
        <time>2025-05-13T18:38:08.975Z</time>
      </trkpt>
      <trkpt lat="44.15066" lon="1.75627">
        <ele>133.950814</ele>
        <time>2025-05-13T18:38:10.286Z</time>
      </trkpt>
      <trkpt lat="44.15062" lon="1.75645">
        <ele>134.108798</ele>
        <time>2025-05-13T18:38:12.136Z</time>
      </trkpt>
      <trkpt lat="44.1506" lon="1.75659">
        <ele>134.236928</ele>
        <time>2025-05-13T18:38:13.759Z</time>
      </trkpt>
      <trkpt lat="44.1506" lon="1.75665">
        <ele>134.283891</ele>
        <time>2025-05-13T18:38:14.266Z</time>
      </trkpt>
      <trkpt lat="44.15055" lon="1.75689">
        <ele>134.504087</ele>
        <time>2025-05-13T18:38:16.956Z</time>
      </trkpt>
      <trkpt lat="44.15062" lon="1.75689">
        <ele>134.589707</ele>
        <time>2025-05-13T18:38:18.294Z</time>
      </trkpt>
      <trkpt lat="44.15076" lon="1.7569">
        <ele>134.758557</ele>
        <time>2025-05-13T18:38:21.049Z</time>
      </trkpt>
      <trkpt lat="44.15085" lon="1.7569">
        <ele>134.865918</ele>
        <time>2025-05-13T18:38:22.949Z</time>
      </trkpt>
      <trkpt lat="44.15082" lon="1.75756">
        <ele>135.493493</ele>
        <time>2025-05-13T18:38:37.598Z</time>
      </trkpt>
      <trkpt lat="44.15082" lon="1.75761">
        <ele>135.577799</ele>
        <time>2025-05-13T18:38:39.056Z</time>
      </trkpt>
      <trkpt lat="44.15066" lon="1.75786">
        <ele>136.146441</ele>
        <time>2025-05-13T18:38:48.090Z</time>
      </trkpt>
      <trkpt lat="44.1506" lon="1.75799">
        <ele>136.384531</ele>
        <time>2025-05-13T18:38:52.204Z</time>
      </trkpt>
      <trkpt lat="44.15059" lon="1.75805">
        <ele>136.500407</ele>
        <time>2025-05-13T18:38:54.058Z</time>
      </trkpt>
      <trkpt lat="44.15062" lon="1.75944">
        <ele>138.801663</ele>
        <time>2025-05-13T18:39:19.567Z</time>
      </trkpt>
      <trkpt lat="44.15061" lon="1.75962">
        <ele>139.09423</ele>
        <time>2025-05-13T18:39:21.173Z</time>
      </trkpt>
      <trkpt lat="44.15058" lon="1.75978">
        <ele>139.369329</ele>
        <time>2025-05-13T18:39:22.645Z</time>
      </trkpt>
      <trkpt lat="44.15038" lon="1.76015">
        <ele>138.848977</ele>
        <time>2025-05-13T18:39:26.398Z</time>
      </trkpt>
      <trkpt lat="44.15022" lon="1.7604">
        <ele>138.249577</ele>
        <time>2025-05-13T18:39:29.047Z</time>
      </trkpt>
      <trkpt lat="44.15018" lon="1.76046">
        <ele>138.106903</ele>
        <time>2025-05-13T18:39:29.673Z</time>
      </trkpt>
      <trkpt lat="44.1501" lon="1.7606">
        <ele>137.790642</ele>
        <time>2025-05-13T18:39:31.003Z</time>
      </trkpt>
      <trkpt lat="44.14999" lon="1.7609">
        <ele>137.19261</ele>
        <time>2025-05-13T18:39:33.413Z</time>
      </trkpt>
      <trkpt lat="44.14984" lon="1.76154">
        <ele>136.006204</ele>
        <time>2025-05-13T18:39:38.099Z</time>
      </trkpt>
      <trkpt lat="44.14977" lon="1.7618">
        <ele>135.50902</ele>
        <time>2025-05-13T18:39:40.120Z</time>
      </trkpt>
      <trkpt lat="44.14961" lon="1.76256">
        <ele>134.272761</ele>
        <time>2025-05-13T18:39:46.420Z</time>
      </trkpt>
      <trkpt lat="44.14958" lon="1.7627">
        <ele>134.050383</ele>
        <time>2025-05-13T18:39:47.640Z</time>
      </trkpt>
      <trkpt lat="44.14955" lon="1.76285">
        <ele>133.822622</ele>
        <time>2025-05-13T18:39:48.874Z</time>
      </trkpt>
      <trkpt lat="44.14951" lon="1.76338">
        <ele>133.027836</ele>
        <time>2025-05-13T18:39:53.026Z</time>
      </trkpt>
      <trkpt lat="44.14952" lon="1.76362">
        <ele>132.676446</ele>
        <time>2025-05-13T18:39:54.815Z</time>
      </trkpt>
      <trkpt lat="44.1496" lon="1.764">
        <ele>132.085097</ele>
        <time>2025-05-13T18:39:57.872Z</time>
      </trkpt>
      <trkpt lat="44.14969" lon="1.76423">
        <ele>131.692574</ele>
        <time>2025-05-13T18:39:59.929Z</time>
      </trkpt>
      <trkpt lat="44.1509" lon="1.76613">
        <ele>129.861711</ele>
        <time>2025-05-13T18:40:22.205Z</time>
      </trkpt>
      <trkpt lat="44.15117" lon="1.76649">
        <ele>129.741326</ele>
        <time>2025-05-13T18:40:28.045Z</time>
      </trkpt>
      <trkpt lat="44.15239" lon="1.76784">
        <ele>129.764305</ele>
        <time>2025-05-13T18:40:52.707Z</time>
      </trkpt>
      <trkpt lat="44.15258" lon="1.76812">
        <ele>129.523403</ele>
        <time>2025-05-13T18:40:56.222Z</time>
      </trkpt>
      <trkpt lat="44.15292" lon="1.76878">
        <ele>129.003937</ele>
        <time>2025-05-13T18:41:03.667Z</time>
      </trkpt>
      <trkpt lat="44.15316" lon="1.76938">
        <ele>128.574817</ele>
        <time>2025-05-13T18:41:09.510Z</time>
      </trkpt>
      <trkpt lat="44.15336" lon="1.7698">
        <ele>128.253795</ele>
        <time>2025-05-13T18:41:13.858Z</time>
      </trkpt>
      <trkpt lat="44.15385" lon="1.77075">
        <ele>126.879861</ele>
        <time>2025-05-13T18:41:23.595Z</time>
      </trkpt>
      <trkpt lat="44.15399" lon="1.77115">
        <ele>126.342925</ele>
        <time>2025-05-13T18:41:26.996Z</time>
      </trkpt>
      <trkpt lat="44.1541" lon="1.77171">
        <ele>125.629577</ele>
        <time>2025-05-13T18:41:31.465Z</time>
      </trkpt>
      <trkpt lat="44.15409" lon="1.77203">
        <ele>125.236152</ele>
        <time>2025-05-13T18:41:33.977Z</time>
      </trkpt>
      <trkpt lat="44.15401" lon="1.77267">
        <ele>124.777192</ele>
        <time>2025-05-13T18:41:39.450Z</time>
      </trkpt>
      <trkpt lat="44.15389" lon="1.77335">
        <ele>124.363092</ele>
        <time>2025-05-13T18:41:45.816Z</time>
      </trkpt>
      <trkpt lat="44.15377" lon="1.77394">
        <ele>124.000894</ele>
        <time>2025-05-13T18:41:51.769Z</time>
      </trkpt>
      <trkpt lat="44.15362" lon="1.77473">
        <ele>123.567391</ele>
        <time>2025-05-13T18:41:59.939Z</time>
      </trkpt>
      <trkpt lat="44.15341" lon="1.77545">
        <ele>123.352122</ele>
        <time>2025-05-13T18:42:06.988Z</time>
      </trkpt>
      <trkpt lat="44.15318" lon="1.77611">
        <ele>123.152752</ele>
        <time>2025-05-13T18:42:13.428Z</time>
      </trkpt>
      <trkpt lat="44.15295" lon="1.77674">
        <ele>122.956811</ele>
        <time>2025-05-13T18:42:20.762Z</time>
      </trkpt>
      <trkpt lat="44.15269" lon="1.77749">
        <ele>123.499899</ele>
        <time>2025-05-13T18:42:30.591Z</time>
      </trkpt>
      <trkpt lat="44.15261" lon="1.77784">
        <ele>123.807692</ele>
        <time>2025-05-13T18:42:35.656Z</time>
      </trkpt>
      <trkpt lat="44.15254" lon="1.77834">
        <ele>124.238256</ele>
        <time>2025-05-13T18:42:43.663Z</time>
      </trkpt>
      <trkpt lat="44.1525" lon="1.77858">
        <ele>124.44289</ele>
        <time>2025-05-13T18:42:47.635Z</time>
      </trkpt>
      <trkpt lat="44.15245" lon="1.77898">
        <ele>124.784585</ele>
        <time>2025-05-13T18:42:54.164Z</time>
      </trkpt>
      <trkpt lat="44.15235" lon="1.77967">
        <ele>125.268124</ele>
        <time>2025-05-13T18:43:04.946Z</time>
      </trkpt>
      <trkpt lat="44.15225" lon="1.78046">
        <ele>125.740742</ele>
        <time>2025-05-13T18:43:15.840Z</time>
      </trkpt>
      <trkpt lat="44.1522" lon="1.78115">
        <ele>126.152684</ele>
        <time>2025-05-13T18:43:24.884Z</time>
      </trkpt>
      <trkpt lat="44.15214" lon="1.78164">
        <ele>126.447012</ele>
        <time>2025-05-13T18:43:30.785Z</time>
      </trkpt>
      <trkpt lat="44.15202" lon="1.78214">
        <ele>126.171801</ele>
        <time>2025-05-13T18:43:35.929Z</time>
      </trkpt>
      <trkpt lat="44.15198" lon="1.78224">
        <ele>126.081052</ele>
        <time>2025-05-13T18:43:37.001Z</time>
      </trkpt>
      <trkpt lat="44.15191" lon="1.78241">
        <ele>125.935579</ele>
        <time>2025-05-13T18:43:38.697Z</time>
      </trkpt>
      <trkpt lat="44.15178" lon="1.7826">
        <ele>125.737925</ele>
        <time>2025-05-13T18:43:40.927Z</time>
      </trkpt>
      <trkpt lat="44.15159" lon="1.78267">
        <ele>125.538372</ele>
        <time>2025-05-13T18:43:43.122Z</time>
      </trkpt>
      <trkpt lat="44.15135" lon="1.78258">
        <ele>125.275079</ele>
        <time>2025-05-13T18:43:46.055Z</time>
      </trkpt>
      <trkpt lat="44.15113" lon="1.78242">
        <ele>125.014857</ele>
        <time>2025-05-13T18:43:48.975Z</time>
      </trkpt>
      <trkpt lat="44.1509" lon="1.78219">
        <ele>124.719416</ele>
        <time>2025-05-13T18:43:52.266Z</time>
      </trkpt>
      <trkpt lat="44.15058" lon="1.78179">
        <ele>124.393646</ele>
        <time>2025-05-13T18:43:57.032Z</time>
      </trkpt>
      <trkpt lat="44.15036" lon="1.78174">
        <ele>124.251104</ele>
        <time>2025-05-13T18:43:59.501Z</time>
      </trkpt>
      <trkpt lat="44.15026" lon="1.78179">
        <ele>124.178899</ele>
        <time>2025-05-13T18:44:00.780Z</time>
      </trkpt>
      <trkpt lat="44.14951" lon="1.78246">
        <ele>123.586605</ele>
        <time>2025-05-13T18:44:13.002Z</time>
      </trkpt>
      <trkpt lat="44.14896" lon="1.78299">
        <ele>123.765009</ele>
        <time>2025-05-13T18:44:24.042Z</time>
      </trkpt>
      <trkpt lat="44.14842" lon="1.78352">
        <ele>124.310758</ele>
        <time>2025-05-13T18:44:36.001Z</time>
      </trkpt>
      <trkpt lat="44.1483" lon="1.78374">
        <ele>124.469227</ele>
        <time>2025-05-13T18:44:39.693Z</time>
      </trkpt>
      <trkpt lat="44.14813" lon="1.78423">
        <ele>124.785783</ele>
        <time>2025-05-13T18:44:47.269Z</time>
      </trkpt>
      <trkpt lat="44.14806" lon="1.78436">
        <ele>124.886235</ele>
        <time>2025-05-13T18:44:49.725Z</time>
      </trkpt>
      <trkpt lat="44.14788" lon="1.78457">
        <ele>125.149118</ele>
        <time>2025-05-13T18:44:54.384Z</time>
      </trkpt>
      <trkpt lat="44.14634" lon="1.78605">
        <ele>127.143904</ele>
        <time>2025-05-13T18:45:31.049Z</time>
      </trkpt>
      <trkpt lat="44.14623" lon="1.78618">
        <ele>127.220459</ele>
        <time>2025-05-13T18:45:33.511Z</time>
      </trkpt>
      <trkpt lat="44.14533" lon="1.7875">
        <ele>127.909685</ele>
        <time>2025-05-13T18:45:54.915Z</time>
      </trkpt>
      <trkpt lat="44.14496" lon="1.78813">
        <ele>127.794656</ele>
        <time>2025-05-13T18:46:04.056Z</time>
      </trkpt>
      <trkpt lat="44.14411" lon="1.7898">
        <ele>127.414558</ele>
        <time>2025-05-13T18:46:23.439Z</time>
      </trkpt>
      <trkpt lat="44.14396" lon="1.79019">
        <ele>127.371026</ele>
        <time>2025-05-13T18:46:27.645Z</time>
      </trkpt>
      <trkpt lat="44.14383" lon="1.79071">
        <ele>127.316141</ele>
        <time>2025-05-13T18:46:33.324Z</time>
      </trkpt>
      <trkpt lat="44.14374" lon="1.79125">
        <ele>127.260997</ele>
        <time>2025-05-13T18:46:39.189Z</time>
      </trkpt>
      <trkpt lat="44.14372" lon="1.79184">
        <ele>127.202582</ele>
        <time>2025-05-13T18:46:45.887Z</time>
      </trkpt>
      <trkpt lat="44.14386" lon="1.79436">
        <ele>127.361958</ele>
        <time>2025-05-13T18:47:13.313Z</time>
      </trkpt>
      <trkpt lat="44.14401" lon="1.79759">
        <ele>127.464094</ele>
        <time>2025-05-13T18:47:47.552Z</time>
      </trkpt>
      <trkpt lat="44.14407" lon="1.79846">
        <ele>127.628209</ele>
        <time>2025-05-13T18:47:57.607Z</time>
      </trkpt>
      <trkpt lat="44.14428" lon="1.79999">
        <ele>127.907803</ele>
        <time>2025-05-13T18:48:16.366Z</time>
      </trkpt>
      <trkpt lat="44.14448" lon="1.80057">
        <ele>128.010849</ele>
        <time>2025-05-13T18:48:23.807Z</time>
      </trkpt>
      <trkpt lat="44.14472" lon="1.80097">
        <ele>128.094988</ele>
        <time>2025-05-13T18:48:29.637Z</time>
      </trkpt>
      <trkpt lat="44.14498" lon="1.80149">
        <ele>128.197088</ele>
        <time>2025-05-13T18:48:36.391Z</time>
      </trkpt>
      <trkpt lat="44.14513" lon="1.80193">
        <ele>128.151468</ele>
        <time>2025-05-13T18:48:41.344Z</time>
      </trkpt>
      <trkpt lat="44.14516" lon="1.80255">
        <ele>128.035211</ele>
        <time>2025-05-13T18:48:47.517Z</time>
      </trkpt>
      <trkpt lat="44.14514" lon="1.80366">
        <ele>127.828533</ele>
        <time>2025-05-13T18:48:58.308Z</time>
      </trkpt>
      <trkpt lat="44.14505" lon="1.80449">
        <ele>127.759675</ele>
        <time>2025-05-13T18:49:06.509Z</time>
      </trkpt>
      <trkpt lat="44.1444" lon="1.80749">
        <ele>127.915743</ele>
        <time>2025-05-13T18:49:41.488Z</time>
      </trkpt>
      <trkpt lat="44.14423" lon="1.80803">
        <ele>127.97919</ele>
        <time>2025-05-13T18:49:48.341Z</time>
      </trkpt>
      <trkpt lat="44.1436" lon="1.80916">
        <ele>127.740469</ele>
        <time>2025-05-13T18:50:03.563Z</time>
      </trkpt>
      <trkpt lat="44.14347" lon="1.80947">
        <ele>127.532704</ele>
        <time>2025-05-13T18:50:07.158Z</time>
      </trkpt>
      <trkpt lat="44.14314" lon="1.81057">
        <ele>126.836264</ele>
        <time>2025-05-13T18:50:17.532Z</time>
      </trkpt>
      <trkpt lat="44.14307" lon="1.81089">
        <ele>126.637872</ele>
        <time>2025-05-13T18:50:20.257Z</time>
      </trkpt>
      <trkpt lat="44.14304" lon="1.811">
        <ele>126.561459</ele>
        <time>2025-05-13T18:50:21.130Z</time>
      </trkpt>
      <trkpt lat="44.14303" lon="1.81108">
        <ele>126.494668</ele>
        <time>2025-05-13T18:50:21.835Z</time>
      </trkpt>
      <trkpt lat="44.14282" lon="1.8109">
        <ele>126.229281</ele>
        <time>2025-05-13T18:50:25.732Z</time>
      </trkpt>
      <trkpt lat="44.14265" lon="1.81087">
        <ele>126.04816</ele>
        <time>2025-05-13T18:50:28.481Z</time>
      </trkpt>
      <trkpt lat="44.1425" lon="1.81092">
        <ele>125.875394</ele>
        <time>2025-05-13T18:50:31.138Z</time>
      </trkpt>
      <trkpt lat="44.142" lon="1.81119">
        <ele>125.303664</ele>
        <time>2025-05-13T18:50:40.073Z</time>
      </trkpt>
      <trkpt lat="44.14182" lon="1.81126">
        <ele>125.094439</ele>
        <time>2025-05-13T18:50:43.310Z</time>
      </trkpt>
      <trkpt lat="44.14074" lon="1.81137">
        <ele>124.883542</ele>
        <time>2025-05-13T18:51:04.593Z</time>
      </trkpt>
      <trkpt lat="44.13984" lon="1.8114">
        <ele>125.17795</ele>
        <time>2025-05-13T18:51:24.987Z</time>
      </trkpt>
      <trkpt lat="44.13965" lon="1.81149">
        <ele>125.244425</ele>
        <time>2025-05-13T18:51:29.785Z</time>
      </trkpt>
      <trkpt lat="44.13915" lon="1.81185">
        <ele>125.650434</ele>
        <time>2025-05-13T18:51:43.267Z</time>
      </trkpt>
      <trkpt lat="44.13841" lon="1.81222">
        <ele>126.229661</ele>
        <time>2025-05-13T18:52:02.042Z</time>
      </trkpt>
      <trkpt lat="44.13727" lon="1.81266">
        <ele>126.893881</ele>
        <time>2025-05-13T18:52:27.841Z</time>
      </trkpt>
      <trkpt lat="44.13585" lon="1.81313">
        <ele>127.870188</ele>
        <time>2025-05-13T18:52:59.462Z</time>
      </trkpt>
      <trkpt lat="44.13559" lon="1.81329">
        <ele>128.257361</ele>
        <time>2025-05-13T18:53:06.452Z</time>
      </trkpt>
      <trkpt lat="44.13529" lon="1.81357">
        <ele>128.734953</ele>
        <time>2025-05-13T18:53:15.606Z</time>
      </trkpt>
      <trkpt lat="44.13516" lon="1.81374">
        <ele>128.970403</ele>
        <time>2025-05-13T18:53:20.424Z</time>
      </trkpt>
      <trkpt lat="44.13499" lon="1.81407">
        <ele>129.356898</ele>
        <time>2025-05-13T18:53:28.719Z</time>
      </trkpt>
      <trkpt lat="44.1348" lon="1.81462">
        <ele>129.964881</ele>
        <time>2025-05-13T18:53:41.244Z</time>
      </trkpt>
      <trkpt lat="44.13471" lon="1.8147">
        <ele>130.133686</ele>
        <time>2025-05-13T18:53:44.496Z</time>
      </trkpt>
      <trkpt lat="44.13446" lon="1.8148">
        <ele>130.518972</ele>
        <time>2025-05-13T18:53:51.845Z</time>
      </trkpt>
      <trkpt lat="44.13435" lon="1.8149">
        <ele>130.724732</ele>
        <time>2025-05-13T18:53:55.751Z</time>
      </trkpt>
      <trkpt lat="44.13393" lon="1.815">
        <ele>131.36357</ele>
        <time>2025-05-13T18:54:05.164Z</time>
      </trkpt>
      <trkpt lat="44.1337" lon="1.81518">
        <ele>131.774164</ele>
        <time>2025-05-13T18:54:10.752Z</time>
      </trkpt>
      <trkpt lat="44.1333" lon="1.81558">
        <ele>132.505932</ele>
        <time>2025-05-13T18:54:19.558Z</time>
      </trkpt>
      <trkpt lat="44.13204" lon="1.81704">
        <ele>132.957061</ele>
        <time>2025-05-13T18:54:44.777Z</time>
      </trkpt>
      <trkpt lat="44.13161" lon="1.81773">
        <ele>132.791391</ele>
        <time>2025-05-13T18:54:55.139Z</time>
      </trkpt>
      <trkpt lat="44.13139" lon="1.8181">
        <ele>132.651839</ele>
        <time>2025-05-13T18:55:01.417Z</time>
      </trkpt>
      <trkpt lat="44.13102" lon="1.8188">
        <ele>132.398508</ele>
        <time>2025-05-13T18:55:10.694Z</time>
      </trkpt>
      <trkpt lat="44.13099" lon="1.81887">
        <ele>132.376075</ele>
        <time>2025-05-13T18:55:11.312Z</time>
      </trkpt>
      <trkpt lat="44.13082" lon="1.81919">
        <ele>132.259104</ele>
        <time>2025-05-13T18:55:14.161Z</time>
      </trkpt>
      <trkpt lat="44.13065" lon="1.81948">
        <ele>132.097308</ele>
        <time>2025-05-13T18:55:16.973Z</time>
      </trkpt>
      <trkpt lat="44.13059" lon="1.81952">
        <ele>132.058393</ele>
        <time>2025-05-13T18:55:17.661Z</time>
      </trkpt>
      <trkpt lat="44.13044" lon="1.81957">
        <ele>131.965255</ele>
        <time>2025-05-13T18:55:19.368Z</time>
      </trkpt>
      <trkpt lat="44.13029" lon="1.81959">
        <ele>131.879806</ele>
        <time>2025-05-13T18:55:20.973Z</time>
      </trkpt>
      <trkpt lat="44.13022" lon="1.8196">
        <ele>131.837237</ele>
        <time>2025-05-13T18:55:21.822Z</time>
      </trkpt>
      <trkpt lat="44.12986" lon="1.81962">
        <ele>131.624986</ele>
        <time>2025-05-13T18:55:26.100Z</time>
      </trkpt>
      <trkpt lat="44.12865" lon="1.81975">
        <ele>132.401236</ele>
        <time>2025-05-13T18:55:49.537Z</time>
      </trkpt>
      <trkpt lat="44.1284" lon="1.81978">
        <ele>132.995768</ele>
        <time>2025-05-13T18:55:57.174Z</time>
      </trkpt>
      <trkpt lat="44.1284" lon="1.82006">
        <ele>133.464708</ele>
        <time>2025-05-13T18:56:03.909Z</time>
      </trkpt>
      <trkpt lat="44.12851" lon="1.82146">
        <ele>135.519164</ele>
        <time>2025-05-13T18:56:35.750Z</time>
      </trkpt>
      <trkpt lat="44.1286" lon="1.82196">
        <ele>135.613624</ele>
        <time>2025-05-13T18:56:46.188Z</time>
      </trkpt>
      <trkpt lat="44.12891" lon="1.82312">
        <ele>135.838122</ele>
        <time>2025-05-13T18:57:04.618Z</time>
      </trkpt>
      <trkpt lat="44.12903" lon="1.82336">
        <ele>135.89206</ele>
        <time>2025-05-13T18:57:08.004Z</time>
      </trkpt>
      <trkpt lat="44.12931" lon="1.82377">
        <ele>135.593805</ele>
        <time>2025-05-13T18:57:14.158Z</time>
      </trkpt>
      <trkpt lat="44.12976" lon="1.82443">
        <ele>134.640056</ele>
        <time>2025-05-13T18:57:24.053Z</time>
      </trkpt>
      <trkpt lat="44.12994" lon="1.82477">
        <ele>134.209096</ele>
        <time>2025-05-13T18:57:28.721Z</time>
      </trkpt>
      <trkpt lat="44.13056" lon="1.82613">
        <ele>134.121458</ele>
        <time>2025-05-13T18:57:51.948Z</time>
      </trkpt>
      <trkpt lat="44.13117" lon="1.82769">
        <ele>135.93413</ele>
        <time>2025-05-13T18:58:29.464Z</time>
      </trkpt>
      <trkpt lat="44.13119" lon="1.82784">
        <ele>136.026861</ele>
        <time>2025-05-13T18:58:32.438Z</time>
      </trkpt>
      <trkpt lat="44.13118" lon="1.82795">
        <ele>136.09547</ele>
        <time>2025-05-13T18:58:34.647Z</time>
      </trkpt>
      <trkpt lat="44.13108" lon="1.82804">
        <ele>136.195434</ele>
        <time>2025-05-13T18:58:38.062Z</time>
      </trkpt>
      <trkpt lat="44.13168" lon="1.82919">
        <ele>137.076211</ele>
        <time>2025-05-13T18:58:58.396Z</time>
      </trkpt>
      <trkpt lat="44.13195" lon="1.82959">
        <ele>137.413654</ele>
        <time>2025-05-13T18:59:03.256Z</time>
      </trkpt>
      <trkpt lat="44.13226" lon="1.82998">
        <ele>137.124174</ele>
        <time>2025-05-13T18:59:08.302Z</time>
      </trkpt>
      <trkpt lat="44.13476" lon="1.83268">
        <ele>134.652566</ele>
        <time>2025-05-13T18:59:47.357Z</time>
      </trkpt>
      <trkpt lat="44.13612" lon="1.83413">
        <ele>135.081375</ele>
        <time>2025-05-13T19:00:18.482Z</time>
      </trkpt>
      <trkpt lat="44.13661" lon="1.83455">
        <ele>134.573769</ele>
        <time>2025-05-13T19:00:25.211Z</time>
      </trkpt>
      <trkpt lat="44.13709" lon="1.83488">
        <ele>133.863236</ele>
        <time>2025-05-13T19:00:31.100Z</time>
      </trkpt>
      <trkpt lat="44.13718" lon="1.83493">
        <ele>133.737956</ele>
        <time>2025-05-13T19:00:32.125Z</time>
      </trkpt>
      <trkpt lat="44.13871" lon="1.83588">
        <ele>133.450438</ele>
        <time>2025-05-13T19:00:52.305Z</time>
      </trkpt>
      <trkpt lat="44.13895" lon="1.83604">
        <ele>133.641711</ele>
        <time>2025-05-13T19:00:57.870Z</time>
      </trkpt>
      <trkpt lat="44.13927" lon="1.83636">
        <ele>133.930073</ele>
        <time>2025-05-13T19:01:08.577Z</time>
      </trkpt>
      <trkpt lat="44.13945" lon="1.83658">
        <ele>134.141684</ele>
        <time>2025-05-13T19:01:15.527Z</time>
      </trkpt>
      <trkpt lat="44.13962" lon="1.83681">
        <ele>134.571598</ele>
        <time>2025-05-13T19:01:22.148Z</time>
      </trkpt>
      <trkpt lat="44.13993" lon="1.83737">
        <ele>135.529293</ele>
        <time>2025-05-13T19:01:35.953Z</time>
      </trkpt>
      <trkpt lat="44.14019" lon="1.83804">
        <ele>136.532498</ele>
        <time>2025-05-13T19:01:48.026Z</time>
      </trkpt>
      <trkpt lat="44.14027" lon="1.8383">
        <ele>136.912428</ele>
        <time>2025-05-13T19:01:52.059Z</time>
      </trkpt>
      <trkpt lat="44.14037" lon="1.83874">
        <ele>137.385483</ele>
        <time>2025-05-13T19:01:56.945Z</time>
      </trkpt>
      <trkpt lat="44.14042" lon="1.83911">
        <ele>137.25628</ele>
        <time>2025-05-13T19:02:00.222Z</time>
      </trkpt>
      <trkpt lat="44.14045" lon="1.83981">
        <ele>137.013736</ele>
        <time>2025-05-13T19:02:06.427Z</time>
      </trkpt>
      <trkpt lat="44.14038" lon="1.84058">
        <ele>136.747123</ele>
        <time>2025-05-13T19:02:14.132Z</time>
      </trkpt>
      <trkpt lat="44.1403" lon="1.84107">
        <ele>136.574142</ele>
        <time>2025-05-13T19:02:19.576Z</time>
      </trkpt>
      <trkpt lat="44.13976" lon="1.84344">
        <ele>134.046605</ele>
        <time>2025-05-13T19:02:40.453Z</time>
      </trkpt>
      <trkpt lat="44.13975" lon="1.84347">
        <ele>134.014911</ele>
        <time>2025-05-13T19:02:40.671Z</time>
      </trkpt>
      <trkpt lat="44.13948" lon="1.84468">
        <ele>134.375303</ele>
        <time>2025-05-13T19:02:49.990Z</time>
      </trkpt>
      <trkpt lat="44.13948" lon="1.8447">
        <ele>134.383036</ele>
        <time>2025-05-13T19:02:50.166Z</time>
      </trkpt>
      <trkpt lat="44.13803" lon="1.85104">
        <ele>138.133192</ele>
        <time>2025-05-13T19:04:30.034Z</time>
      </trkpt>
      <trkpt lat="44.13794" lon="1.85167">
        <ele>137.86112</ele>
        <time>2025-05-13T19:04:37.673Z</time>
      </trkpt>
      <trkpt lat="44.1379" lon="1.85229">
        <ele>137.592653</ele>
        <time>2025-05-13T19:04:43.345Z</time>
      </trkpt>
      <trkpt lat="44.13795" lon="1.85298">
        <ele>137.298704</ele>
        <time>2025-05-13T19:04:48.765Z</time>
      </trkpt>
      <trkpt lat="44.138" lon="1.85335">
        <ele>136.965964</ele>
        <time>2025-05-13T19:04:51.612Z</time>
      </trkpt>
      <trkpt lat="44.13808" lon="1.85373">
        <ele>136.442241</ele>
        <time>2025-05-13T19:04:54.585Z</time>
      </trkpt>
      <trkpt lat="44.13822" lon="1.85422">
        <ele>135.751373</ele>
        <time>2025-05-13T19:04:58.529Z</time>
      </trkpt>
      <trkpt lat="44.13837" lon="1.85459">
        <ele>135.196116</ele>
        <time>2025-05-13T19:05:01.785Z</time>
      </trkpt>
      <trkpt lat="44.13859" lon="1.85501">
        <ele>134.521573</ele>
        <time>2025-05-13T19:05:06.009Z</time>
      </trkpt>
      <trkpt lat="44.13879" lon="1.85532">
        <ele>133.968468</ele>
        <time>2025-05-13T19:05:09.797Z</time>
      </trkpt>
      <trkpt lat="44.13899" lon="1.85558">
        <ele>133.982695</ele>
        <time>2025-05-13T19:05:13.570Z</time>
      </trkpt>
      <trkpt lat="44.14162" lon="1.85846">
        <ele>134.344817</ele>
        <time>2025-05-13T19:06:09.287Z</time>
      </trkpt>
      <trkpt lat="44.14173" lon="1.85859">
        <ele>133.967045</ele>
        <time>2025-05-13T19:06:10.882Z</time>
      </trkpt>
      <trkpt lat="44.14297" lon="1.85997">
        <ele>129.757382</ele>
        <time>2025-05-13T19:06:26.885Z</time>
      </trkpt>
      <trkpt lat="44.14342" lon="1.86054">
        <ele>128.651038</ele>
        <time>2025-05-13T19:06:33.181Z</time>
      </trkpt>
      <trkpt lat="44.14359" lon="1.86082">
        <ele>128.201063</ele>
        <time>2025-05-13T19:06:36.024Z</time>
      </trkpt>
      <trkpt lat="44.14383" lon="1.86126">
        <ele>127.527718</ele>
        <time>2025-05-13T19:06:40.514Z</time>
      </trkpt>
      <trkpt lat="44.14413" lon="1.86208">
        <ele>126.576138</ele>
        <time>2025-05-13T19:06:49.056Z</time>
      </trkpt>
      <trkpt lat="44.14425" lon="1.86255">
        <ele>126.944589</ele>
        <time>2025-05-13T19:06:54.539Z</time>
      </trkpt>
      <trkpt lat="44.14429" lon="1.86276">
        <ele>127.111074</ele>
        <time>2025-05-13T19:06:57.264Z</time>
      </trkpt>
      <trkpt lat="44.14438" lon="1.86367">
        <ele>127.794824</ele>
        <time>2025-05-13T19:07:10.155Z</time>
      </trkpt>
      <trkpt lat="44.14438" lon="1.86418">
        <ele>128.17799</ele>
        <time>2025-05-13T19:07:18.979Z</time>
      </trkpt>
      <trkpt lat="44.14432" lon="1.8649">
        <ele>128.899227</ele>
        <time>2025-05-13T19:07:30.880Z</time>
      </trkpt>
      <trkpt lat="44.1443" lon="1.86505">
        <ele>129.069852</ele>
        <time>2025-05-13T19:07:33.240Z</time>
      </trkpt>
      <trkpt lat="44.14425" lon="1.86546">
        <ele>129.544059</ele>
        <time>2025-05-13T19:07:39.564Z</time>
      </trkpt>
      <trkpt lat="44.1442" lon="1.86589">
        <ele>130.045412</ele>
        <time>2025-05-13T19:07:46.141Z</time>
      </trkpt>
      <trkpt lat="44.14414" lon="1.8664">
        <ele>130.626447</ele>
        <time>2025-05-13T19:07:53.680Z</time>
      </trkpt>
      <trkpt lat="44.14408" lon="1.86699">
        <ele>131.297682</ele>
        <time>2025-05-13T19:08:02.114Z</time>
      </trkpt>
      <trkpt lat="44.14371" lon="1.87015">
        <ele>134.15211</ele>
        <time>2025-05-13T19:08:49.086Z</time>
      </trkpt>
      <trkpt lat="44.14322" lon="1.87431">
        <ele>136.21986</ele>
        <time>2025-05-13T19:09:40.623Z</time>
      </trkpt>
      <trkpt lat="44.14316" lon="1.87489">
        <ele>136.574076</ele>
        <time>2025-05-13T19:09:48.405Z</time>
      </trkpt>
      <trkpt lat="44.14312" lon="1.87519">
        <ele>136.766658</ele>
        <time>2025-05-13T19:09:52.568Z</time>
      </trkpt>
      <trkpt lat="44.14297" lon="1.87653">
        <ele>137.611385</ele>
        <time>2025-05-13T19:10:10.811Z</time>
      </trkpt>
      <trkpt lat="44.14254" lon="1.88021">
        <ele>139.380185</ele>
        <time>2025-05-13T19:10:57.356Z</time>
      </trkpt>
      <trkpt lat="44.1425" lon="1.88129">
        <ele>139.846838</ele>
        <time>2025-05-13T19:11:10.837Z</time>
      </trkpt>
      <trkpt lat="44.14251" lon="1.88258">
        <ele>140.147022</ele>
        <time>2025-05-13T19:11:26.502Z</time>
      </trkpt>
      <trkpt lat="44.14254" lon="1.88367">
        <ele>140.258618</ele>
        <time>2025-05-13T19:11:37.726Z</time>
      </trkpt>
      <trkpt lat="44.14254" lon="1.8838">
        <ele>140.272695</ele>
        <time>2025-05-13T19:11:39.078Z</time>
      </trkpt>
      <trkpt lat="44.14248" lon="1.88427">
        <ele>140.321303</ele>
        <time>2025-05-13T19:11:43.930Z</time>
      </trkpt>
      <trkpt lat="44.14247" lon="1.88449">
        <ele>140.325099</ele>
        <time>2025-05-13T19:11:46.313Z</time>
      </trkpt>
      <trkpt lat="44.14249" lon="1.8853">
        <ele>140.330996</ele>
        <time>2025-05-13T19:11:55.751Z</time>
      </trkpt>
      <trkpt lat="44.14253" lon="1.88556">
        <ele>140.332909</ele>
        <time>2025-05-13T19:11:58.734Z</time>
      </trkpt>
      <trkpt lat="44.1426" lon="1.88594">
        <ele>140.335743</ele>
        <time>2025-05-13T19:12:03.023Z</time>
      </trkpt>
      <trkpt lat="44.14262" lon="1.88653">
        <ele>140.340036</ele>
        <time>2025-05-13T19:12:09.457Z</time>
      </trkpt>
      <trkpt lat="44.14265" lon="1.88774">
        <ele>140.090467</ele>
        <time>2025-05-13T19:12:20.703Z</time>
      </trkpt>
      <trkpt lat="44.14275" lon="1.88829">
        <ele>139.939921</ele>
        <time>2025-05-13T19:12:25.585Z</time>
      </trkpt>
      <trkpt lat="44.14362" lon="1.89091">
        <ele>140.075765</ele>
        <time>2025-05-13T19:12:58.102Z</time>
      </trkpt>
      <trkpt lat="44.14374" lon="1.89134">
        <ele>140.170335</ele>
        <time>2025-05-13T19:13:03.010Z</time>
      </trkpt>
      <trkpt lat="44.14381" lon="1.89168">
        <ele>140.448904</ele>
        <time>2025-05-13T19:13:07.203Z</time>
      </trkpt>
      <trkpt lat="44.14394" lon="1.89257">
        <ele>141.467926</ele>
        <time>2025-05-13T19:13:19.904Z</time>
      </trkpt>
      <trkpt lat="44.14396" lon="1.893">
        <ele>141.945712</ele>
        <time>2025-05-13T19:13:26.378Z</time>
      </trkpt>
      <trkpt lat="44.14395" lon="1.89325">
        <ele>142.229494</ele>
        <time>2025-05-13T19:13:29.928Z</time>
      </trkpt>
      <trkpt lat="44.14385" lon="1.89399">
        <ele>143.191245</ele>
        <time>2025-05-13T19:13:42.513Z</time>
      </trkpt>
      <trkpt lat="44.14386" lon="1.89436">
        <ele>144.361426</ele>
        <time>2025-05-13T19:13:50.560Z</time>
      </trkpt>
      <trkpt lat="44.1439" lon="1.89466">
        <ele>145.300929</ele>
        <time>2025-05-13T19:13:57.226Z</time>
      </trkpt>
      <trkpt lat="44.14426" lon="1.89607">
        <ele>150.006707</ele>
        <time>2025-05-13T19:14:34.988Z</time>
      </trkpt>
      <trkpt lat="44.14442" lon="1.89659">
        <ele>151.438789</ele>
        <time>2025-05-13T19:14:49.009Z</time>
      </trkpt>
      <trkpt lat="44.14502" lon="1.89783">
        <ele>154.537235</ele>
        <time>2025-05-13T19:15:22.965Z</time>
      </trkpt>
      <trkpt lat="44.14512" lon="1.89793">
        <ele>154.902742</ele>
        <time>2025-05-13T19:15:25.574Z</time>
      </trkpt>
      <trkpt lat="44.14522" lon="1.89798">
        <ele>155.194537</ele>
        <time>2025-05-13T19:15:27.470Z</time>
      </trkpt>
      <trkpt lat="44.1453" lon="1.89838">
        <ele>156.010429</ele>
        <time>2025-05-13T19:15:31.893Z</time>
      </trkpt>
      <trkpt lat="44.14556" lon="1.89909">
        <ele>153.865266</ele>
        <time>2025-05-13T19:15:38.259Z</time>
      </trkpt>
      <trkpt lat="44.14633" lon="1.90091">
        <ele>148.218236</ele>
        <time>2025-05-13T19:15:52.468Z</time>
      </trkpt>
      <trkpt lat="44.1465" lon="1.90123">
        <ele>147.180115</ele>
        <time>2025-05-13T19:15:55.119Z</time>
      </trkpt>
      <trkpt lat="44.1467" lon="1.90153">
        <ele>146.083484</ele>
        <time>2025-05-13T19:15:57.980Z</time>
      </trkpt>
      <trkpt lat="44.14703" lon="1.90186">
        <ele>144.588111</ele>
        <time>2025-05-13T19:16:02.007Z</time>
      </trkpt>
      <trkpt lat="44.14898" lon="1.90338">
        <ele>140.297637</ele>
        <time>2025-05-13T19:16:27.627Z</time>
      </trkpt>
      <trkpt lat="44.14994" lon="1.90419">
        <ele>139.586474</ele>
        <time>2025-05-13T19:16:42.905Z</time>
      </trkpt>
      <trkpt lat="44.15081" lon="1.90507">
        <ele>139.249998</ele>
        <time>2025-05-13T19:16:56.631Z</time>
      </trkpt>
      <trkpt lat="44.15157" lon="1.90568">
        <ele>139.529866</ele>
        <time>2025-05-13T19:17:11.024Z</time>
      </trkpt>
      <trkpt lat="44.15207" lon="1.90598">
        <ele>139.703478</ele>
        <time>2025-05-13T19:17:20.998Z</time>
      </trkpt>
      <trkpt lat="44.15252" lon="1.90606">
        <ele>139.773365</ele>
        <time>2025-05-13T19:17:29.356Z</time>
      </trkpt>
      <trkpt lat="44.15246" lon="1.90618">
        <ele>139.786572</ele>
        <time>2025-05-13T19:17:31.236Z</time>
      </trkpt>
      <trkpt lat="44.1523" lon="1.90651">
        <ele>139.824728</ele>
        <time>2025-05-13T19:17:36.508Z</time>
      </trkpt>
      <trkpt lat="44.15216" lon="1.90679">
        <ele>139.857803</ele>
        <time>2025-05-13T19:17:40.317Z</time>
      </trkpt>
      <trkpt lat="44.15138" lon="1.90801">
        <ele>140.361805</ele>
        <time>2025-05-13T19:17:55.175Z</time>
      </trkpt>
      <trkpt lat="44.15124" lon="1.90829">
        <ele>140.612786</ele>
        <time>2025-05-13T19:17:58.813Z</time>
      </trkpt>
      <trkpt lat="44.15114" lon="1.90864">
        <ele>140.890021</ele>
        <time>2025-05-13T19:18:03.355Z</time>
      </trkpt>
      <trkpt lat="44.15104" lon="1.90924">
        <ele>141.334759</ele>
        <time>2025-05-13T19:18:12.194Z</time>
      </trkpt>
      <trkpt lat="44.15092" lon="1.90955">
        <ele>141.59618</ele>
        <time>2025-05-13T19:18:18.542Z</time>
      </trkpt>
      <trkpt lat="44.15086" lon="1.90969">
        <ele>141.71326</ele>
        <time>2025-05-13T19:18:21.590Z</time>
      </trkpt>
      <trkpt lat="44.15108" lon="1.91028">
        <ele>143.408892</ele>
        <time>2025-05-13T19:18:35.044Z</time>
      </trkpt>
      <trkpt lat="44.15123" lon="1.91051">
        <ele>144.325684</ele>
        <time>2025-05-13T19:18:41.887Z</time>
      </trkpt>
      <trkpt lat="44.15129" lon="1.91082">
        <ele>145.240783</ele>
        <time>2025-05-13T19:18:48.925Z</time>
      </trkpt>
      <trkpt lat="44.15133" lon="1.91086">
        <ele>145.457346</ele>
        <time>2025-05-13T19:18:50.685Z</time>
      </trkpt>
      <trkpt lat="44.1516" lon="1.91064">
        <ele>146.691564</ele>
        <time>2025-05-13T19:19:00.764Z</time>
      </trkpt>
      <trkpt lat="44.15168" lon="1.91064">
        <ele>147.020275</ele>
        <time>2025-05-13T19:19:03.457Z</time>
      </trkpt>
      <trkpt lat="44.15175" lon="1.91069">
        <ele>147.333234</ele>
        <time>2025-05-13T19:19:06.138Z</time>
      </trkpt>
      <trkpt lat="44.15201" lon="1.91102">
        <ele>148.74813</ele>
        <time>2025-05-13T19:19:18.075Z</time>
      </trkpt>
      <trkpt lat="44.15276" lon="1.91202">
        <ele>152.969936</ele>
        <time>2025-05-13T19:19:52.081Z</time>
      </trkpt>
      <trkpt lat="44.1532" lon="1.9125">
        <ele>155.252478</ele>
        <time>2025-05-13T19:20:09.611Z</time>
      </trkpt>
      <trkpt lat="44.1541" lon="1.91327">
        <ele>157.929982</ele>
        <time>2025-05-13T19:20:37.495Z</time>
      </trkpt>
      <trkpt lat="44.15422" lon="1.91335">
        <ele>158.191395</ele>
        <time>2025-05-13T19:20:40.441Z</time>
      </trkpt>
      <trkpt lat="44.15434" lon="1.91338">
        <ele>158.424117</ele>
        <time>2025-05-13T19:20:43.002Z</time>
      </trkpt>
      <trkpt lat="44.15441" lon="1.91336">
        <ele>158.579739</ele>
        <time>2025-05-13T19:20:44.655Z</time>
      </trkpt>
      <trkpt lat="44.15459" lon="1.91337">
        <ele>158.924099</ele>
        <time>2025-05-13T19:20:48.226Z</time>
      </trkpt>
      <trkpt lat="44.15469" lon="1.91346">
        <ele>159.175803</ele>
        <time>2025-05-13T19:20:50.752Z</time>
      </trkpt>
      <trkpt lat="44.15497" lon="1.91392">
        <ele>159.964749</ele>
        <time>2025-05-13T19:20:58.664Z</time>
      </trkpt>
      <trkpt lat="44.15522" lon="1.91421">
        <ele>160.07256</ele>
        <time>2025-05-13T19:21:04.066Z</time>
      </trkpt>
      <trkpt lat="44.15584" lon="1.91443">
        <ele>160.286672</ele>
        <time>2025-05-13T19:21:14.629Z</time>
      </trkpt>
      <trkpt lat="44.15623" lon="1.91467">
        <ele>160.428568</ele>
        <time>2025-05-13T19:21:21.178Z</time>
      </trkpt>
      <trkpt lat="44.15667" lon="1.91503">
        <ele>160.528005</ele>
        <time>2025-05-13T19:21:28.571Z</time>
      </trkpt>
      <trkpt lat="44.1571" lon="1.91559">
        <ele>160.41849</ele>
        <time>2025-05-13T19:21:36.957Z</time>
      </trkpt>
      <trkpt lat="44.15733" lon="1.91594">
        <ele>160.355287</ele>
        <time>2025-05-13T19:21:41.678Z</time>
      </trkpt>
      <trkpt lat="44.1577" lon="1.91759">
        <ele>160.035436</ele>
        <time>2025-05-13T19:21:59.004Z</time>
      </trkpt>
      <trkpt lat="44.15789" lon="1.91841">
        <ele>159.811943</ele>
        <time>2025-05-13T19:22:07.610Z</time>
      </trkpt>
      <trkpt lat="44.15799" lon="1.919">
        <ele>159.652448</ele>
        <time>2025-05-13T19:22:13.506Z</time>
      </trkpt>
      <trkpt lat="44.15802" lon="1.91949">
        <ele>159.535281</ele>
        <time>2025-05-13T19:22:18.086Z</time>
      </trkpt>
      <trkpt lat="44.15798" lon="1.92097">
        <ele>159.248172</ele>
        <time>2025-05-13T19:22:32.161Z</time>
      </trkpt>
      <trkpt lat="44.15791" lon="1.9214">
        <ele>159.161432</ele>
        <time>2025-05-13T19:22:36.827Z</time>
      </trkpt>
      <trkpt lat="44.15709" lon="1.92353">
        <ele>158.856743</ele>
        <time>2025-05-13T19:23:03.968Z</time>
      </trkpt>
      <trkpt lat="44.15701" lon="1.9238">
        <ele>158.824557</ele>
        <time>2025-05-13T19:23:06.635Z</time>
      </trkpt>
      <trkpt lat="44.15695" lon="1.92419">
        <ele>158.583487</ele>
        <time>2025-05-13T19:23:10.139Z</time>
      </trkpt>
      <trkpt lat="44.15687" lon="1.92556">
        <ele>156.889218</ele>
        <time>2025-05-13T19:23:21.355Z</time>
      </trkpt>
      <trkpt lat="44.15681" lon="1.92618">
        <ele>156.122632</ele>
        <time>2025-05-13T19:23:26.284Z</time>
      </trkpt>
      <trkpt lat="44.15676" lon="1.92657">
        <ele>155.629147</ele>
        <time>2025-05-13T19:23:29.239Z</time>
      </trkpt>
      <trkpt lat="44.15666" lon="1.92693">
        <ele>155.101195</ele>
        <time>2025-05-13T19:23:32.162Z</time>
      </trkpt>
      <trkpt lat="44.15659" lon="1.9273">
        <ele>154.580356</ele>
        <time>2025-05-13T19:23:35.096Z</time>
      </trkpt>
      <trkpt lat="44.15661" lon="1.92757">
        <ele>154.223983</ele>
        <time>2025-05-13T19:23:37.130Z</time>
      </trkpt>
      <trkpt lat="44.15664" lon="1.92783">
        <ele>153.864765</ele>
        <time>2025-05-13T19:23:39.196Z</time>
      </trkpt>
      <trkpt lat="44.15662" lon="1.92803">
        <ele>153.596113</ele>
        <time>2025-05-13T19:23:40.780Z</time>
      </trkpt>
      <trkpt lat="44.15655" lon="1.92824">
        <ele>153.279635</ele>
        <time>2025-05-13T19:23:42.657Z</time>
      </trkpt>
      <trkpt lat="44.15597" lon="1.92984">
        <ele>152.225281</ele>
        <time>2025-05-13T19:23:58.353Z</time>
      </trkpt>
      <trkpt lat="44.1558" lon="1.93019">
        <ele>152.183765</ele>
        <time>2025-05-13T19:24:02.932Z</time>
      </trkpt>
      <trkpt lat="44.15518" lon="1.93104">
        <ele>152.342836</ele>
        <time>2025-05-13T19:24:18.039Z</time>
      </trkpt>
      <trkpt lat="44.15444" lon="1.93221">
        <ele>154.144369</ele>
        <time>2025-05-13T19:24:42.122Z</time>
      </trkpt>
      <trkpt lat="44.15433" lon="1.93244">
        <ele>154.466519</ele>
        <time>2025-05-13T19:24:47.045Z</time>
      </trkpt>
      <trkpt lat="44.15417" lon="1.93313">
        <ele>154.856064</ele>
        <time>2025-05-13T19:25:00.160Z</time>
      </trkpt>
      <trkpt lat="44.15409" lon="1.93335">
        <ele>154.738616</ele>
        <time>2025-05-13T19:25:04.402Z</time>
      </trkpt>
      <trkpt lat="44.15394" lon="1.9336">
        <ele>154.584645</ele>
        <time>2025-05-13T19:25:07.273Z</time>
      </trkpt>
      <trkpt lat="44.15345" lon="1.93425">
        <ele>154.141689</ele>
        <time>2025-05-13T19:25:15.051Z</time>
      </trkpt>
      <trkpt lat="44.15338" lon="1.93438">
        <ele>154.066269</ele>
        <time>2025-05-13T19:25:16.324Z</time>
      </trkpt>
      <trkpt lat="44.15336" lon="1.93448">
        <ele>154.016001</ele>
        <time>2025-05-13T19:25:17.185Z</time>
      </trkpt>
      <trkpt lat="44.15338" lon="1.93455">
        <ele>153.97908</ele>
        <time>2025-05-13T19:25:17.777Z</time>
      </trkpt>
      <trkpt lat="44.15342" lon="1.93462">
        <ele>153.938522</ele>
        <time>2025-05-13T19:25:18.484Z</time>
      </trkpt>
      <trkpt lat="44.15347" lon="1.9347">
        <ele>153.886922</ele>
        <time>2025-05-13T19:25:19.308Z</time>
      </trkpt>
      <trkpt lat="44.15346" lon="1.93477">
        <ele>153.855845</ele>
        <time>2025-05-13T19:25:19.866Z</time>
      </trkpt>
      <trkpt lat="44.15338" lon="1.93489">
        <ele>153.786769</ele>
        <time>2025-05-13T19:25:21.085Z</time>
      </trkpt>
      <trkpt lat="44.1527" lon="1.93577">
        <ele>153.320884</ele>
        <time>2025-05-13T19:25:31.180Z</time>
      </trkpt>
      <trkpt lat="44.15242" lon="1.93606">
        <ele>153.149501</ele>
        <time>2025-05-13T19:25:38.501Z</time>
      </trkpt>
      <trkpt lat="44.15207" lon="1.93637">
        <ele>152.940821</ele>
        <time>2025-05-13T19:25:47.073Z</time>
      </trkpt>
      <trkpt lat="44.15145" lon="1.93674">
        <ele>153.588115</ele>
        <time>2025-05-13T19:26:00.971Z</time>
      </trkpt>
      <trkpt lat="44.15113" lon="1.93683">
        <ele>153.956755</ele>
        <time>2025-05-13T19:26:07.784Z</time>
      </trkpt>
      <trkpt lat="44.15024" lon="1.937">
        <ele>154.862131</ele>
        <time>2025-05-13T19:26:24.899Z</time>
      </trkpt>
      <trkpt lat="44.14976" lon="1.93717">
        <ele>154.184938</ele>
        <time>2025-05-13T19:26:32.268Z</time>
      </trkpt>
      <trkpt lat="44.14931" lon="1.9374">
        <ele>153.533309</ele>
        <time>2025-05-13T19:26:38.007Z</time>
      </trkpt>
      <trkpt lat="44.14893" lon="1.93768">
        <ele>152.943631</ele>
        <time>2025-05-13T19:26:42.663Z</time>
      </trkpt>
      <trkpt lat="44.14834" lon="1.93834">
        <ele>151.248862</ele>
        <time>2025-05-13T19:26:50.249Z</time>
      </trkpt>
      <trkpt lat="44.14753" lon="1.93937">
        <ele>147.933929</ele>
        <time>2025-05-13T19:27:01.201Z</time>
      </trkpt>
      <trkpt lat="44.14729" lon="1.93985">
        <ele>146.889245</ele>
        <time>2025-05-13T19:27:05.663Z</time>
      </trkpt>
      <trkpt lat="44.14664" lon="1.94164">
        <ele>145.375163</ele>
        <time>2025-05-13T19:27:23.223Z</time>
      </trkpt>
      <trkpt lat="44.14636" lon="1.94229">
        <ele>145.203498</ele>
        <time>2025-05-13T19:27:31.820Z</time>
      </trkpt>
      <trkpt lat="44.14618" lon="1.9434">
        <ele>145.422146</ele>
        <time>2025-05-13T19:27:45.484Z</time>
      </trkpt>
      <trkpt lat="44.14611" lon="1.9436">
        <ele>145.464455</ele>
        <time>2025-05-13T19:27:48.121Z</time>
      </trkpt>
      <trkpt lat="44.14598" lon="1.94375">
        <ele>145.511823</ele>
        <time>2025-05-13T19:27:51.020Z</time>
      </trkpt>
      <trkpt lat="44.1458" lon="1.94389">
        <ele>145.565973</ele>
        <time>2025-05-13T19:27:54.214Z</time>
      </trkpt>
      <trkpt lat="44.14573" lon="1.94407">
        <ele>145.606025</ele>
        <time>2025-05-13T19:27:56.518Z</time>
      </trkpt>
      <trkpt lat="44.14564" lon="1.94456">
        <ele>145.785634</ele>
        <time>2025-05-13T19:28:01.993Z</time>
      </trkpt>
      <trkpt lat="44.14564" lon="1.94482">
        <ele>145.879109</ele>
        <time>2025-05-13T19:28:04.775Z</time>
      </trkpt>
      <trkpt lat="44.14569" lon="1.945">
        <ele>145.94787</ele>
        <time>2025-05-13T19:28:06.801Z</time>
      </trkpt>
      <trkpt lat="44.14589" lon="1.94538">
        <ele>146.11499</ele>
        <time>2025-05-13T19:28:12.009Z</time>
      </trkpt>
      <trkpt lat="44.14604" lon="1.94571">
        <ele>146.253002</ele>
        <time>2025-05-13T19:28:16.821Z</time>
      </trkpt>
      <trkpt lat="44.14616" lon="1.94645">
        <ele>146.583206</ele>
        <time>2025-05-13T19:28:26.988Z</time>
      </trkpt>
      <trkpt lat="44.14639" lon="1.94737">
        <ele>147.724359</ele>
        <time>2025-05-13T19:28:41.796Z</time>
      </trkpt>
      <trkpt lat="44.14647" lon="1.94762">
        <ele>148.053023</ele>
        <time>2025-05-13T19:28:46.332Z</time>
      </trkpt>
      <trkpt lat="44.14668" lon="1.94794">
        <ele>148.554807</ele>
        <time>2025-05-13T19:28:53.504Z</time>
      </trkpt>
      <trkpt lat="44.1475" lon="1.94898">
        <ele>150.149331</ele>
        <time>2025-05-13T19:29:17.323Z</time>
      </trkpt>
      <trkpt lat="44.14919" lon="1.95022">
        <ele>152.622998</ele>
        <time>2025-05-13T19:29:53.685Z</time>
      </trkpt>
      <trkpt lat="44.14936" lon="1.95039">
        <ele>152.912333</ele>
        <time>2025-05-13T19:29:58.014Z</time>
      </trkpt>
      <trkpt lat="44.14963" lon="1.95074">
        <ele>153.416023</ele>
        <time>2025-05-13T19:30:05.578Z</time>
      </trkpt>
      <trkpt lat="44.15038" lon="1.9516">
        <ele>156.274915</ele>
        <time>2025-05-13T19:30:25.805Z</time>
      </trkpt>
      <trkpt lat="44.15052" lon="1.95213">
        <ele>158.251622</ele>
        <time>2025-05-13T19:30:36.193Z</time>
      </trkpt>
      <trkpt lat="44.15059" lon="1.95268">
        <ele>160.229381</ele>
        <time>2025-05-13T19:30:51.420Z</time>
      </trkpt>
      <trkpt lat="44.15058" lon="1.95298">
        <ele>161.270149</ele>
        <time>2025-05-13T19:31:01.181Z</time>
      </trkpt>
      <trkpt lat="44.15051" lon="1.95318">
        <ele>162.060401</ele>
        <time>2025-05-13T19:31:09.192Z</time>
      </trkpt>
      <trkpt lat="44.15037" lon="1.95331">
        <ele>162.915484</ele>
        <time>2025-05-13T19:31:18.244Z</time>
      </trkpt>
      <trkpt lat="44.14968" lon="1.95382">
        <ele>167.187964</ele>
        <time>2025-05-13T19:31:56.648Z</time>
      </trkpt>
      <trkpt lat="44.14944" lon="1.95418">
        <ele>169.143817</ele>
        <time>2025-05-13T19:32:12.099Z</time>
      </trkpt>
      <trkpt lat="44.14915" lon="1.95484">
        <ele>172.191276</ele>
        <time>2025-05-13T19:32:27.936Z</time>
      </trkpt>
      <trkpt lat="44.14819" lon="1.95711">
        <ele>170.733199</ele>
        <time>2025-05-13T19:32:49.342Z</time>
      </trkpt>
      <trkpt lat="44.14747" lon="1.95855">
        <ele>168.160727</ele>
        <time>2025-05-13T19:33:03.259Z</time>
      </trkpt>
      <trkpt lat="44.14708" lon="1.95907">
        <ele>167.041868</ele>
        <time>2025-05-13T19:33:09.075Z</time>
      </trkpt>
      <trkpt lat="44.14694" lon="1.95933">
        <ele>166.528771</ele>
        <time>2025-05-13T19:33:11.497Z</time>
      </trkpt>
      <trkpt lat="44.14685" lon="1.9601">
        <ele>165.267474</ele>
        <time>2025-05-13T19:33:17.421Z</time>
      </trkpt>
      <trkpt lat="44.14677" lon="1.96026">
        <ele>164.953712</ele>
        <time>2025-05-13T19:33:18.885Z</time>
      </trkpt>
      <trkpt lat="44.14649" lon="1.96054">
        <ele>164.172505</ele>
        <time>2025-05-13T19:33:22.511Z</time>
      </trkpt>
      <trkpt lat="44.14591" lon="1.96149">
        <ele>163.058814</ele>
        <time>2025-05-13T19:33:32.373Z</time>
      </trkpt>
      <trkpt lat="44.14561" lon="1.96205">
        <ele>163.236287</ele>
        <time>2025-05-13T19:33:39.338Z</time>
      </trkpt>
      <trkpt lat="44.1455" lon="1.96236">
        <ele>163.325219</ele>
        <time>2025-05-13T19:33:43.599Z</time>
      </trkpt>
      <trkpt lat="44.14532" lon="1.96318">
        <ele>163.54717</ele>
        <time>2025-05-13T19:33:56.548Z</time>
      </trkpt>
      <trkpt lat="44.14502" lon="1.96424">
        <ele>165.53095</ele>
        <time>2025-05-13T19:34:18.491Z</time>
      </trkpt>
      <trkpt lat="44.1449" lon="1.96453">
        <ele>166.181512</ele>
        <time>2025-05-13T19:34:25.313Z</time>
      </trkpt>
      <trkpt lat="44.14454" lon="1.96498">
        <ele>167.485876</ele>
        <time>2025-05-13T19:34:38.038Z</time>
      </trkpt>
      <trkpt lat="44.14438" lon="1.96522">
        <ele>168.11549</ele>
        <time>2025-05-13T19:34:44.084Z</time>
      </trkpt>
      <trkpt lat="44.1443" lon="1.96541">
        <ele>168.456388</ele>
        <time>2025-05-13T19:34:47.985Z</time>
      </trkpt>
      <trkpt lat="44.14416" lon="1.96597">
        <ele>168.87223</ele>
        <time>2025-05-13T19:34:57.961Z</time>
      </trkpt>
      <trkpt lat="44.14391" lon="1.96651">
        <ele>169.316952</ele>
        <time>2025-05-13T19:35:06.387Z</time>
      </trkpt>
      <trkpt lat="44.14361" lon="1.9669">
        <ele>169.720965</ele>
        <time>2025-05-13T19:35:11.485Z</time>
      </trkpt>
      <trkpt lat="44.14351" lon="1.96714">
        <ele>169.912764</ele>
        <time>2025-05-13T19:35:14.104Z</time>
      </trkpt>
      <trkpt lat="44.14327" lon="1.96816">
        <ele>171.856677</ele>
        <time>2025-05-13T19:35:27.979Z</time>
      </trkpt>
      <trkpt lat="44.14286" lon="1.96897">
        <ele>174.221226</ele>
        <time>2025-05-13T19:35:53.598Z</time>
      </trkpt>
      <trkpt lat="44.14261" lon="1.9693">
        <ele>175.38606</ele>
        <time>2025-05-13T19:36:10.383Z</time>
      </trkpt>
      <trkpt lat="44.14232" lon="1.96939">
        <ele>175.4</ele>
      </trkpt>
      <trkpt lat="44.14218" lon="1.96846">
        <ele>172.6</ele>
      </trkpt>
      <trkpt lat="44.14161" lon="1.96816">
        <ele>170.6</ele>
      </trkpt>
      <trkpt lat="44.14153" lon="1.96806">
        <ele>171.5</ele>
      </trkpt>
      <trkpt lat="44.14013" lon="1.96814">
        <ele>183.3</ele>
      </trkpt>
      <trkpt lat="44.13923" lon="1.96758">
        <ele>195.7</ele>
      </trkpt>
      <trkpt lat="44.13877" lon="1.96758">
        <ele>199.4</ele>
      </trkpt>
      <trkpt lat="44.1382" lon="1.96782">
        <ele>205.8</ele>
      </trkpt>
      <trkpt lat="44.13722" lon="1.96855">
        <ele>216.2</ele>
      </trkpt>
      <trkpt lat="44.1366" lon="1.96861">
        <ele>224.2</ele>
      </trkpt>
      <trkpt lat="44.13546" lon="1.96903">
        <ele>238.4</ele>
      </trkpt>
      <trkpt lat="44.13433" lon="1.9689">
        <ele>243.8</ele>
      </trkpt>
      <trkpt lat="44.13372" lon="1.96939">
        <ele>248.1</ele>
      </trkpt>
      <trkpt lat="44.13358" lon="1.96915">
        <ele>248.4</ele>
      </trkpt>
      <trkpt lat="44.13349" lon="1.96793">
        <ele>253.9</ele>
      </trkpt>
      <trkpt lat="44.13334" lon="1.96758">
        <ele>256.2</ele>
      </trkpt>
      <trkpt lat="44.13315" lon="1.96767">
        <ele>259.5</ele>
      </trkpt>
      <trkpt lat="44.13294" lon="1.96823">
        <ele>262.8</ele>
      </trkpt>
      <trkpt lat="44.13274" lon="1.96842">
        <ele>263.4</ele>
      </trkpt>
      <trkpt lat="44.13101" lon="1.96778">
        <ele>278.4</ele>
      </trkpt>
      <trkpt lat="44.13058" lon="1.9678">
        <ele>281.6</ele>
      </trkpt>
      <trkpt lat="44.13041" lon="1.96758">
        <ele>283.8</ele>
      </trkpt>
      <trkpt lat="44.13044" lon="1.96692">
        <ele>287.6</ele>
      </trkpt>
      <trkpt lat="44.13021" lon="1.96683">
        <ele>289.9</ele>
      </trkpt>
      <trkpt lat="44.12972" lon="1.96677">
        <ele>293.7</ele>
      </trkpt>
      <trkpt lat="44.12862" lon="1.96634">
        <ele>289.1</ele>
      </trkpt>
      <trkpt lat="44.12772" lon="1.96531">
        <ele>283.6</ele>
      </trkpt>
      <trkpt lat="44.12693" lon="1.96501">
        <ele>281.8</ele>
      </trkpt>
      <trkpt lat="44.12611" lon="1.96379">
        <ele>274.3</ele>
      </trkpt>
      <trkpt lat="44.12584" lon="1.96359">
        <ele>270.7</ele>
      </trkpt>
      <trkpt lat="44.12547" lon="1.96366">
        <ele>265.9</ele>
      </trkpt>
      <trkpt lat="44.12548" lon="1.96351">
        <ele>264.1</ele>
      </trkpt>
      <trkpt lat="44.12604" lon="1.96312">
        <ele>264.4</ele>
      </trkpt>
      <trkpt lat="44.12647" lon="1.96256">
        <ele>261.4</ele>
      </trkpt>
      <trkpt lat="44.12667" lon="1.96136">
        <ele>258.9</ele>
      </trkpt>
      <trkpt lat="44.12658" lon="1.96097">
        <ele>257</ele>
      </trkpt>
      <trkpt lat="44.12634" lon="1.96089">
        <ele>254.5</ele>
      </trkpt>
      <trkpt lat="44.12608" lon="1.96082">
        <ele>251.3</ele>
      </trkpt>
      <trkpt lat="44.1258" lon="1.96046">
        <ele>244.8</ele>
      </trkpt>
      <trkpt lat="44.12542" lon="1.96074">
        <ele>241</ele>
      </trkpt>
      <trkpt lat="44.12508" lon="1.9616">
        <ele>233.9</ele>
      </trkpt>
      <trkpt lat="44.12433" lon="1.96207">
        <ele>222.2</ele>
      </trkpt>
      <trkpt lat="44.12408" lon="1.9623">
        <ele>216</ele>
      </trkpt>
      <trkpt lat="44.12394" lon="1.96282">
        <ele>213.1</ele>
      </trkpt>
      <trkpt lat="44.12391" lon="1.96321">
        <ele>214.8</ele>
      </trkpt>
      <trkpt lat="44.1234" lon="1.96436">
        <ele>203</ele>
      </trkpt>
      <trkpt lat="44.12339" lon="1.96486">
        <ele>202.2</ele>
      </trkpt>
      <trkpt lat="44.12343" lon="1.96509">
        <ele>203.1</ele>
      </trkpt>
      <trkpt lat="44.12334" lon="1.96537">
        <ele>201.5</ele>
      </trkpt>
      <trkpt lat="44.12303" lon="1.96565">
        <ele>199</ele>
      </trkpt>
      <trkpt lat="44.12226" lon="1.96589">
        <ele>204.9</ele>
      </trkpt>
      <trkpt lat="44.12203" lon="1.96572">
        <ele>208.4</ele>
      </trkpt>
      <trkpt lat="44.12163" lon="1.96329">
        <ele>212.5</ele>
      </trkpt>
      <trkpt lat="44.12138" lon="1.96278">
        <ele>215.1</ele>
      </trkpt>
      <trkpt lat="44.12083" lon="1.96243">
        <ele>223.1</ele>
      </trkpt>
      <trkpt lat="44.11958" lon="1.96224">
        <ele>231.4</ele>
      </trkpt>
      <trkpt lat="44.11884" lon="1.96252">
        <ele>239.8</ele>
      </trkpt>
      <trkpt lat="44.11727" lon="1.96207">
        <ele>243.1</ele>
      </trkpt>
      <trkpt lat="44.11675" lon="1.96173">
        <ele>250.3</ele>
      </trkpt>
      <trkpt lat="44.11555" lon="1.96207">
        <ele>263.8</ele>
      </trkpt>
      <trkpt lat="44.11443" lon="1.96132">
        <ele>270</ele>
      </trkpt>
      <trkpt lat="44.11154" lon="1.96758">
        <ele>280.3</ele>
      </trkpt>
      <trkpt lat="44.11043" lon="1.96784">
        <ele>274.8</ele>
      </trkpt>
      <trkpt lat="44.10932" lon="1.96878">
        <ele>269.3</ele>
      </trkpt>
      <trkpt lat="44.10568" lon="1.96939">
        <ele>255.2</ele>
      </trkpt>
      <trkpt lat="44.10451" lon="1.9687">
        <ele>254.6</ele>
      </trkpt>
      <trkpt lat="44.10348" lon="1.96874">
        <ele>257.5</ele>
      </trkpt>
      <trkpt lat="44.10271" lon="1.96896">
        <ele>262.5</ele>
      </trkpt>
      <trkpt lat="44.10106" lon="1.96939">
        <ele>276.4</ele>
      </trkpt>
      <trkpt lat="44.09976" lon="1.96939">
        <ele>288.3</ele>
      </trkpt>
      <trkpt lat="44.09896" lon="1.96861">
        <ele>293.5</ele>
      </trkpt>
      <trkpt lat="44.09748" lon="1.96836">
        <ele>313.7</ele>
      </trkpt>
      <trkpt lat="44.09645" lon="1.96866">
        <ele>320.9</ele>
      </trkpt>
      <trkpt lat="44.09519" lon="1.96788">
        <ele>323</ele>
      </trkpt>
      <trkpt lat="44.09435" lon="1.96784">
        <ele>322.5</ele>
      </trkpt>
      <trkpt lat="44.09358" lon="1.96831">
        <ele>322</ele>
      </trkpt>
      <trkpt lat="44.09294" lon="1.96891">
        <ele>321.4</ele>
      </trkpt>
      <trkpt lat="44.09232" lon="1.9687">
        <ele>322</ele>
      </trkpt>
      <trkpt lat="44.09176" lon="1.96891">
        <ele>322</ele>
      </trkpt>
      <trkpt lat="44.09069" lon="1.96793">
        <ele>319</ele>
      </trkpt>
      <trkpt lat="44.08803" lon="1.96767">
        <ele>313.4</ele>
      </trkpt>
      <trkpt lat="44.08541" lon="1.96651">
        <ele>305</ele>
      </trkpt>
      <trkpt lat="44.08501" lon="1.96441">
        <ele>286.2</ele>
      </trkpt>
      <trkpt lat="44.08474" lon="1.96368">
        <ele>283</ele>
      </trkpt>
      <trkpt lat="44.08471" lon="1.96282">
        <ele>266.4</ele>
      </trkpt>
      <trkpt lat="44.08307" lon="1.96106">
        <ele>248.6</ele>
      </trkpt>
      <trkpt lat="44.08224" lon="1.96059">
        <ele>242.1</ele>
      </trkpt>
      <trkpt lat="44.08175" lon="1.95969">
        <ele>234.3</ele>
      </trkpt>
      <trkpt lat="44.08128" lon="1.95943">
        <ele>228.8</ele>
      </trkpt>
      <trkpt lat="44.07965" lon="1.95891">
        <ele>210.4</ele>
      </trkpt>
      <trkpt lat="44.07712" lon="1.95952">
        <ele>188.8</ele>
      </trkpt>
      <trkpt lat="44.07305" lon="1.95913">
        <ele>171.8</ele>
      </trkpt>
      <trkpt lat="44.07265" lon="1.95707">
        <ele>170.3</ele>
      </trkpt>
      <trkpt lat="44.07058" lon="1.95595">
        <ele>165.6</ele>
      </trkpt>
      <trkpt lat="44.07006" lon="1.95582">
        <ele>164.5</ele>
      </trkpt>
      <trkpt lat="44.06914" lon="1.95497">
        <ele>165.2</ele>
      </trkpt>
      <trkpt lat="44.06849" lon="1.95437">
        <ele>165.6</ele>
      </trkpt>
      <trkpt lat="44.0679" lon="1.95454">
        <ele>165.2</ele>
      </trkpt>
      <trkpt lat="44.06645" lon="1.95351">
        <ele>171.6</ele>
      </trkpt>
      <trkpt lat="44.06402" lon="1.95535">
        <ele>207.1</ele>
      </trkpt>
    </trkseg>
  </trk>
</gpx>